[[{"header":{"parameterUnit":"m.s-1","parameterCategory":1,"la1":30.6,"la2":29.2853,"lo1":-89.7004,"lo2":-87.6739,"dy":0.0162,"dx":0.0183,"nx":112,"ny":82,"refTime":"2024-05-19T06:00:00:Z","depth":0,"parameterNumber":2,"parameterNumberName":"U-component_of_WINDS"},"data":[0.0,0.0,0.0,0.0,0.0,0.0,0.0,0.0,0.0,0.0,0.0,0.0,0.0,0.0,0.0,0.0,0.0,0.0,0.0,0.0,0.0,0.0,0.0,0.0,0.0,0.0,0.0,0.0,0.0,0.0,0.0,0.0,0.0,0.0,0.0,0.0,0.0,0.0,0.0,0.0,0.0,0.0,0.0,0.0,0.0,0.0,0.0,0.0,0.0,0.0,0.0,0.0,0.0,0.0,0.0,0.0,0.0,0.0,0.0,0.0,0.0,0.0,0.0,0.0,0.0,0.0,0.0,0.0,0.0,0.0,0.0,0.0,0.0,0.0,0.0,0.0,0.0,0.0,0.0,0.0,0.0,0.0,0.0,0.0,0.0,0.0,0.0,0.0,0.0,0.0,0.0,-1.6603,-1.8927,-1.9658,-1.8045,-1.8343,-1.6984,-1.3137,0.0,0.0,0.0,0.0,0.0,0.0,0.0,0.0,0.0,0.0,0.0,0.0,0.0,0.0,0.0,0.0,0.0,0.0,0.0,0.0,0.0,0.0,0.0,0.0,0.0,0.0,0.0,0.0,0.0,0.0,0.0,0.0,0.0,0.0,0.0,0.0,0.0,0.0,0.0,0.0,0.0,0.0,0.0,0.0,0.0,0.0,0.0,0.0,0.0,0.0,0.0,0.0,0.0,0.0,0.0,0.0,0.0,0.0,0.0,0.0,0.0,0.0,0.0,0.0,0.0,0.0,0.0,0.0,0.0,0.0,0.0,0.0,0.0,0.0,0.0,0.0,0.0,0.0,0.0,0.0,0.0,0.0,0.0,0.0,0.0,0.0,0.0,0.0,0.0,0.0,0.0,0.0,0.0,0.0,0.0,0.0,0.0,0.0,0.0,0.0,0.0,0.0,0.0,0.0,-1.4981,-1.828,-1.9638,-1.9888,-1.8895,-1.8224,-1.6679,-1.3879,0.0,0.0,0.0,0.0,0.0,0.0,0.0,0.0,0.0,0.0,0.0,0.0,0.0,0.0,0.0,0.0,0.0,0.0,0.0,0.0,0.0,0.0,0.0,0.0,0.0,0.0,0.0,0.0,0.0,0.0,0.0,0.0,0.0,0.0,0.0,0.0,0.0,0.0,0.0,0.0,0.0,0.0,0.0,0.0,0.0,0.0,0.0,0.0,0.0,0.0,0.0,0.0,0.0,0.0,0.0,0.0,0.0,0.0,0.0,0.0,0.0,0.0,0.0,0.0,0.0,0.0,0.0,0.0,0.0,0.0,0.0,0.0,0.0,0.0,0.0,0.0,0.0,0.0,0.0,0.0,0.0,0.0,0.0,0.0,0.0,0.0,0.0,0.0,0.0,0.0,0.0,0.0,0.0,0.0,0.0,0.0,0.0,0.0,0.0,0.0,0.0,0.0,0.0,-1.425,-1.608,-1.8084,-1.9504,-1.9754,-1.8414,-1.793,-1.6394,-1.3335,-1.3074,0.0,0.0,0.0,0.0,0.0,0.0,0.0,0.0,0.0,0.0,0.0,0.0,0.0,0.0,0.0,0.0,0.0,0.0,0.0,0.0,0.0,0.0,0.0,0.0,0.0,0.0,0.0,0.0,0.0,0.0,0.0,0.0,0.0,0.0,0.0,0.0,0.0,0.0,0.0,0.0,0.0,0.0,0.0,0.0,0.0,0.0,0.0,0.0,0.0,0.0,0.0,0.0,0.0,0.0,0.0,0.0,0.0,0.0,0.0,0.0,0.0,0.0,0.0,0.0,0.0,0.0,0.0,0.0,0.0,0.0,0.0,0.0,0.0,0.0,0.0,0.0,0.0,0.0,0.0,0.0,0.0,0.0,0.0,0.0,0.0,0.0,0.0,0.0,0.0,0.0,0.0,0.0,0.0,0.0,0.0,0.0,0.0,0.0,0.0,0.0,0.0,0.0,-1.5596,-1.7103,-1.7927,-1.9388,-1.96,-1.7853,-1.7526,-1.6019,-1.2701,-1.2318,0.0,0.0,0.0,0.0,0.0,0.0,0.0,0.0,0.0,0.0,0.0,0.0,0.0,0.0,0.0,0.0,0.0,0.0,0.0,0.0,0.0,0.0,0.0,0.0,0.0,0.0,0.0,0.0,0.0,0.0,0.0,0.0,0.0,0.0,0.0,0.0,0.0,0.0,0.0,0.0,0.0,0.0,0.0,0.0,0.0,0.0,0.0,0.0,0.0,0.0,0.0,0.0,0.0,0.0,0.0,0.0,0.0,0.0,0.0,0.0,0.0,0.0,0.0,0.0,0.0,0.0,0.0,0.0,0.0,0.0,0.0,0.0,0.0,0.0,0.0,0.0,0.0,0.0,0.0,0.0,0.0,0.0,0.0,0.0,0.0,0.0,0.0,0.0,0.0,0.0,0.0,0.0,0.0,0.0,0.0,0.0,0.0,0.0,0.0,0.0,0.0,0.0,-1.6077,-1.7946,-1.8823,-1.975,-1.96,-1.7853,-1.7007,-1.5421,-1.2663,-1.1737,0.0,0.0,0.0,0.0,0.0,0.0,0.0,0.0,0.0,0.0,0.0,0.0,0.0,0.0,0.0,0.0,0.0,0.0,0.0,0.0,0.0,0.0,0.0,0.0,0.0,0.0,0.0,0.0,0.0,0.0,0.0,0.0,0.0,0.0,0.0,0.0,0.0,0.0,0.0,0.0,0.0,0.0,0.0,0.0,0.0,0.0,0.0,0.0,0.0,0.0,0.0,0.0,0.0,0.0,0.0,0.0,0.0,0.0,0.0,0.0,0.0,0.0,0.0,0.0,0.0,0.0,0.0,0.0,0.0,0.0,0.0,0.0,0.0,0.0,0.0,0.0,0.0,0.0,0.0,0.0,0.0,0.0,0.0,0.0,0.0,0.0,0.0,0.0,0.0,0.0,0.0,0.0,0.0,0.0,0.0,0.0,0.0,0.0,0.0,0.0,0.0,0.0,-1.5391,-1.7273,0.0,-1.8962,-1.9,-1.7795,-1.6439,-1.4731,-1.2622,0.0,0.0,0.0,0.0,0.0,0.0,0.0,0.0,0.0,0.0,0.0,0.0,0.0,0.0,0.0,0.0,0.0,0.0,0.0,0.0,0.0,0.0,0.0,0.0,0.0,0.0,0.0,0.0,0.0,0.0,0.0,0.0,0.0,0.0,0.0,0.0,0.0,0.0,0.0,0.0,0.0,0.0,0.0,0.0,0.0,0.0,0.0,0.0,0.0,0.0,0.0,0.0,0.0,0.0,0.0,0.0,0.0,0.0,0.0,0.0,0.0,0.0,0.0,0.0,0.0,0.0,0.0,0.0,0.0,0.0,0.0,0.0,0.0,0.0,0.0,0.0,0.0,0.0,0.0,0.0,0.0,0.0,0.0,0.0,0.0,0.0,0.0,0.0,0.0,0.0,0.0,0.0,0.0,0.0,0.0,0.0,0.0,0.0,0.0,0.0,0.0,0.0,-1.2625,-1.4929,-1.6718,0.0,-1.808,-1.822,-1.7331,-1.5689,-1.4058,-1.256,0.0,0.0,0.0,0.0,0.0,0.0,0.0,0.0,0.0,0.0,0.0,0.0,0.0,0.0,0.0,0.0,0.0,0.0,0.0,0.0,0.0,0.0,0.0,0.0,0.0,0.0,0.0,0.0,0.0,0.0,0.0,0.0,0.0,0.0,0.0,0.0,0.0,0.0,0.0,0.0,0.0,0.0,0.0,0.0,0.0,0.0,0.0,0.0,0.0,0.0,0.0,0.0,0.0,0.0,0.0,0.0,0.0,0.0,0.0,0.0,0.0,0.0,0.0,0.0,0.0,0.0,0.0,0.0,0.0,0.0,0.0,0.0,0.0,0.0,0.0,0.0,0.0,0.0,0.0,0.0,0.0,0.0,0.0,0.0,0.0,0.0,0.0,0.0,0.0,0.0,0.0,0.0,0.0,0.0,0.0,0.0,0.0,0.0,0.0,0.0,0.0,0.0,-1.2702,-1.4929,-1.6503,-1.6503,-1.7215,-1.7315,-1.6372,-1.4757,-1.3395,0.0,0.0,0.0,0.0,0.0,0.0,0.0,0.0,0.0,0.0,0.0,0.0,0.0,0.0,0.0,0.0,0.0,0.0,0.0,0.0,0.0,0.0,0.0,0.0,0.0,0.0,0.0,0.0,0.0,0.0,0.0,0.0,0.0,0.0,0.0,0.0,0.0,0.0,0.0,0.0,0.0,0.0,0.0,0.0,0.0,0.0,0.0,0.0,0.0,0.0,0.0,0.0,0.0,0.0,0.0,0.0,0.0,0.0,0.0,0.0,0.0,0.0,0.0,0.0,0.0,0.0,0.0,0.0,0.0,0.0,0.0,0.0,0.0,0.0,0.0,0.0,0.0,0.0,0.0,0.0,0.0,0.0,0.0,0.0,0.0,0.0,0.0,0.0,0.0,0.0,0.0,0.0,0.0,0.0,0.0,0.0,0.0,0.0,0.0,0.0,0.0,0.0,0.0,-1.2702,-1.4929,-1.6461,-1.6379,-1.6563,-1.6563,-1.6193,-1.4056,-1.2633,-1.2417,0.0,0.0,0.0,0.0,0.0,0.0,0.0,0.0,0.0,0.0,0.0,0.0,0.0,0.0,0.0,0.0,0.0,0.0,0.0,0.0,0.0,0.0,0.0,0.0,0.0,0.0,0.0,0.0,0.0,0.0,0.0,0.0,0.0,0.0,0.0,0.0,0.0,0.0,0.0,0.0,0.0,0.0,0.0,0.0,0.0,0.0,0.0,0.0,0.0,0.0,0.0,0.0,0.0,0.0,0.0,0.0,0.0,0.0,0.0,0.0,0.0,0.0,0.0,0.0,0.0,0.0,0.0,0.0,0.0,0.0,0.0,0.0,0.0,0.0,0.0,0.0,0.0,0.0,0.0,0.0,0.0,0.0,0.0,0.0,0.0,0.0,0.0,0.0,0.0,0.0,0.0,0.0,0.0,0.0,0.0,0.0,0.0,0.0,0.0,0.0,0.0,0.0,-1.2702,-1.4621,-1.5946,-1.587,-1.5863,-1.5792,-1.5629,-1.3605,-1.2328,-1.2323,0.0,0.0,0.0,0.0,0.0,0.0,0.0,0.0,0.0,0.0,0.0,0.0,0.0,0.0,0.0,0.0,0.0,0.0,0.0,0.0,0.0,0.0,0.0,0.0,0.0,0.0,0.0,0.0,0.0,0.0,0.0,0.0,0.0,0.0,0.0,0.0,0.0,0.0,0.0,0.0,0.0,0.0,0.0,0.0,0.0,0.0,0.0,0.0,0.0,0.0,0.0,0.0,0.0,0.0,0.0,0.0,0.0,0.0,0.0,0.0,0.0,0.0,0.0,0.0,0.0,0.0,0.0,0.0,0.0,0.0,0.0,0.0,0.0,0.0,0.0,0.0,0.0,0.0,0.0,0.0,0.0,0.0,0.0,0.0,0.0,0.0,0.0,0.0,0.0,0.0,0.0,0.0,0.0,0.0,0.0,0.0,0.0,0.0,0.0,0.0,0.0,0.0,-1.2702,-1.4157,-1.5209,-1.5183,-1.518,-1.5094,-1.4908,-1.3357,-1.2331,-1.2195,0.0,0.0,0.0,0.0,0.0,0.0,0.0,0.0,0.0,0.0,0.0,0.0,0.0,0.0,0.0,0.0,0.0,0.0,0.0,0.0,0.0,0.0,0.0,0.0,0.0,0.0,0.0,0.0,0.0,0.0,0.0,0.0,0.0,0.0,0.0,0.0,0.0,0.0,0.0,0.0,0.0,0.0,0.0,0.0,0.0,0.0,0.0,0.0,0.0,0.0,0.0,0.0,0.0,0.0,0.0,0.0,0.0,0.0,0.0,0.0,-1.3026,0.0,0.0,0.0,0.0,0.0,0.0,0.0,0.0,0.0,0.0,0.0,0.0,0.0,0.0,0.0,0.0,0.0,0.0,0.0,0.0,0.0,0.0,0.0,0.0,0.0,0.0,0.0,0.0,0.0,0.0,0.0,0.0,0.0,0.0,0.0,0.0,0.0,0.0,0.0,0.0,0.0,-1.2702,-1.4157,-1.5168,-1.5049,-1.5039,-1.4962,-1.4771,-1.324,-1.2263,-1.2137,0.0,0.0,0.0,0.0,0.0,0.0,0.0,0.0,0.0,0.0,0.0,0.0,0.0,0.0,0.0,0.0,0.0,0.0,0.0,0.0,0.0,0.0,0.0,0.0,0.0,0.0,0.0,0.0,0.0,0.0,0.0,0.0,0.0,0.0,0.0,0.0,0.0,0.0,0.0,0.0,0.0,0.0,0.0,0.0,0.0,0.0,0.0,0.0,0.0,0.0,0.0,0.0,0.0,0.0,0.0,0.0,0.0,0.0,0.0,0.0,0.0,-1.3981,0.0,0.0,0.0,0.0,0.0,0.0,0.0,0.0,0.0,0.0,0.0,0.0,0.0,0.0,0.0,0.0,0.0,0.0,0.0,0.0,0.0,0.0,0.0,0.0,0.0,0.0,0.0,0.0,0.0,0.0,0.0,0.0,0.0,0.0,0.0,0.0,0.0,0.0,0.0,0.0,-1.2702,-1.4157,-1.5177,-1.5098,-1.5095,-1.5018,-1.4813,-1.3658,-1.2695,-1.2128,-1.0567,0.0,0.0,0.0,0.0,0.0,0.0,0.0,0.0,0.0,0.0,0.0,0.0,0.0,0.0,0.0,0.0,0.0,0.0,0.0,0.0,0.0,0.0,0.0,0.0,0.0,0.0,0.0,0.0,0.0,0.0,0.0,0.0,0.0,0.0,0.0,0.0,0.0,0.0,0.0,0.0,0.0,0.0,0.0,0.0,0.0,0.0,0.0,0.0,0.0,0.0,0.0,0.0,0.0,-1.8693,-1.9201,-2.056,-1.9892,-1.999,-2.054,-1.7402,-1.6359,-1.6778,0.0,0.0,0.0,0.0,0.0,0.0,0.0,0.0,0.0,0.0,0.0,0.0,0.0,0.0,0.0,0.0,0.0,0.0,0.0,0.0,0.0,0.0,0.0,0.0,0.0,-1.6195,-1.6122,0.0,0.0,0.0,0.0,0.0,0.0,0.0,0.0,0.0,0.0,0.0,0.0,-1.2892,-1.4253,-1.5192,-1.5192,-1.5192,-1.5123,-1.4921,-1.4094,-1.3165,-1.2151,-1.1338,-1.0233,0.0,0.0,0.0,0.0,0.0,0.0,0.0,0.0,0.0,0.0,0.0,0.0,0.0,0.0,0.0,0.0,0.0,0.0,0.0,0.0,0.0,0.0,0.0,0.0,0.0,0.0,0.0,0.0,0.0,0.0,0.0,0.0,-1.2081,-1.2894,0.0,0.0,0.0,0.0,0.0,0.0,0.0,0.0,0.0,0.0,0.0,0.0,0.0,-1.8149,-1.9194,-1.9809,-2.0227,-2.0467,-2.1122,-2.155,-2.1789,-2.1834,-2.2028,-2.2251,-2.1591,0.0,-1.8401,-1.7219,0.0,0.0,0.0,0.0,0.0,0.0,0.0,0.0,0.0,0.0,0.0,0.0,0.0,0.0,0.0,0.0,0.0,0.0,0.0,0.0,0.0,0.0,-1.8304,-1.7542,-1.7468,-1.7449,0.0,-1.5385,-1.3822,-1.361,-1.3099,0.0,0.0,0.0,0.0,0.0,0.0,0.0,-1.3651,-1.4593,-1.5192,-1.5192,-1.5192,-1.5123,-1.4921,-1.4094,-1.3165,-1.2151,-1.1338,-1.0494,-0.9588,-0.8978,0.0,0.0,0.0,0.0,0.0,0.0,0.0,0.0,0.0,0.0,0.0,0.0,0.0,0.0,0.0,0.0,0.0,0.0,0.0,0.0,0.0,0.0,0.0,0.0,0.0,0.0,0.0,0.0,0.0,-1.2816,-1.4248,-1.4615,-1.505,-1.5141,0.0,0.0,0.0,0.0,0.0,0.0,0.0,0.0,0.0,-1.9155,-1.9509,-2.0451,-2.1994,-2.2184,-2.2619,-2.3283,-2.3481,-2.3604,-2.3687,-2.3699,-2.3757,-2.3834,-2.3613,-2.2698,-2.123,-2.0006,-1.8897,-1.7838,0.0,0.0,0.0,0.0,-1.5814,-1.6109,-1.7785,-1.8087,0.0,0.0,0.0,0.0,0.0,0.0,0.0,0.0,0.0,0.0,0.0,0.0,0.0,-1.9138,-1.9158,-1.9158,-1.9158,-1.7907,-1.6484,0.0,-1.5445,-1.4797,-1.2526,0.0,0.0,0.0,0.0,0.0,-1.3841,-1.4651,-1.5174,-1.5092,-1.5088,-1.5011,-1.4809,-1.4438,-1.3607,-1.2183,-1.1764,-1.1012,-0.9753,-0.9368,-0.896,0.0,0.0,0.0,0.0,0.0,0.0,0.0,0.0,0.0,0.0,0.0,0.0,0.0,0.0,0.0,0.0,0.0,0.0,0.0,0.0,0.0,0.0,0.0,0.0,0.0,0.0,0.0,0.0,-1.4609,-1.6151,-1.658,-1.7337,-1.752,0.0,0.0,0.0,0.0,0.0,0.0,-1.8676,-1.9693,-2.0589,-2.1343,-2.1555,-2.2394,-2.3897,-2.3802,-2.4212,-2.5084,-2.4936,-2.4904,-2.5004,-2.4955,-2.4935,-2.491,-2.4771,-2.4343,-2.3637,-2.2299,-2.1244,-2.0349,-1.9048,-1.8106,-1.7547,-1.8172,-1.8426,-1.8721,-2.073,-2.1002,-2.0399,-1.9732,0.0,-1.7992,-1.6702,0.0,0.0,0.0,0.0,-1.7895,-1.8705,-1.9446,-2.0146,-2.0792,-2.0946,-2.0889,-2.0654,-2.01,-1.9142,0.0,-1.7449,-1.6833,-1.4143,0.0,0.0,0.0,0.0,-1.4574,-1.4574,-1.5094,-1.537,-1.5037,-1.4988,-1.4898,-1.4727,-1.4707,-1.3969,-1.2215,-1.2095,-1.1384,-0.9772,-0.9702,-0.9423,-0.881,0.0,0.0,0.0,0.0,0.0,0.0,0.0,0.0,0.0,0.0,0.0,0.0,0.0,0.0,0.0,0.0,0.0,0.0,0.0,0.0,0.0,0.0,0.0,0.0,0.0,0.0,0.0,0.0,0.0,-1.8948,-1.9832,0.0,0.0,0.0,0.0,-1.9113,-1.985,-2.0338,-2.0382,-2.1924,-2.285,-2.2896,-2.3639,-2.4081,-2.4173,-2.4362,-2.4472,-2.4534,-2.4845,-2.4998,-2.501,-2.5198,-2.5269,-2.5269,-2.5259,-2.5127,-2.4816,-2.3465,-2.215,-2.0966,-2.0872,-2.0534,-2.02,-2.0867,-2.1187,-2.1402,-2.2224,-2.257,-2.2603,-2.2364,-2.1637,-2.0809,-2.0715,-2.0108,0.0,0.0,-2.0831,-2.1154,-2.2027,-2.2427,-2.2624,-2.2663,-2.2663,-2.2451,-2.162,-2.1408,-2.0889,0.0,-1.8241,-1.7391,-1.6468,0.0,-1.633,-1.6256,-1.6311,-1.6369,-1.6369,-1.6295,-1.5911,-1.509,-1.4942,-1.4845,-1.4717,-1.4707,-1.3969,-1.2215,-1.2095,-1.1384,-0.9772,-0.9702,-0.968,-0.9643,-0.885,0.0,0.0,0.0,0.0,0.0,0.0,0.0,0.0,0.0,0.0,0.0,0.0,0.0,0.0,0.0,0.0,0.0,0.0,0.0,0.0,0.0,0.0,0.0,0.0,0.0,0.0,0.0,0.0,-2.0839,-2.2079,0.0,-2.1041,-2.1382,-2.1675,-2.1675,-2.1942,-2.2327,-2.285,-2.3456,-2.4072,-2.4727,-2.5023,-2.5225,-2.5354,-2.5294,-2.5084,-2.4693,-2.4548,-2.4538,-2.467,-2.4628,-2.4596,-2.4596,-2.4596,-2.4609,-2.4636,-2.4161,-2.375,-2.3393,-2.2833,-2.2589,-2.2568,-2.2677,-2.2838,-2.3083,-2.3777,-2.3689,-2.3143,-2.2557,-2.213,-2.1859,-2.1982,-2.1802,-2.1648,-2.204,-2.2182,-2.2278,-2.2449,-2.2652,-2.2733,-2.2475,-2.2509,-2.2494,-2.2061,-2.1536,-2.0997,-2.0402,-1.9781,-1.8927,-1.7507,-1.7738,-1.7694,-1.6498,-1.6778,-1.7112,-1.7026,-1.6521,-1.6021,-1.5611,-1.509,-1.4717,-1.4571,-1.409,-1.3318,-1.2173,-1.1613,-1.0847,-0.9735,-0.9702,-0.9702,-0.9702,-0.8905,-0.8097,0.0,0.0,0.0,0.0,0.0,0.0,0.0,0.0,0.0,0.0,0.0,0.0,0.0,0.0,0.0,0.0,0.0,0.0,0.0,0.0,0.0,0.0,0.0,0.0,0.0,0.0,-2.2308,-2.2584,-2.4025,-2.4483,-2.3134,-2.3749,-2.4217,-2.4217,-2.4217,-2.4437,-2.4979,-2.5016,-2.5333,-2.5977,-2.6005,-2.6061,-2.6195,-2.6143,-2.5777,-2.5098,-2.4896,-2.4721,-2.4591,-2.4461,-2.441,-2.441,-2.441,-2.4435,-2.4503,-2.4503,-2.4545,-2.4559,-2.4162,-2.4094,-2.4186,-2.4068,-2.4062,-2.4202,-2.4707,-2.4485,-2.3923,-2.3386,-2.3177,-2.3164,-2.3303,-2.3333,-2.3351,-2.346,-2.3518,-2.3514,-2.3375,-2.3499,-2.3573,-2.3313,-2.3342,-2.3335,-2.2941,-2.2368,-2.1864,-2.1556,-2.0762,-1.9753,-1.8606,-1.8897,-1.886,-1.7659,-1.7942,-1.8165,-1.7845,-1.7024,-1.6322,-1.5934,-1.5133,-1.4611,-1.4499,-1.3752,-1.2968,-1.215,-1.1338,-1.0549,-0.9735,-0.9702,-0.9702,-0.9702,-0.8905,-0.8244,-0.7702,0.0,0.0,0.0,0.0,0.0,0.0,0.0,0.0,0.0,0.0,0.0,0.0,0.0,0.0,0.0,0.0,0.0,0.0,0.0,0.0,0.0,0.0,0.0,-2.0694,-2.2034,-2.3391,-2.4171,-2.5676,-2.6319,-2.5521,-2.6172,-2.662,-2.6602,-2.6602,-2.6602,-2.6602,-2.6602,-2.6602,-2.6649,-2.6649,-2.6649,-2.6649,-2.6828,-2.6516,-2.5726,-2.5922,-2.5601,-2.482,-2.482,-2.4801,-2.4782,-2.4782,-2.467,-2.4503,-2.4503,-2.4393,-2.4266,-2.4771,-2.4992,-2.4979,-2.5004,-2.4923,-2.4814,-2.4949,-2.4979,-2.4979,-2.5004,-2.4917,-2.4811,-2.4818,-2.4818,-2.4818,-2.4818,-2.491,-2.501,-2.501,-2.5152,-2.5303,-2.5298,-2.5274,-2.5067,-2.4288,-2.3943,-2.3539,-2.2696,-2.1087,-1.9854,-1.9847,-1.9828,-1.9841,-1.9978,-1.988,0.0,-1.8893,-1.7896,-1.6906,-1.6029,-1.5095,-1.453,-1.4493,-1.3752,-1.2968,-1.215,-1.1338,-1.0549,-0.9735,-0.9702,-0.9702,-0.9702,-0.8905,-0.8494,-0.8494,0.0,0.0,0.0,0.0,0.0,0.0,0.0,0.0,0.0,0.0,0.0,0.0,0.0,0.0,0.0,0.0,0.0,0.0,0.0,0.0,0.0,0.0,-2.3254,-2.2437,-2.4217,-2.5684,-2.5915,-2.6851,-2.7145,-2.6355,-2.6998,-2.7236,-2.6638,-2.6602,-2.6602,-2.6602,-2.6602,-2.6869,-2.7457,-2.7475,-2.7475,-2.7475,-2.7532,-2.7159,-2.6338,-2.6408,-2.6013,-2.5236,-2.5236,-2.4921,-2.4366,-2.4366,-2.4428,-2.4503,-2.4503,-2.4543,-2.4631,-2.4636,-2.4734,-2.4876,-2.4962,-2.498,-2.4949,-2.4889,-2.4855,-2.4864,-2.4968,-2.498,-2.4962,-2.5126,-2.5154,-2.5154,-2.5154,-2.5187,-2.5173,-2.5034,-2.5152,-2.5238,-2.5006,-2.4948,-2.4872,-2.4664,-2.3877,-2.3194,-2.3098,-2.2092,-2.1128,-2.0734,-2.018,-1.9786,-1.9713,-1.9676,0.0,-1.922,-1.8402,-1.7547,-1.6717,-1.5876,-1.5123,-1.4548,-1.3752,-1.2968,-1.215,-1.1338,-1.0549,-0.9735,-0.9702,-0.9702,-0.9702,-0.8905,-0.8494,0.0,0.0,0.0,0.0,0.0,0.0,0.0,0.0,0.0,0.0,0.0,0.0,0.0,0.0,0.0,0.0,0.0,0.0,0.0,0.0,0.0,0.0,-2.4208,-2.5529,-2.5089,-2.6227,-2.7108,-2.7108,-2.7805,-2.8117,-2.7647,-2.8033,-2.8117,-2.7647,-2.7611,-2.7611,-2.7611,-2.7611,-2.7813,-2.8282,-2.8301,-2.8301,-2.8301,-2.8301,-2.7897,-2.7108,-2.7108,-2.6686,-2.5888,-2.554,-2.5136,0.0,-2.4337,-2.4275,-2.4375,-2.4375,-2.4435,0.0,0.0,0.0,0.0,0.0,-2.4949,-2.4992,-2.4917,-2.4877,-2.4897,-2.4974,-2.5004,-2.501,-2.5066,-2.5138,-2.5168,-2.5168,-2.5168,-2.5163,-2.5122,-2.5214,-2.5233,-2.4943,-2.4877,-2.4876,-2.4818,-2.4188,-2.3654,-2.3771,-2.2989,0.0,-2.1451,-2.063,-1.997,-1.9652,-1.9527,-1.9471,-1.9442,-1.8643,-1.7924,-1.744,-1.6677,-1.5869,-1.5068,-1.4261,0.0,0.0,0.0,-1.0549,-0.9735,-0.9702,0.0,0.0,0.0,0.0,0.0,0.0,0.0,0.0,-0.8326,-0.8165,0.0,0.0,0.0,0.0,0.0,0.0,0.0,0.0,0.0,0.0,0.0,0.0,0.0,0.0,0.0,0.0,-2.5952,-2.7934,-2.7934,-2.8007,-2.8044,-2.7952,-2.8565,-2.9005,-2.9005,-2.9078,-2.9133,-2.9133,-2.9225,-2.9262,-2.9262,0.0,0.0,0.0,0.0,-2.9005,-2.9005,-2.9005,-2.8638,-2.7934,-2.7934,-2.7512,-2.6722,-2.5999,-2.5613,-2.5485,-2.4677,-2.4337,-2.4318,-2.4245,-2.419,-2.4237,-2.4615,-2.4782,-2.4804,-2.4804,-2.4889,-2.498,-2.498,0.0,0.0,-2.498,-2.4992,-2.498,-2.4862,-2.491,-2.5004,-2.5004,-2.4992,-2.501,-2.5192,-2.5243,-2.5192,-2.501,-2.4968,-2.4917,-2.4814,-2.4623,-2.4469,-2.4495,-2.3757,-2.2887,-2.2069,-2.1143,-2.0292,-1.9664,-1.9409,-1.9357,-1.9541,-1.8792,-1.8207,-1.8108,0.0,0.0,-1.579,-1.505,-1.4242,-1.3353,-1.1875,-1.0714,-0.9992,-0.9882,-0.9827,-0.9827,-0.9753,-0.9702,-0.9698,-0.9589,-0.9575,-0.9634,-0.8938,-0.8664,0.0,0.0,0.0,0.0,0.0,0.0,0.0,0.0,0.0,0.0,0.0,0.0,0.0,0.0,0.0,-2.5805,-2.7519,-2.8767,-2.8767,-2.9329,-2.9512,-2.884,-2.8913,-2.9005,-2.9005,-2.9592,-2.9971,-2.9971,-3.0577,-3.0944,-3.0944,-3.032,0.0,-2.9971,-2.9335,-2.9005,-2.9005,-2.9005,-2.8932,-2.8767,0.0,0.0,-2.7548,-2.7412,-2.6979,-2.6319,-2.5521,-2.5172,-2.5117,-2.4475,-2.419,-2.4218,-2.4461,-2.4654,-2.4804,-2.4804,-2.4825,-2.4835,-2.4835,-2.4835,-2.4835,-2.4835,-2.4917,-2.5004,-2.4968,-2.498,0.0,-2.5004,-2.493,-2.4842,-2.4895,-2.4902,-2.4895,-2.4842,-2.4712,-2.4628,-2.4775,-2.452,-2.4312,-2.4469,-2.4219,-2.3712,-2.2923,-2.1502,-2.0252,-1.9471,-1.932,-1.9312,-1.935,-1.9191,-1.8812,-1.817,-1.7961,-1.7289,-1.5827,-1.557,-1.4854,-1.339,-1.2393,-1.1801,-1.1641,-1.1008,-1.0677,-1.0677,-1.0025,-0.9702,-0.9702,-0.9679,-0.9997,-1.0606,-0.9726,-0.9656,0.0,0.0,0.0,0.0,0.0,0.0,0.0,0.0,0.0,0.0,0.0,-2.3933,0.0,0.0,-2.7773,-2.8497,-2.9613,-3.0409,-3.0409,-3.0629,-3.0356,-2.9133,-2.9354,-2.9592,-2.9592,-3.0338,-3.0797,-3.0797,-3.1176,-3.1397,-3.1397,-3.1029,-3.0613,-3.021,-2.9812,-2.9409,-2.9005,-2.9005,-2.9005,-2.9005,-2.9005,-2.8785,-2.8393,-2.797,-2.7585,-2.7163,-2.6355,-2.5988,-2.5933,-2.5136,-2.4566,-2.4209,-2.4312,-2.4469,-2.4662,-2.476,-2.4804,-2.4811,-2.4889,-2.4862,-2.4818,-2.4871,-2.4897,-2.4884,-2.4788,-2.474,-2.474,-2.474,-2.4704,-2.467,-2.4775,-2.4804,-2.4775,-2.467,-2.4567,-2.4503,-2.4503,-2.433,-2.4228,-2.4339,-2.4266,-2.3933,-2.3134,-2.2309,-2.1336,-2.0097,-1.9572,-1.9297,-1.9297,-1.9297,-1.915,-1.8739,-1.8702,-1.8041,-1.6438,-1.5557,-1.4573,-1.3372,-1.2913,-1.2522,-1.2113,-1.1705,-1.1503,-1.1503,-1.1108,-1.0853,-1.0753,-1.0853,-1.1023,-1.1244,-1.0935,-1.1027,0.0,0.0,0.0,0.0,0.0,0.0,0.0,0.0,-2.31,-2.318,-2.5043,-2.6808,-2.7279,-2.8932,-3.0339,-3.0833,-3.1536,-3.1979,-3.1811,-3.1695,-3.1035,-2.9427,-2.9953,-3.043,-3.043,-3.1164,-3.1623,-3.1623,-3.177,-3.1874,-3.1874,-3.1715,-3.1256,-3.0467,-3.0283,-2.9812,-2.9005,-2.9005,-2.9005,-2.9005,-2.9005,-2.9005,-2.8987,-2.8338,-2.8026,-2.7989,-2.7181,-2.6741,-2.6557,-2.5907,-2.5154,-2.4428,-2.4428,-2.445,-2.4461,-2.467,-2.4746,-2.4749,-2.4917,-2.4891,-2.4799,-2.4872,-2.4857,-2.476,-2.4551,-2.4503,-2.4503,-2.4503,-2.4469,-2.4478,-2.4639,-2.4685,-2.4639,-2.4478,-2.4435,-2.4401,-2.4237,-2.419,-2.419,-2.419,-2.419,-2.3988,-2.3336,-2.3098,-2.2437,-2.0741,-1.995,-1.9481,-1.9315,-1.9297,-1.9297,-1.9297,-1.9297,-1.8647,-1.7037,-1.5423,-1.4218,-1.3568,-1.3537,-1.3238,-1.259,-1.243,-1.2338,-1.2338,-1.2187,-1.2003,-1.1799,-1.2003,-1.2025,-1.1884,-1.2154,-1.228,-2.144,-2.0725,-2.061,-2.2094,-2.2482,-2.3021,0.0,0.0,-2.6027,-2.6613,-2.8132,-2.9379,-2.9456,-3.0806,-3.1939,-3.2015,-3.2493,-3.2627,-3.1904,-3.2194,-3.1867,-3.0265,-3.0779,-3.1268,-3.1268,-3.199,-3.2472,-3.2472,-3.3128,-3.3532,-3.3532,-3.2852,-3.21,-3.1292,-3.0577,-2.9812,-2.9005,-2.9005,-2.9005,-2.9005,-2.9005,-2.9005,-2.9005,-2.8913,-2.8877,-2.8822,-2.8026,-2.7255,-2.6583,-2.6502,-2.5988,-2.5264,-2.5264,-2.4843,-2.4266,-2.4452,-2.4518,-2.4551,-2.4768,-2.4818,-2.4775,-2.4615,-2.467,-2.476,-2.4551,-2.4503,-2.4503,-2.4503,-2.4366,-2.4247,-2.4257,-2.4275,-2.4257,-2.4247,-2.4237,-2.4228,-2.4199,-2.419,-2.419,-2.419,-2.419,-2.4171,-2.408,-2.3465,-2.2437,-2.0741,-2.0419,-2.0107,-1.9389,-1.9297,-1.9297,-1.9297,-1.9297,-1.8647,-1.7037,-1.5423,-1.4457,-1.4365,-1.4365,-1.4328,-1.4237,-1.355,-1.317,-1.317,-1.2467,-1.2003,-1.1799,-1.2003,-1.2363,-1.2836,-1.289,-1.293,-2.3673,-2.3846,0.0,0.0,-2.539,-2.5994,-2.6861,-2.7427,-2.7792,-2.7963,-2.8936,-2.9882,-3.0354,-3.1535,-3.2577,0.0,-3.3619,-3.3869,-3.3542,-3.2986,-3.2344,-3.1678,-3.1476,-3.1397,-3.1397,-3.2137,-3.2784,-3.3256,-3.3605,-3.3807,-3.3807,-3.3476,-3.2724,-3.1452,-3.1072,-3.0283,-2.9005,-2.9005,-2.9005,-2.9005,-2.9005,-2.9005,-2.9005,-2.9005,-2.9005,-2.8987,-2.8638,-2.8044,-2.7291,-2.7291,-2.6814,-2.6043,-2.5576,-2.5191,-2.4852,-2.446,-2.433,-2.4348,-2.4561,-2.4623,-2.4631,-2.4662,-2.4647,-2.4607,-2.4528,-2.4428,-2.433,-2.433,-2.4257,-2.419,-2.419,-2.419,-2.419,-2.419,-2.419,-2.419,-2.419,-2.419,-2.419,-2.419,-2.419,-2.419,-2.419,-2.3914,-2.3309,-2.2125,-2.1116,-2.0217,-1.9407,-1.9297,-1.9297,-1.9297,-1.8875,-1.8151,-1.7,-1.5851,-1.4995,-1.453,-1.4493,-1.4493,-1.4493,-1.4058,-1.3876,-1.4004,-1.3542,-1.3227,-1.3018,-1.3209,-1.3395,-1.3518,-1.3518,-1.3608,-2.5423,0.0,0.0,-2.7178,-2.7948,-2.856,-2.8415,-2.9015,-2.9483,-2.9095,-2.9676,-3.0419,-3.1018,-3.1989,-3.2932,-3.3683,-3.4102,-3.44,-3.4534,-3.3437,-3.2509,-3.2302,-3.1549,-3.1072,-3.1072,-3.1806,-3.2596,-3.3421,-3.3476,-3.3568,-3.3788,-3.3807,-3.3164,-3.177,-3.1525,-3.0723,-2.9335,-2.9115,-2.9005,-2.9005,-2.9005,-2.9005,-2.9005,-2.9005,-2.9005,-2.9005,-2.9005,-2.8675,-2.8136,-2.8136,-2.7658,-2.6869,-2.6292,-2.5925,-2.5631,-2.4842,-2.4392,-2.4218,-2.4366,-2.4428,-2.4435,-2.4583,-2.4545,-2.4428,-2.4428,-2.4321,-2.419,-2.419,-2.419,-2.419,-2.419,-2.419,-2.419,-2.419,-2.419,-2.419,-2.419,-2.419,-2.419,-2.419,-2.419,-2.419,-2.419,-2.419,-2.3933,-2.3116,-2.1979,-2.0804,-1.9767,-1.9444,-1.9297,-1.9297,-1.8574,-1.7777,-1.6963,-1.6163,-1.5362,-1.4548,-1.4493,-1.4493,-1.4493,-1.4362,-1.4338,-1.4429,-1.4338,-1.4136,-1.3827,-1.4065,-1.4103,-1.3906,-1.3831,-1.3955,0.0,0.0,-2.6986,-2.8626,-2.9679,-3.0327,-3.0321,-3.0994,-3.1359,-3.0527,-3.1026,-3.1642,-3.1661,-3.234,-3.3094,-3.3707,-3.3591,-3.3629,-3.4134,-3.3272,-3.2307,-3.1525,-3.0723,-3.0246,0.0,-3.0962,-3.177,-3.2583,-3.2638,-3.2968,-3.3752,-3.3807,-3.3421,-3.2583,-3.1806,-3.0999,-3.0173,-2.939,-2.9005,-2.9005,-2.9005,-2.9005,-2.9005,-2.9005,-2.9005,-2.9005,-2.9005,-2.8987,-2.8968,-2.8968,-2.8491,-2.775,-2.7732,-2.7255,-2.6465,-2.5668,-2.4879,-2.419,-2.4199,-2.4199,-2.4209,-2.4209,-2.4209,-2.4199,-2.4199,-2.4199,-2.419,-2.419,-2.419,-2.419,-2.419,-2.419,-2.419,-2.419,-2.419,-2.419,-2.419,-2.419,-2.419,-2.419,-2.419,-2.419,-2.419,-2.419,-2.3933,-2.3116,-2.2951,-2.2327,-2.0676,-1.9785,-1.9297,-1.9297,-1.8574,-1.7777,-1.6963,-1.6163,-1.5362,-1.4548,-1.4493,-1.4493,-1.4493,-1.4488,-1.4399,-1.4207,-1.4393,-1.4195,-1.36,-1.4004,-1.4103,-1.3906,-1.3691,-1.381,0.0,0.0,-2.925,-2.9827,-3.1025,-3.1929,-3.1385,-3.1487,-3.1295,-2.9833,-2.9775,-2.9813,-2.9275,-3.0165,-3.1231,-3.2008,-3.2694,-3.337,-3.41,-3.329,-3.2289,-3.1507,-3.0687,0.0,0.0,0.0,0.0,-3.2491,-3.2601,-3.2949,-3.3752,-3.3807,-3.344,-3.2619,-3.1825,-3.0999,-3.021,-2.939,-2.9005,-2.9005,-2.9005,-2.9005,-2.9005,-2.9005,-2.9005,-2.9005,-2.9005,-2.9005,-2.9005,-2.9005,-2.884,-2.8528,-2.8007,-2.731,-2.6502,-2.5705,-2.4897,-2.419,-2.419,-2.419,-2.419,-2.419,-2.419,-2.419,-2.419,-2.419,-2.419,-2.419,-2.419,-2.419,-2.419,-2.419,-2.419,-2.419,-2.419,-2.419,-2.419,-2.419,-2.419,-2.419,-2.419,-2.419,-2.419,-2.419,-2.3933,-2.3116,-2.2052,-2.1135,-2.0558,-1.9803,-1.9297,-1.9297,-1.9058,-1.8574,-1.7759,-1.697,-1.6145,-1.5343,-1.4805,-1.4493,-1.4493,-1.4233,-1.4136,-1.4195,-1.4143,-1.4004,-1.3795,-1.3941,-1.3969,-1.3899,-1.3605,-1.3597,-2.7788,-2.9385,-3.1,-3.1621,-3.2333,-3.2756,-3.2256,-3.1679,-3.0833,-2.9396,-2.8876,-2.8511,-2.8011,-2.8587,-2.9625,-3.1051,-3.1855,-3.278,-3.4173,-3.3424,-3.2551,-3.2028,-3.1182,0.0,0.0,0.0,0.0,-3.2491,-3.2601,-3.2949,-3.3752,-3.3807,-3.3568,-3.3041,-3.2247,-3.1439,-3.0632,-2.9831,-2.928,-2.9005,-2.9005,-2.9005,-2.9005,-2.9005,-2.9005,-2.9005,-2.9005,-2.9005,-2.9005,-2.9005,-2.9005,-2.895,-2.8429,-2.7915,-2.7317,-2.6227,-2.5493,-2.4979,-2.4392,-2.419,-2.419,-2.419,-2.419,-2.419,-2.419,-2.419,-2.419,-2.419,-2.419,-2.419,-2.419,-2.419,-2.419,-2.419,-2.419,-2.419,-2.419,-2.419,-2.419,-2.419,-2.419,-2.419,-2.419,-2.419,-2.4025,-2.3511,-2.2015,-2.0841,-2.0548,-1.9803,-1.9297,-1.9297,-1.9297,-1.8967,-1.817,-1.7631,-1.6936,-1.6039,-1.5319,-1.4885,-1.4794,-1.4286,-1.4031,-1.4085,-1.4031,-1.3906,-1.3718,-1.3842,-1.3853,-1.3798,-1.3519,-1.347,-2.9962,-3.1096,-3.2218,-3.3801,-3.3583,-3.2949,-3.291,-3.1596,-3.0135,-2.9223,-2.8396,-2.7818,0.0,0.0,-2.8348,-3.0693,-3.1052,-3.1883,-3.4278,-3.3708,-3.3045,0.0,0.0,0.0,0.0,0.0,0.0,-3.2601,0.0,-3.2949,-3.3752,-3.3807,-3.3807,-3.3807,-3.3023,-3.2228,-3.147,-3.0613,-2.9824,-2.906,-2.9023,-2.9005,-2.9005,-2.9005,-2.9005,-2.9005,-2.9005,-2.9005,-2.9005,-2.9005,-2.9005,-2.9005,-2.9005,-2.8968,-2.8748,-2.7226,-2.6649,-2.6392,-2.4814,-2.4226,-2.419,-2.419,-2.419,-2.419,-2.419,-2.419,-2.419,-2.419,-2.419,-2.419,-2.419,-2.419,-2.419,-2.419,-2.419,-2.419,-2.419,-2.419,-2.419,-2.419,-2.419,-2.419,-2.419,-2.419,-2.419,-2.419,-2.2877,-2.1555,-2.0676,-1.9822,-1.9297,-1.9282,-1.9289,-1.8996,-1.8203,-1.8126,-1.7654,-1.6635,-1.6055,-1.5626,-1.5379,-1.4623,-1.4143,-1.3966,-1.4143,-1.3952,-1.3413,-1.3768,-1.3851,-1.3653,-1.3522,-1.3547,-3.0288,-3.1948,-3.3667,-3.409,-3.4032,-3.3705,-3.3045,-3.1596,-2.9981,-2.8506,-2.7525,-2.6544,0.0,0.0,0.0,-2.808,-3.0096,0.0,-3.3261,-3.3687,0.0,0.0,0.0,-3.2302,-3.2302,-3.2302,0.0,0.0,-3.2931,-3.2949,-3.3752,-3.3807,-3.3807,-3.3807,-3.3023,-3.2491,-3.2302,-3.0907,-3.0099,-2.9886,-2.9299,-2.9005,-2.9005,-2.9005,-2.9005,-2.9005,-2.9005,-2.9005,-2.9005,-2.9005,-2.9005,-2.9005,-2.9005,-2.862,-2.8062,-2.764,-2.7108,-2.6465,-2.5448,-2.4695,-2.419,-2.419,-2.419,-2.419,-2.419,-2.419,-2.419,-2.419,-2.419,-2.419,-2.419,-2.419,-2.419,-2.419,-2.419,-2.419,-2.419,-2.419,-2.419,-2.419,-2.419,-2.419,-2.419,-2.419,-2.419,-2.419,-2.3345,-2.2409,-2.1565,-2.0197,-1.9235,-1.9084,-1.9214,-1.9154,-1.8804,-1.8366,-1.7892,-1.7415,-1.6699,-1.6258,-1.6199,-1.52,-1.4701,-1.48,-1.4707,-1.4286,-1.3548,-1.4249,-1.4534,-1.4485,-1.4306,-1.4523,-3.1872,-3.3391,-3.468,-3.4302,-3.3917,-3.3314,-3.2083,-3.0506,-2.8813,-2.7121,-2.6365,0.0,0.0,0.0,0.0,0.0,0.0,0.0,-3.3117,-3.3974,-3.4199,0.0,-3.3296,0.0,-3.3115,-3.3115,-3.3311,0.0,-3.3385,-3.333,-3.377,-3.3807,-3.3807,-3.3807,-3.3366,-3.2949,-3.2601,-3.1347,-3.0723,-3.0723,-2.9916,-2.9537,-2.95,-2.9152,-2.9005,-2.9005,0.0,-2.9005,-2.9005,-2.9005,-2.9005,-2.9005,-2.9005,-2.8712,-2.8282,-2.7934,-2.7512,-2.6961,-2.5797,-2.5099,-2.4677,-2.43,-2.419,-2.419,-2.419,-2.419,-2.419,-2.419,-2.419,-2.419,-2.419,-2.419,-2.419,-2.419,-2.419,-2.419,-2.419,-2.419,-2.419,-2.419,-2.419,-2.419,-2.419,-2.419,-2.419,-2.419,-2.3529,-2.2721,-2.1904,-2.0656,-1.9606,-1.9054,-1.9092,-1.9117,-1.9001,-1.8685,-1.8371,-1.81,-1.7415,-1.6984,-1.6897,-1.5871,-1.5235,-1.5092,-1.4902,-1.4373,-1.3509,-1.4374,-1.4745,-1.4666,-1.4881,-1.5028,-3.3763,-3.4834,-3.5288,-3.441,-3.3449,-3.2333,-3.0769,-2.8929,-2.7121,-2.5615,0.0,-2.4481,-2.2928,0.0,-2.5543,-2.7245,0.0,-3.092,-3.3261,-3.4131,-3.4459,-3.4235,-3.3961,-3.3807,-3.3807,-3.3807,-3.3807,-3.3807,-3.3807,-3.3807,-3.3807,-3.3807,-3.3807,-3.3807,-3.3807,-3.3458,-3.2766,-3.1953,-3.1549,-3.1562,-3.0632,-3.021,-3.0173,-2.9372,-2.9005,-2.9005,0.0,0.0,-2.9005,-2.9005,-2.9005,-2.9005,-2.9005,-2.9005,-2.8913,-2.8227,-2.7952,-2.7732,-2.6127,-2.5558,-2.5411,-2.4511,-2.419,-2.419,-2.419,-2.419,-2.419,-2.419,-2.419,-2.419,-2.419,-2.419,-2.419,-2.419,-2.419,-2.419,-2.419,-2.419,-2.419,-2.419,-2.419,-2.419,-2.419,-2.419,-2.419,-2.419,-2.3621,-2.2868,-2.2069,-2.1081,-2.0076,-1.9065,-1.8949,-1.8931,-1.8905,-1.8931,-1.8825,-1.8556,-1.8057,-1.77,-1.7505,-1.6539,-1.5792,-1.5365,-1.5149,-1.4598,-1.3701,-1.4607,-1.4957,-1.4808,-1.5443,-1.546,-3.3936,-3.4834,-3.5288,-3.441,-3.3045,-3.1641,-3.0635,-2.7981,0.0,0.0,0.0,-2.2928,-2.1908,-2.352,0.0,-2.5456,0.0,0.0,0.0,0.0,-3.3769,0.0,0.0,0.0,0.0,0.0,0.0,0.0,0.0,-3.3807,-3.3807,-3.3807,-3.3807,-3.3807,-3.3807,-3.3733,-3.3587,-3.2797,-3.2381,-3.2362,-3.0907,-3.021,-3.0173,-2.9372,-2.9005,-2.9005,-2.9005,0.0,-2.9005,-2.9005,-2.9005,-2.9005,-2.9005,-2.9005,-2.8987,-2.884,-2.8785,-2.8565,-2.6961,-2.6392,-2.6153,-2.4685,-2.419,-2.419,-2.419,-2.419,-2.419,-2.419,-2.419,-2.419,-2.419,-2.419,-2.419,-2.419,-2.419,-2.419,-2.419,-2.419,-2.419,-2.419,-2.419,-2.419,-2.419,-2.419,-2.419,-2.419,-2.408,-2.3694,-2.2905,-2.1316,-1.9849,-1.8777,-1.8678,-1.8576,-1.8361,-1.8537,-1.8547,-1.829,-1.8171,-1.8101,-1.8051,-1.7099,-1.662,-1.6742,-1.651,-1.5983,-1.5233,-1.5983,-1.6357,-1.6316,-1.6451,-1.6773,-3.3955,-3.4834,-3.5173,-3.3853,-3.2602,-3.1237,-2.9506,0.0,0.0,0.0,0.0,-2.2412,-2.1119,0.0,0.0,0.0,0.0,0.0,0.0,0.0,0.0,0.0,0.0,0.0,0.0,0.0,0.0,0.0,0.0,-3.3807,-3.3807,-3.3807,-3.3807,-3.3807,-3.3807,-3.3807,-3.3807,-3.3421,-3.322,-3.322,-3.2027,-3.1445,-3.1421,-3.0179,-2.961,-2.9592,-2.9189,0.0,-2.9005,-2.9005,-2.9005,-2.9005,-2.9005,-2.9005,-2.9005,-2.9005,-2.9005,-2.8767,-2.7152,-2.6602,-2.6327,-2.4722,-2.419,-2.419,-2.419,-2.419,-2.419,-2.419,-2.419,-2.419,-2.419,-2.419,-2.419,-2.419,-2.419,-2.419,-2.419,-2.419,-2.419,-2.419,-2.4064,-2.3937,-2.3937,-2.3795,-2.3682,-2.3682,-2.3682,-2.3382,-2.2587,-2.1569,-2.0488,-1.9349,-1.9077,-1.8749,-1.8243,-1.832,-1.8341,-1.8208,-1.8198,-1.8198,-1.8198,-1.7591,-1.7215,-1.7103,-1.6843,-1.6333,-1.5595,-1.6333,-1.6699,-1.6716,-1.7094,-1.7253,-3.3917,-3.4834,-3.5077,-3.3333,-3.216,-3.0794,-2.8429,-2.6274,0.0,0.0,-2.2509,-2.185,-2.0538,0.0,0.0,0.0,0.0,0.0,0.0,0.0,0.0,0.0,0.0,0.0,0.0,0.0,0.0,0.0,0.0,0.0,-3.3807,-3.3807,-3.3807,-3.3807,-3.3807,-3.3807,-3.3807,-3.3807,-3.3715,-3.3532,-3.2742,-3.2252,-3.2032,-3.0601,-2.9953,-2.9916,-2.9262,0.0,0.0,-2.9005,-2.9005,-2.9005,-2.9005,-2.9005,-2.9005,-2.9005,-2.9005,-2.8785,-2.7365,-2.6741,-2.6374,-2.4924,-2.4337,-2.419,-2.419,-2.419,-2.419,-2.419,-2.419,-2.419,-2.419,-2.419,-2.419,-2.419,-2.419,-2.419,-2.419,-2.419,-2.419,-2.419,-2.3927,-2.3703,-2.3703,-2.3414,-2.32,-2.32,-2.32,-2.2976,-2.234,-2.2006,-2.1399,-2.029,-1.9595,-1.8913,-1.8172,-1.8103,-1.8103,-1.8103,-1.8103,-1.8103,-1.8103,-1.7905,-1.7633,-1.7265,-1.7041,-1.6654,-1.6069,-1.6654,-1.6942,-1.6942,-1.754,-1.749,-3.3763,-3.4834,-3.5077,-3.3333,-3.1692,-3.0058,-2.8294,0.0,0.0,-2.2836,-2.1581,-2.0481,-2.0327,-2.11,0.0,0.0,0.0,0.0,0.0,0.0,0.0,0.0,0.0,0.0,0.0,0.0,0.0,0.0,0.0,0.0,-3.3807,-3.3807,-3.3807,-3.3807,-3.3807,-3.3807,-3.3807,-3.3807,-3.344,-3.2693,-3.188,-3.1127,-3.0393,-2.95,-2.9115,-2.9115,-2.9023,0.0,0.0,-2.9005,-2.9005,-2.9005,-2.9005,-2.9005,-2.9005,-2.9005,-2.9005,-2.8877,-2.7989,-2.7218,-2.6465,-2.5576,-2.4805,-2.419,-2.419,-2.419,-2.419,-2.419,-2.419,-2.419,-2.419,-2.419,-2.419,-2.419,-2.419,-2.419,-2.419,-2.419,-2.419,-2.419,-2.3927,-2.3703,-2.3703,-2.3414,-2.32,-2.32,-2.32,-2.3171,-2.31,-2.2805,-2.2304,-2.1526,-1.9944,-1.8636,-1.7895,-1.7845,-1.7845,-1.7845,-1.7845,-1.7845,-1.7845,-1.7811,-1.7777,-1.7743,-1.7721,-1.7665,-1.7597,-1.7665,-1.7698,-1.7698,-1.7766,-1.7766,-3.1737,-3.291,-3.366,-3.2468,-3.0891,-2.9313,-2.8165,0.0,-2.2797,-2.2797,-2.1466,-2.0308,-2.0308,-2.0888,-2.1732,0.0,-2.36,-2.4785,0.0,0.0,0.0,0.0,0.0,0.0,0.0,0.0,0.0,0.0,0.0,0.0,-3.3807,-3.3807,-3.3807,-3.3807,-3.3807,-3.3807,-3.3807,-3.3807,-3.3403,-3.2601,-3.2284,-3.1696,-3.0889,-3.0099,-2.9721,-2.9702,-2.9207,0.0,0.0,-2.9005,-2.9005,-2.9005,-2.9005,-2.9005,-2.9005,-2.9005,-2.9005,-2.8877,-2.8081,-2.7273,-2.6465,-2.5668,-2.486,-2.419,-2.419,-2.419,-2.419,-2.419,-2.419,-2.419,-2.419,-2.419,-2.419,-2.419,-2.419,-2.419,-2.419,-2.419,-2.4151,-2.3937,-2.3639,-2.3335,-2.3129,-2.2857,-2.266,-2.266,-2.266,-2.266,-2.266,-2.2544,-2.2173,-2.1434,-2.0284,-1.9253,-1.8521,-1.8065,-1.78,-1.78,-1.78,-1.78,-1.78,-1.78,-1.78,-1.78,-1.78,-1.78,-1.78,-1.78,-1.78,-1.78,-1.78,-1.78,-3.0269,-3.1442,-3.2352,-3.1525,-3.0198,-2.8742,0.0,0.0,-2.274,-2.247,-2.1293,-2.0281,-2.021,-2.0599,-2.1132,-2.1771,-2.2547,-2.3532,-2.4949,0.0,0.0,0.0,0.0,0.0,0.0,0.0,0.0,0.0,0.0,0.0,0.0,-3.3807,-3.3807,-3.3807,-3.3807,-3.3807,-3.3807,-3.3807,-3.3275,-3.2247,-3.2247,-3.1696,-3.0668,-3.0099,-2.9861,-2.9812,0.0,0.0,0.0,-2.9005,-2.9005,-2.9005,-2.9005,-2.9005,-2.9005,-2.9005,-2.9005,-2.8932,-2.8356,-2.764,-2.6814,-2.6017,-2.5209,-2.4548,-2.4548,-2.4392,-2.419,-2.419,-2.419,-2.419,-2.419,-2.419,-2.419,-2.419,-2.419,-2.417,-2.4074,-2.4046,-2.3947,-2.3628,-2.3288,-2.2984,-2.2746,-2.249,-2.2296,-2.2296,-2.2296,-2.2296,-2.2296,-2.2296,-2.2107,-2.158,-2.0822,-1.9947,-1.8978,-1.8217,-1.78,-1.78,-1.78,-1.78,-1.78,-1.78,-1.78,-1.78,-1.78,-1.78,-1.78,-1.78,-1.78,-1.78,-1.78,-1.78,-2.9942,-3.1038,-3.1506,-3.0635,-2.9756,-2.8434,0.0,-2.4024,-2.2566,-2.1696,-2.0865,-2.0241,-2.0031,-2.0012,-2.0254,-2.1001,-2.1611,-2.2601,-2.4271,0.0,0.0,0.0,0.0,0.0,0.0,0.0,0.0,0.0,0.0,0.0,0.0,-3.3807,-3.3807,-3.3807,-3.3807,-3.3807,-3.3807,-3.3807,-3.2999,-3.1415,-3.1415,-3.0577,-2.9023,-2.9023,-2.9005,0.0,0.0,0.0,0.0,-2.9005,-2.9005,-2.9005,-2.9005,-2.9005,-2.9005,-2.9005,-2.9005,-2.9005,-2.8987,-2.8455,-2.764,-2.6851,-2.6043,-2.5393,-2.5393,-2.4824,-2.419,-2.419,-2.419,-2.419,-2.419,-2.419,-2.419,-2.419,-2.419,-2.4103,-2.3785,-2.3703,-2.3617,-2.3259,-2.2935,-2.2708,-2.2708,-2.249,-2.2296,-2.2296,-2.2296,-2.2296,-2.2296,-2.2296,-2.2296,-2.2279,-2.163,-2.0564,-1.9041,-1.8217,-1.78,-1.78,-1.78,-1.78,-1.78,-1.78,-1.78,-1.78,-1.78,-1.78,-1.78,-1.78,-1.78,-1.78,-1.78,-1.78,-2.6748,-2.7558,-2.8005,-2.7135,-2.6712,-2.6159,-2.4798,-2.3605,-2.2547,-2.1677,-2.0865,-2.0237,-2.0031,-1.9933,-2.0279,-2.1503,-2.1795,0.0,0.0,0.0,0.0,0.0,0.0,0.0,0.0,0.0,0.0,0.0,0.0,0.0,0.0,-3.3807,-3.3807,-3.3807,-3.3807,-3.3807,-3.3807,-3.3807,-3.2981,-3.1397,-3.1397,-3.0558,-2.9005,-2.9005,0.0,0.0,0.0,0.0,0.0,-2.9005,-2.9005,-2.9005,-2.9005,-2.9005,-2.9005,-2.9005,-2.9005,-2.9005,-2.9005,-2.8473,-2.775,-2.7493,-2.6494,-2.5503,-2.6043,-2.5273,-2.419,-2.419,-2.419,-2.419,-2.419,-2.419,-2.4151,-2.3907,-2.3865,-2.3774,-2.3426,-2.3357,-2.3247,-2.2923,-2.2772,-2.2634,-2.2463,-2.2363,-2.2296,-2.2296,-2.2296,-2.2296,-2.2296,-2.2296,-2.2296,-2.2296,-2.1634,-2.1004,-2.0513,-1.9283,-1.8555,-1.8555,-1.8082,-1.78,-1.78,-1.78,-1.78,-1.78,-1.78,-1.78,-1.78,-1.78,-1.78,-1.78,-1.78,-1.78,0.0,-2.5236,-2.5524,-2.4986,-2.4851,-2.4543,-2.3374,-2.2701,-2.2062,-2.1216,-2.0654,-2.0225,-1.9963,-1.9858,-2.007,-2.0849,-2.1447,0.0,0.0,0.0,0.0,0.0,0.0,0.0,0.0,0.0,0.0,0.0,0.0,0.0,0.0,-3.3807,-3.366,-3.3366,-3.3642,-3.3807,-3.3807,-3.3495,-3.2687,-3.1397,-3.1091,-3.0265,-2.9005,-2.9005,0.0,0.0,0.0,0.0,0.0,-2.9005,-2.9005,-2.9005,-2.9005,-2.9005,-2.9005,-2.9005,-2.9005,-2.9005,-2.9005,-2.8675,-2.8209,-2.7897,-2.6917,-2.5962,-2.6447,-2.5695,-2.4585,-2.4281,-2.419,-2.417,-2.4036,-2.4006,-2.3927,-2.3588,-2.3511,-2.3414,-2.3081,-2.3009,-2.2923,-2.2599,-2.255,-2.2487,-2.2321,-2.2296,-2.2296,-2.2296,-2.2296,-2.2296,-2.2296,-2.2296,-2.2296,-2.2296,-2.1887,-2.163,-2.163,-2.0196,-1.9316,-1.9316,-1.8882,-1.8628,-1.8628,-1.8358,-1.8217,-1.8217,-1.7935,-1.78,-1.78,-1.78,-1.78,-1.78,-1.78,-1.78,0.0,-2.3846,0.0,0.0,-2.3879,-2.3471,-2.1793,-2.1466,0.0,-2.0462,-2.0285,-2.0195,-1.9936,-1.9873,-1.9801,-1.9597,-2.0876,0.0,0.0,0.0,0.0,0.0,0.0,0.0,0.0,0.0,0.0,0.0,0.0,0.0,0.0,-3.3752,-3.3366,-3.2619,-3.3275,-3.3623,-3.3623,-3.2889,-3.2118,-3.1323,-3.0558,-2.9776,-2.9005,-2.9005,0.0,0.0,0.0,0.0,0.0,-2.9005,-2.9005,-2.9005,-2.9005,-2.9005,-2.9005,-2.9005,-2.8982,-2.897,-2.897,-2.894,-2.877,-2.7933,-2.7171,-2.6585,-2.6442,-2.5923,-2.5246,-2.4511,-2.4235,-2.4094,-2.3785,-2.3682,-2.3577,-2.3236,-2.3165,-2.3069,-2.2733,-2.2656,-2.2599,-2.2349,-2.2296,-2.2296,-2.2296,-2.2296,-2.2296,-2.2296,-2.2296,-2.2296,-2.2296,-2.2296,-2.2296,-2.2296,-2.2296,-2.2296,-2.2296,-2.0944,-2.0099,-2.0099,-2.0035,-2.0002,-2.0002,-1.935,-1.8944,-1.8894,-1.8183,-1.78,-1.78,-1.7789,-1.7789,-1.78,-1.7789,-1.7789,-2.0659,0.0,-2.1966,-2.135,-2.1658,-2.1831,0.0,-2.1058,-2.1273,-2.0462,0.0,-2.0207,-2.0644,-2.0633,-2.0908,-2.1948,0.0,0.0,0.0,0.0,0.0,0.0,0.0,0.0,0.0,0.0,0.0,0.0,0.0,0.0,0.0,-3.322,-3.2803,-3.2601,-3.2192,-3.1966,-3.1966,-3.177,-3.1274,-3.0485,-3.0283,-2.9776,-2.9005,-2.9005,0.0,0.0,0.0,0.0,-2.9005,-2.9005,-2.9005,-2.9005,-2.9005,-2.9005,-2.9005,-2.9005,-2.8815,-2.854,-2.854,-2.8373,-2.7929,-2.6499,-2.6369,-2.6473,-2.4856,-2.4863,-2.5356,-2.5172,-2.449,-2.3795,-2.3714,-2.3511,-2.3224,-2.2898,-2.2822,-2.2738,-2.2467,-2.2385,-2.2374,-2.231,-2.2296,-2.2296,-2.2296,-2.2296,-2.2296,-2.2296,-2.2296,-2.2296,-2.2296,-2.2296,-2.2296,-2.2296,-2.2296,-2.2296,-2.2296,-2.1448,-2.0919,-2.0919,-2.0335,-2.0002,-2.0002,-1.9828,-1.9473,-1.891,-1.8183,-1.78,-1.78,-1.7537,-1.7549,-1.7789,-1.7537,-1.7549,-1.9688,-2.0464,-2.1176,-2.0732,-2.0942,-2.1157,-2.0713,0.0,0.0,0.0,0.0,0.0,0.0,0.0,0.0,0.0,0.0,0.0,0.0,0.0,0.0,0.0,0.0,0.0,0.0,0.0,0.0,0.0,0.0,0.0,0.0,-3.2485,-3.188,-3.15,-3.1072,-3.1017,-3.1397,-3.1017,-3.0632,-3.021,-2.9831,-2.9427,-2.9005,-2.9005,-2.9005,0.0,0.0,0.0,-2.8719,-2.8719,-2.8719,-2.8749,-2.8929,-2.9005,-2.8982,-2.8785,-2.8577,-2.8327,-2.7838,-2.7308,-2.6699,-2.583,-2.5617,-2.5554,-2.4796,-2.4491,-2.4451,-2.4754,-2.4285,-2.3671,-2.3511,-2.3212,-2.2885,-2.259,-2.2527,-2.249,-2.2335,-2.2296,-2.2296,-2.2296,-2.2296,-2.2296,-2.2296,-2.2296,-2.2296,-2.2296,-2.2296,-2.2296,-2.2296,-2.2296,-2.2296,-2.2296,-2.2296,-2.2296,-2.2296,-2.1938,-2.1701,-2.1701,-2.1299,-2.1062,-2.1062,-2.0724,-2.0027,-1.891,-1.8504,-1.8149,-1.78,-1.7451,-1.7392,-1.7561,-1.738,-1.7392,-1.9697,-2.0422,-2.1104,-2.1023,-2.1086,-2.118,-2.118,0.0,0.0,0.0,0.0,0.0,0.0,0.0,0.0,0.0,0.0,0.0,0.0,0.0,0.0,0.0,0.0,0.0,0.0,0.0,0.0,0.0,0.0,0.0,0.0,-3.1641,-3.0889,-3.0228,-3.0081,-3.0338,-3.1017,-3.0356,-3.0026,-3.0008,-2.9335,-2.9005,-2.9005,-2.9005,-2.897,0.0,0.0,0.0,-2.8311,-2.8311,-2.8311,-2.8355,-2.87,-2.8827,-2.8791,-2.8451,-2.8272,-2.8103,-2.7122,-2.6253,-2.5575,-2.5482,-2.4892,-2.4368,-2.4969,-2.4208,-2.3247,-2.3876,-2.3806,-2.3488,-2.3189,-2.2873,-2.2573,-2.2346,-2.2296,-2.2296,-2.2296,-2.2296,-2.2296,-2.2296,-2.2296,-2.2296,-2.2296,-2.2296,-2.2296,-2.2296,-2.2296,-2.2296,-2.2296,-2.2296,-2.2296,-2.2296,-2.2296,-2.2296,-2.2296,-2.2296,-2.2268,-2.2194,-2.2268,-2.2268,-2.2194,-2.1556,-2.0555,-1.9163,-1.9029,-1.8648,-1.7969,-1.7521,-1.7298,-1.7308,-1.7199,-1.7195,-2.0173,-2.1007,-2.1562,-2.1116,-2.1506,-2.2014,-2.2014,0.0,0.0,0.0,0.0,0.0,0.0,0.0,0.0,0.0,0.0,0.0,0.0,0.0,0.0,0.0,0.0,0.0,0.0,0.0,0.0,0.0,0.0,0.0,0.0,-3.0815,-3.0338,-3.021,-2.9537,-2.9244,-2.9372,-2.9244,-2.9189,-2.9189,-2.906,-2.9005,-2.9005,-2.9005,-2.8797,0.0,0.0,-2.8237,-2.7982,-2.7982,-2.7982,-2.7978,-2.8051,-2.8065,-2.8065,-2.801,-2.7765,-2.7407,-2.6899,-2.6242,-2.5509,-2.4876,-2.4159,-2.3502,-2.3228,-2.2958,-2.286,-2.3236,-2.3105,-2.2848,-2.2797,-2.2563,-2.2349,-2.231,-2.2296,-2.2296,-2.2296,-2.2296,-2.2296,-2.2296,-2.2296,-2.2296,-2.2296,-2.2296,-2.2296,-2.2296,-2.2296,-2.2296,-2.2296,-2.2296,-2.2296,-2.2296,-2.2296,-2.2296,-2.2296,-2.2296,-2.212,-2.1718,-2.2092,-2.212,-2.1718,-2.1384,-2.0908,-2.0265,-1.9643,-1.9125,-1.8724,-1.7773,-1.7295,-1.7296,-1.6722,-1.676,-1.9098,-1.9803,-2.0612,-2.1265,-2.2038,-2.2635,-2.2635,-2.2309,0.0,0.0,0.0,0.0,0.0,0.0,0.0,0.0,0.0,0.0,0.0,0.0,0.0,0.0,0.0,0.0,0.0,0.0,0.0,0.0,0.0,0.0,0.0,0.0,-2.9537,-2.9537,-2.9189,-2.9005,-2.9005,-2.9005,-2.9005,-2.9005,-2.9005,-2.9005,-2.8994,-2.8773,-2.8577,-2.8381,0.0,-2.7718,-2.7592,-2.7592,-2.7592,-2.7607,-2.7826,-2.7897,-2.7883,-2.7666,-2.7074,-2.6306,-2.5706,-2.5032,-2.4289,-2.3545,-2.3088,-2.2762,-2.2538,-2.2473,-2.2531,-2.2673,-2.2704,-2.2708,-2.2708,-2.25,-2.2296,-2.2296,-2.2296,-2.2296,-2.2296,-2.2296,-2.2296,-2.2296,-2.2296,-2.2296,-2.2296,-2.2296,-2.2296,-2.2296,-2.2296,-2.2296,-2.2296,-2.2296,-2.2296,-2.2296,-2.2296,-2.2296,-2.2296,-2.2077,-2.1928,-2.1988,-2.1736,-2.16,-2.1597,-2.1477,-2.1042,-2.0192,-2.007,-1.9616,-1.884,-1.8128,-1.7781,-1.7777,-1.7139,-1.7009,-1.8335,-1.8831,-1.9646,-2.1133,0.0,-2.2868,-2.3437,-2.2942,0.0,0.0,0.0,0.0,0.0,0.0,0.0,0.0,0.0,0.0,0.0,0.0,0.0,0.0,0.0,0.0,0.0,0.0,0.0,0.0,0.0,0.0,0.0,0.0,-2.9005,-2.9005,-2.9005,-2.9005,-2.9005,-2.9005,-2.9005,-2.9005,-2.8887,-2.8863,-2.8851,-2.8464,-2.8232,-2.8112,-2.7542,-2.7257,-2.7162,-2.7162,-2.7162,-2.7194,-2.75,-2.7619,-2.7574,-2.727,-2.6612,-2.5761,-2.5015,-2.4271,-2.3543,-2.2801,-2.2431,-2.2296,-2.2296,-2.2296,-2.2296,-2.2296,-2.245,-2.2612,-2.2612,-2.245,-2.2296,-2.2296,-2.2296,-2.2296,-2.2296,-2.2296,-2.2296,-2.2296,-2.2296,-2.2296,-2.2296,-2.2296,-2.2296,-2.2296,-2.2296,-2.2296,-2.2296,-2.2296,-2.2296,-2.2296,-2.2194,-2.2092,-2.2005,-2.1675,-2.1613,-2.1959,-2.1369,-2.1086,-2.129,-2.1399,-2.1001,-2.002,-2.0297,-1.9988,-1.9064,-1.8563,-1.8284,-1.8192,-1.7469,-1.7206,-1.9022,-1.926,-1.9517,-2.0382,-2.1253,0.0,-2.4713,-2.4603,0.0,-2.5952,0.0,0.0,0.0,0.0,0.0,0.0,0.0,0.0,0.0,0.0,0.0,0.0,0.0,0.0,0.0,0.0,0.0,0.0,0.0,0.0,0.0,0.0,0.0,-2.9005,-2.9005,-2.9005,-2.9005,-2.9005,-2.9005,-2.8994,-2.8633,-2.8446,-2.8433,-2.8088,-2.7722,-2.7378,-2.7317,-2.7083,-2.6741,-2.6741,-2.6741,-2.6741,-2.6775,-2.6791,-2.6774,-2.6758,-2.6691,-2.6522,-2.5778,-2.5033,-2.4305,-2.3562,-2.2868,-2.2296,-2.2296,-2.2296,-2.2296,-2.2296,-2.2307,-2.2321,-2.2321,-2.2307,-2.2296,-2.2296,-2.2296,-2.2296,-2.2296,-2.2296,-2.2296,-2.2296,-2.2296,-2.2296,-2.2296,-2.2296,-2.2296,-2.2296,-2.2296,-2.2296,-2.2296,-2.2296,-2.2296,-2.2296,-2.1913,-2.1491,-2.1134,-2.1055,-2.1071,-2.1086,-2.1023,-2.0829,-2.0416,-2.0797,-2.0797,-2.027,-2.0304,-2.0142,-1.9826,-1.9048,-1.8499,-1.8177,-1.7197,-1.694,-1.7722,-1.817,-1.8867,-2.0181,-2.1161,0.0,0.0,-2.4805,-2.5264,-2.6374,-2.6602,0.0,0.0,0.0,0.0,0.0,0.0,0.0,0.0,0.0,0.0,0.0,0.0,0.0,0.0,0.0,0.0,0.0,0.0,0.0,0.0,0.0,0.0,-2.8321,-2.8533,-2.8533,-2.8326,-2.8326,-2.8326,-2.8326,-2.8368,-2.8303,-2.8075,-2.7692,-2.7439,-2.7288,-2.7052,-2.6841,-2.6691,-2.6691,-2.6691,-2.6691,-2.6691,-2.6691,-2.6691,-2.6691,-2.6691,-2.6522,-2.5321,-2.4728,-2.4305,-2.3105,-2.253,-2.2296,-2.2296,-2.2296,-2.2296,-2.2296,-2.2296,-2.2296,-2.2296,-2.2296,-2.2296,-2.2296,-2.2296,-2.2296,-2.2296,-2.2296,-2.2296,-2.2296,-2.2296,-2.2296,-2.2296,-2.2296,-2.2296,-2.2296,-2.2296,-2.2296,-2.2296,-2.2296,-2.2194,-2.1899,-2.1477,-2.1055,-2.06,-2.0566,-2.0465,-2.0208,-2.0191,-2.021,-2.0297,-2.0466,-2.0348,-1.9945,-2.0176,-2.0138,-1.9771,-1.9459,-1.9268,-1.9105,-1.832,-1.7809,-1.7348,-1.8052,-1.9117,-2.0209,0.0,0.0,-2.4273,-2.5007,-2.5778,-2.709,0.0,0.0,0.0,0.0,0.0,0.0,0.0,0.0,0.0,0.0,0.0,0.0,0.0,0.0,0.0,0.0,0.0,0.0,0.0,0.0,0.0,0.0,0.0,0.0,-2.8116,-2.8129,-2.7911,-2.7897,-2.784,-2.7707,-2.7946,-2.7932,-2.771,-2.7286,-2.7115,-2.7099,-2.6808,-2.6691,-2.6691,-2.6691,-2.6691,-2.6691,-2.6691,-2.6556,-2.6353,-2.6353,-2.6201,-2.5828,-2.4575,-2.4152,-2.3949,-2.2699,-2.2296,-2.2296,-2.2296,-2.2296,-2.2296,-2.2296,-2.2296,-2.2296,-2.2296,-2.2296,-2.2296,-2.2296,-2.2296,-2.2296,-2.2296,-2.2296,-2.2296,-2.2296,-2.2296,-2.2296,-2.2296,-2.218,-2.2092,-2.2092,-2.2092,-2.2092,-2.2092,-2.2092,-2.1855,-2.1259,-2.1086,-2.0764,-2.0158,-2.0229,-2.0124,-1.9744,-1.9708,-1.9821,-2.0089,-2.0106,-1.9982,-1.9708,-1.9965,-1.9965,-1.9708,-1.9708,-1.9708,-1.9693,-1.9016,-1.8446,-1.8317,-1.9263,-2.0503,0.0,0.0,0.0,-2.5227,-2.5411,-2.6109,-2.851,0.0,0.0,0.0,0.0,0.0,0.0,0.0,0.0,0.0,0.0,0.0,0.0,0.0,0.0,0.0,0.0,0.0,0.0,0.0,0.0,0.0,0.0,0.0,0.0,-2.7897,-2.7897,-2.7897,-2.7897,-2.7678,-2.7286,-2.7286,-2.7286,-2.7288,-2.6873,-2.6691,-2.6691,-2.6691,-2.6691,-2.6691,-2.6691,-2.6691,-2.6674,-2.6674,-2.6234,-2.5592,-2.5592,-2.5118,-2.4389,-2.3661,-2.3393,-2.3274,-2.2533,-2.2296,-2.2296,-2.2296,-2.2296,-2.2296,-2.2296,-2.2296,-2.2296,-2.2296,-2.2296,-2.2296,-2.2296,-2.2296,-2.2296,-2.2296,-2.2296,-2.2296,-2.2296,-2.2296,-2.2296,-2.2296,-2.1913,-2.1597,-2.1597,-2.1597,-2.1582,-2.1582,-2.1582,-2.1259,-2.0383,-2.0699,-2.0632,-1.9764,-2.007,-2.0124,-1.9744,-1.9708,-1.9708,-1.9708,-1.9708,-1.9708,-1.9708,-1.9708,-1.9708,-1.9708,-1.9708,-1.9708,-1.9693,-1.9016,-1.8717,-1.7631,-1.8834,0.0,-2.0503,0.0,0.0,0.0,-2.6667,0.0,0.0,0.0,0.0,0.0,0.0,0.0,0.0,0.0,0.0,0.0,0.0,0.0,0.0,0.0,0.0,0.0,0.0,0.0,0.0,0.0,0.0,0.0,0.0,0.0,0.0,-2.7317,-2.7332,-2.7051,-2.7051,-2.7004,-2.6873,-2.6873,-2.6873,-2.6873,-2.6758,-2.6691,-2.6691,-2.6691,-2.6691,-2.6657,-2.6133,-2.5609,-2.5151,-2.5151,-2.5015,-2.4829,-2.4829,-2.4694,-2.4389,-2.3661,-2.3393,-2.3274,-2.2533,-2.2296,-2.2296,-2.2296,-2.2296,-2.2296,-2.2296,-2.2296,-2.2296,-2.2296,-2.2296,-2.2296,-2.2296,-2.2296,-2.2296,-2.2296,-2.2296,-2.2296,-2.2296,-2.2296,-2.2296,-2.2296,-2.1913,-2.1597,-2.1597,-2.1353,-2.1181,-2.1181,-2.1181,-2.0943,-2.0365,-2.0158,-1.998,-1.9711,-1.9818,-1.9836,-1.9708,-1.9708,-1.9708,-1.9708,-1.9708,-1.9708,-1.9708,-1.9708,-1.9708,-1.9708,-1.9708,-1.9708,-1.9708,-1.9513,-1.9151,-1.9032,-2.0382,0.0,0.0,0.0,0.0,0.0,0.0,0.0,0.0,0.0,0.0,0.0,0.0,0.0,0.0,0.0,0.0,0.0,0.0,0.0,0.0,0.0,0.0,0.0,0.0,0.0,0.0,0.0,0.0,0.0,0.0,0.0,0.0,-2.6939,-2.6955,-2.6691,-2.6691,-2.6691,-2.6691,-2.6691,-2.6691,-2.6691,-2.6691,-2.6691,-2.6674,-2.6387,-2.6251,-2.6201,-2.5473,-2.4898,-2.4491,-2.4491,-2.4321,-2.4068,-2.4068,-2.3881,-2.3562,-2.3122,-2.297,-2.2885,-2.2431,-2.2296,-2.2296,-2.2296,-2.2296,-2.2296,-2.2296,-2.2296,-2.2296,-2.2296,-2.2296,-2.2296,-2.2296,-2.2296,-2.2296,-2.2296,-2.2296,-2.2237,-2.2046,-2.2163,-2.2194,-2.184,-2.1554,-2.1306,-2.1118,-2.0878,-2.0715,-2.0715,-2.0715,-2.055,-2.0106,-1.9839,-1.9708,-1.9708,-1.9708,-1.9708,-1.9708,-1.9708,-1.9708,-1.9708,-1.9708,-1.9708,-1.9708,-1.9708,-1.9708,-1.9708,-1.9708,-1.9708,-1.9708,-1.9708,-1.9465,-2.128,0.0,0.0,0.0,0.0,0.0,0.0,0.0,0.0,0.0,0.0,0.0,0.0,0.0,0.0,0.0,0.0,0.0,0.0,0.0,0.0,0.0,0.0,0.0,0.0,0.0,0.0,0.0,0.0,0.0,0.0,0.0,0.0,-2.6708,-2.6691,-2.6691,-2.6691,-2.6691,-2.6691,0.0,-2.6623,-2.659,-2.659,-2.6657,-2.6657,-2.6556,-2.5828,-2.5457,-2.5355,-2.4677,-2.4355,-2.4305,-2.4305,-2.3898,-2.3291,-2.3291,-2.2885,-2.2296,-2.2296,-2.2296,-2.2296,-2.2296,-2.2296,-2.2296,-2.2296,-2.2296,-2.2296,-2.2254,-2.2237,-2.2237,-2.2237,-2.2209,-2.2194,-2.224,-2.2268,-2.2282,-2.2254,-2.2237,-2.2106,-2.1643,-2.1884,-2.193,-2.115,-2.0959,-2.078,-2.0314,-2.028,-2.0297,-2.0246,-2.028,-2.0158,-1.9729,-1.9708,-1.9708,-1.9708,-1.9708,-1.9708,-1.9708,-1.9708,-1.9708,-1.9708,-1.9708,-1.9708,-1.9708,-1.9708,-1.9708,-1.9708,-1.9708,-1.9708,-1.9708,-1.9708,-1.9708,0.0,-2.0582,0.0,0.0,0.0,0.0,0.0,0.0,0.0,0.0,0.0,0.0,0.0,0.0,0.0,0.0,0.0,0.0,0.0,0.0,0.0,0.0,0.0,0.0,0.0,0.0,0.0,0.0,0.0,0.0,0.0,0.0,0.0,-2.6708,-2.6691,-2.6691,-2.6691,-2.6691,-2.6691,0.0,-2.6116,-2.5845,-2.5862,-2.6437,-2.6387,-2.5795,-2.5066,-2.4423,-2.3849,-2.3697,-2.3291,-2.2784,-2.2784,-2.2682,-2.2533,-2.2533,-2.2446,-2.2296,-2.2296,-2.2296,-2.2296,-2.2296,-2.2296,-2.2296,-2.2296,-2.2296,-2.2223,-2.1853,-2.1749,-2.1749,-2.1749,-2.1507,-2.1354,-2.169,-2.2032,-2.2194,-2.1823,-2.1749,-2.1628,-2.1213,-2.1213,-2.1213,-2.1039,-2.0682,-2.0313,-1.9892,-2.0089,-2.0193,-1.9874,-2.0106,-2.0158,-1.9729,-1.9708,-1.9708,-1.9708,-1.9708,-1.9708,-1.9708,-1.9708,-1.9708,-1.9708,-1.9708,-1.9708,-1.9708,-1.9708,-1.9708,-1.9708,-1.9708,-1.9708,-1.9708,-1.9708,-1.9708,0.0,0.0,0.0,0.0,0.0,0.0,0.0,0.0,0.0,0.0,0.0,0.0,0.0,0.0,0.0,0.0,0.0,0.0,0.0,0.0,0.0,0.0,0.0,0.0,0.0,0.0,0.0,0.0,0.0,0.0,0.0,-2.6691,-2.6691,-2.6691,-2.6353,-2.6167,-2.6167,-2.5812,-2.5659,-2.5642,-2.5253,-2.5067,-2.5084,-2.5472,-2.5439,-2.5033,-2.4288,-2.3763,-2.3376,-2.3021,-2.2649,-2.2296,-2.2296,-2.2296,-2.2296,-2.2296,-2.2296,-2.2296,-2.2296,-2.2296,-2.2296,-2.2296,-2.2296,-2.2296,-2.2296,-2.2135,-2.1913,-2.1673,-2.146,-2.1306,-2.1306,-2.115,-2.1039,-2.126,-2.1492,-2.1615,-2.1385,-2.1306,-2.1181,-2.0748,-2.0845,-2.0862,-2.0464,-2.0158,-1.9929,-1.9729,-1.9874,-1.9929,-1.9744,-1.9874,-1.9929,-1.9711,-1.9708,-1.9708,-1.9708,-1.9708,-1.9708,-1.9708,-1.9708,-1.9708,-1.9708,-1.9708,-1.9708,-1.9708,-1.9708,-1.9708,-1.9708,-1.9708,-1.9708,-1.9708,-1.9708,-1.9708,0.0,0.0,0.0,0.0,0.0,0.0,0.0,0.0,0.0,0.0,0.0,0.0,0.0,0.0,0.0,0.0,0.0,0.0,0.0,0.0,0.0,0.0,0.0,0.0,0.0,0.0,0.0,0.0,0.0,0.0,-2.6691,-2.6573,-2.6505,-2.6505,-2.5795,-2.5423,-2.5423,-2.4795,-2.4491,-2.4491,-2.4372,-2.4237,-2.4118,-2.4118,-2.4186,-2.4271,-2.3528,-2.3207,-2.3156,-2.255,-2.2296,-2.2296,-2.2296,-2.2296,-2.2296,-2.2296,-2.2296,-2.2296,-2.2296,-2.2296,-2.2282,-2.2209,-2.218,-2.218,-2.2092,-2.1794,-2.1476,-2.1414,-2.115,-2.0878,-2.0878,-2.0829,-2.0797,-2.0862,-2.0829,-2.0797,-2.0862,-2.0878,-2.0732,-2.0296,-2.0515,-2.0548,-1.9818,-1.9708,-1.9708,-1.9708,-1.9708,-1.9708,-1.9708,-1.9708,-1.9708,-1.9708,-1.9708,-1.9708,-1.9708,-1.9708,-1.9708,-1.9708,-1.9708,-1.9708,-1.9708,-1.9708,-1.9708,-1.9708,-1.9708,-1.9708,-1.9708,-1.9708,-1.9708,-1.9708,-1.9708,-1.9708,0.0,0.0,0.0,0.0,0.0,0.0,0.0,0.0,0.0,0.0,0.0,0.0,0.0,0.0,0.0,0.0,0.0,0.0,0.0,0.0,0.0,0.0,0.0,0.0,0.0,0.0,0.0,0.0,0.0,0.0,-2.6691,-2.6099,-2.5761,-2.5761,-2.5032,-2.4643,-2.4643,-2.4541,-2.4491,-2.4491,-2.3864,-2.3207,-2.2584,-2.2584,-2.2936,-2.3511,-2.2767,-2.2448,-2.2431,-2.233,-2.2296,-2.2296,-2.2296,-2.2296,-2.2296,-2.2296,-2.2296,-2.2296,-2.2296,-2.2296,-2.2223,-2.1823,-2.1688,-2.1628,-2.1291,-2.1134,-2.0991,-2.06,-2.0433,-2.0399,-2.0399,-2.0124,-1.9962,-2.0314,-2.0139,-1.9962,-2.0314,-2.0399,-2.0263,-1.9856,-1.9836,-1.9836,-1.9711,-1.9708,-1.9708,-1.9708,-1.9708,-1.9708,-1.9708,-1.9708,-1.9708,-1.9708,-1.9708,-1.9708,-1.9708,-1.9708,-1.9708,-1.9708,-1.9708,-1.9708,-1.9708,-1.9708,-1.9708,-1.9708,-1.9708,-1.9708,-1.9708,-1.9708,-1.9708,-1.9708,-1.9708,-1.9708,-1.7546,0.0,0.0,0.0,0.0,0.0,0.0,0.0,0.0,0.0,0.0,0.0,0.0,0.0,0.0,0.0,0.0,0.0,0.0,0.0,0.0,0.0,0.0,0.0,0.0,0.0,0.0,0.0,0.0,-2.6082,-2.6082,-2.5372,-2.4983,-2.4983,-2.4271,-2.3881,-2.3881,-2.346,-2.3274,-2.3257,-2.2936,-2.2615,-2.2296,-2.2296,-2.2482,-2.2767,-2.2431,-2.2296,-2.2296,-2.2296,-2.2296,-2.2296,-2.2296,-2.2296,-2.2296,-2.2296,-2.2296,-2.2268,-2.2003,-2.1913,-2.184,-2.1399,-2.126,-2.1228,-2.1039,-2.0813,-2.0566,-2.0365,-2.0141,-1.9965,-1.9965,-1.9821,-1.9747,-1.9927,-1.9836,-1.9747,-1.9927,-1.9965,-1.9909,-1.9729,-1.9708,-1.9708,-1.9708,-1.9708,-1.9708,-1.9708,-1.9708,-1.9708,-1.9708,-1.9708,-1.9708,-1.9708,-1.9708,-1.9708,-1.9708,-1.9708,-1.9708,-1.9708,-1.9708,-1.9708,-1.9708,-1.9708,-1.9708,-1.9708,-1.9708,-1.9708,-1.9708,-1.9708,-1.9708,-1.969,-1.9387,-1.9244,0.0,0.0,0.0,0.0,0.0,0.0,0.0,0.0,0.0,0.0,0.0,0.0,0.0,0.0,0.0,0.0,0.0,0.0,0.0,0.0,0.0,0.0,0.0,0.0,0.0,0.0,0.0,0.0,0.0,-2.5321,-2.5321,-2.4626,-2.422,-2.422,-2.3511,-2.3122,-2.3122,-2.2567,-2.2296,-2.2296,-2.2296,-2.2296,-2.2296,-2.218,-2.212,-2.212,-2.212,-2.212,-2.2106,-2.2003,-2.1976,-2.1974,-2.2077,-2.212,-2.212,-2.212,-2.212,-2.2063,-2.1598,-2.1445,-2.1384,-2.0959,-2.0829,-2.0797,-2.0698,-2.0431,-2.0158,-2.0158,-1.9929,-1.9708,-1.9708,-1.9708,-1.9708,-1.9708,-1.9708,-1.9708,-1.9708,-1.9708,-1.9708,-1.9708,-1.9708,-1.9708,-1.9708,-1.9708,-1.9708,-1.9708,-1.9708,-1.9708,-1.9708,-1.9708,-1.9708,-1.9708,-1.9708,-1.9708,-1.9708,-1.9708,-1.9708,-1.9708,-1.9708,-1.9708,-1.9708,-1.9566,-1.9566,-1.9708,-1.9566,-1.9497,-1.9497,-1.9497,-1.9497,-1.9479,-1.8949,-1.8765,0.0,0.0,0.0,0.0,0.0,0.0,0.0,0.0,0.0,0.0,0.0,0.0,0.0,0.0,0.0,0.0,0.0,0.0,0.0,0.0,0.0,0.0,0.0,0.0,0.0,0.0,0.0,0.0,0.0,-2.4558,-2.4558,-2.3864,-2.346,-2.346,-2.275,-2.2347,-2.2347,-2.2313,-2.2296,-2.2296,-2.2296,-2.2296,-2.2282,-2.1838,-2.1643,-2.1643,-2.1643,-2.1643,-2.1613,-2.1213,-2.1071,-2.1118,-2.1492,-2.1643,-2.1643,-2.1643,-2.1643,-2.1583,-2.1166,-2.1023,-2.0959,-2.0483,-2.0348,-2.0263,-1.9874,-1.9747,-1.9729,-1.9729,-1.9726,-1.9708,-1.9708,-1.9708,-1.9708,-1.9708,-1.9708,-1.9708,-1.9708,-1.9708,-1.9708,-1.9708,-1.9708,-1.9708,-1.9708,-1.9708,-1.9708,-1.9708,-1.9708,-1.9708,-1.9708,-1.9708,-1.9708,-1.9708,-1.9708,-1.9708,-1.9708,-1.9708,-1.9708,-1.9708,-1.9708,-1.9708,-1.9708,-1.9207,-1.9188,-1.969,-1.9207,-1.8949,-1.8949,-1.8949,-1.8949,-1.893,-1.84,-1.8419,0.0,0.0,0.0,0.0,0.0,0.0,0.0,0.0,0.0,0.0,0.0,0.0,0.0,0.0,0.0,0.0,0.0,0.0,0.0,0.0,0.0,0.0,0.0,0.0,0.0,0.0,0.0,0.0,0.0,0.0,-2.3797,-2.3088,-2.2699,-2.2699,-2.2431,-2.2296,-2.2296,-2.2296,-2.2296,-2.2296,-2.2296,-2.2135,-2.1838,-2.1673,-2.146,-2.1197,-2.0894,-2.0943,-2.1197,-2.1055,-2.0991,-2.1007,-2.115,-2.1213,-2.1213,-2.1213,-2.1213,-2.115,-2.0699,-2.055,-2.0483,-2.0052,-1.9909,-1.9892,-1.9747,-1.9708,-1.9708,-1.9708,-1.9708,-1.9708,-1.9708,-1.9708,-1.9708,-1.9708,-1.9708,-1.9708,-1.9708,-1.9708,-1.9708,-1.9708,-1.9708,-1.9708,-1.9708,-1.9708,-1.9708,-1.9708,-1.9708,-1.9708,-1.9708,-1.9708,-1.9708,-1.9708,-1.9708,-1.9708,-1.9708,-1.9708,-1.9548,-1.9207,-1.9188,-1.9188,-1.9188,-1.8669,-1.8631,-1.9188,-1.865,-1.8554,-1.8893,-1.8893,-1.8708,-1.838,-1.7847,-1.7686,-1.2305,0.0,0.0,0.0,0.0,0.0,0.0,0.0,0.0,0.0,0.0,0.0,0.0,0.0,0.0,0.0,0.0,0.0,0.0,0.0,0.0,0.0,0.0,0.0,0.0,0.0,0.0,0.0,0.0,0.0,-2.3038,-2.2567,-2.2296,-2.2296,-2.2296,-2.2296,-2.2296,-2.2296,-2.2223,-2.2077,-2.2077,-2.184,-2.1384,-2.1228,-2.1023,-2.0747,-2.0296,-2.0364,-2.0764,-2.0615,-2.0565,-2.0582,-2.0715,-2.078,-2.078,-2.078,-2.078,-2.0715,-2.0261,-2.0089,-2.0037,-1.9782,-1.9708,-1.9708,-1.9708,-1.9708,-1.9708,-1.9708,-1.9708,-1.9708,-1.9708,-1.9708,-1.9708,-1.9708,-1.9708,-1.9708,-1.9708,-1.9708,-1.9708,-1.9708,-1.9708,-1.9708,-1.9708,-1.9708,-1.9708,-1.9708,-1.9708,-1.9708,-1.9708,-1.9708,-1.9621,-1.9442,-1.9424,-1.9424,-1.9424,-1.9262,-1.9095,-1.8912,-1.8727,-1.8631,-1.8631,-1.8125,-1.8086,-1.8612,-1.8106,-1.8007,-1.8361,-1.8361,-1.8185,-1.7827,-1.7271,-1.7034,0.0,0.0,0.0,0.0,0.0,0.0,0.0,0.0,0.0,0.0,0.0,0.0,0.0,0.0,0.0,0.0,0.0,0.0,0.0,0.0,0.0,0.0,0.0,0.0,0.0,0.0,0.0,0.0,0.0,-2.2296,-2.2296,-2.2296,-2.2296,-2.2296,-2.2296,-2.2296,-2.2282,-2.2282,-2.2032,-2.1582,-2.1582,-2.1368,-2.0959,-2.0516,-2.0297,-2.0263,-1.9874,-1.9927,-2.0246,-1.9856,-1.9708,-1.9729,-2.0124,-2.028,-2.028,-2.028,-2.028,-2.0229,-1.9854,-1.9708,-1.9708,-1.9708,-1.9708,-1.9708,-1.9708,-1.9708,-1.9708,-1.9708,-1.9708,-1.9708,-1.9708,-1.9708,-1.9708,-1.9708,-1.9708,-1.9708,-1.9708,-1.9708,-1.9708,-1.9708,-1.9708,-1.9708,-1.9708,-1.9708,-1.9708,-1.9708,-1.9708,-1.969,-1.969,-1.969,-1.9479,-1.8949,-1.8893,-1.8893,-1.8874,-1.84,-1.8322,-1.8817,-1.8361,-1.8086,-1.8086,-1.7565,-1.7524,-1.8066,-1.7544,-1.7271,-1.7271,-1.7291,-1.7291,-1.725,-1.6731,-1.65,-1.1574,0.0,0.0,0.0,0.0,0.0,0.0,0.0,0.0,0.0,0.0,0.0,0.0,0.0,0.0,0.0,0.0,0.0,0.0,0.0,0.0,0.0,0.0,0.0,0.0,0.0,0.0,0.0,-2.2429,-2.2296,-2.2296,-2.2296,-2.2296,-2.2296,-2.2296,-2.2135,-2.1794,-2.1794,-2.1583,-2.1166,-2.1166,-2.0943,-2.0483,-2.0365,-2.0141,-1.9856,-1.9747,-1.9764,-1.9856,-1.9747,-1.9708,-1.9711,-1.9836,-1.9874,-1.9874,-1.9874,-1.9874,-1.9856,-1.9729,-1.9708,-1.9708,-1.9708,-1.9708,-1.9708,-1.9708,-1.9708,-1.9708,-1.9708,-1.9708,-1.9708,-1.9708,-1.9708,-1.9708,-1.9708,-1.9708,-1.9708,-1.9708,-1.9708,-1.9708,-1.9708,-1.9708,-1.9708,-1.9708,-1.9708,-1.9708,-1.9708,-1.9708,-1.9566,-1.9169,-1.946,-1.935,-1.8419,-1.8669,-1.8727,-1.8361,-1.8204,-1.8007,-1.7767,-1.7605,-1.7524,-1.7524,-1.7013,-1.6972,-1.7504,-1.6993,-1.671,-1.671,-1.7118,-1.7097,-1.671,-1.6573,-1.65,0.0,0.0,0.0,0.0,0.0,0.0,0.0,0.0,0.0,0.0,0.0,0.0,0.0,0.0,0.0,0.0,0.0,0.0,0.0,0.0,0.0,0.0,0.0,0.0,0.0,0.0,0.0,-2.2296,-2.2296,-2.2296,-2.2296,-2.2296,-2.2296,-2.2296,-2.2106,-2.1884,-2.1597,-2.143,-2.1134,-2.0715,-2.0715,-2.0482,-2.0052,-2.0052,-1.9927,-1.9708,-1.9708,-1.9708,-1.9708,-1.9708,-1.9708,-1.9708,-1.9708,-1.9708,-1.9708,-1.9708,-1.9708,-1.9708,-1.9708,-1.9708,-1.9708,-1.9708,-1.9708,-1.9708,-1.9708,-1.9708,-1.9708,-1.9708,-1.9708,-1.9708,-1.9708,-1.9708,-1.9708,-1.9708,-1.9708,-1.9708,-1.9708,-1.9708,-1.9708,-1.9708,-1.9708,-1.9708,-1.9708,-1.9708,-1.9621,-1.9406,-1.9369,-1.9169,-1.8631,-1.8836,-1.8708,-1.7867,-1.8046,-1.8125,-1.7787,-1.7565,-1.7394,-1.7312,-1.7097,-1.6972,-1.6972,-1.668,-1.6659,-1.6951,-1.6659,-1.65,-1.65,-1.6816,-1.6816,-1.65,-1.65,-1.65,0.0,0.0,0.0,0.0,0.0,0.0,-1.771,-1.7467,0.0,0.0,0.0,0.0,0.0,0.0,0.0,0.0,0.0,0.0,0.0,0.0,0.0,0.0,0.0,0.0,0.0,-2.2296,-2.2296,-2.2296,-2.2296,-2.2282,-2.224,-2.2223,-2.2194,-2.2166,-2.1749,-2.1506,-2.146,-2.1102,-2.0682,-2.0229,-2.0229,-2.0052,-1.9708,-1.9708,-1.9708,-1.9708,-1.9708,-1.9708,-1.9708,-1.9708,-1.9708,-1.9708,-1.9708,-1.9708,-1.9708,-1.9708,-1.9708,-1.9708,-1.9708,-1.9708,-1.9708,-1.9708,-1.9708,-1.9708,-1.9708,-1.9708,-1.9708,-1.9708,-1.9708,-1.9708,-1.9708,-1.9708,-1.9708,-1.9708,-1.9708,-1.9708,-1.9708,-1.9639,-1.9603,-1.9603,-1.9603,-1.9584,-1.953,-1.953,-1.9369,-1.8874,-1.8817,-1.8612,-1.8086,-1.8066,-1.7867,-1.7271,-1.725,-1.7271,-1.7209,-1.6774,-1.6689,-1.7167,-1.6752,-1.65,-1.65,-1.65,-1.65,-1.65,-1.65,-1.65,-1.65,-1.65,-1.65,-1.65,-1.65,-1.65,0.0,0.0,0.0,0.0,0.0,0.0,0.0,-1.5595,0.0,0.0,0.0,0.0,0.0,0.0,0.0,0.0,0.0,0.0,0.0,0.0,0.0,0.0,0.0,0.0,0.0,-2.2296,-2.2296,-2.2296,-2.2296,-2.2135,-2.1764,-2.1733,-2.1583,-2.126,-2.115,-2.0943,-2.0551,-2.0483,-2.0227,-1.9836,-1.9836,-1.9782,-1.9708,-1.9708,-1.9708,-1.9708,-1.9708,-1.9708,-1.9708,-1.9708,-1.9708,-1.9708,-1.9708,-1.9708,-1.9708,-1.9708,-1.9708,-1.9708,-1.9708,-1.9708,-1.9708,-1.9708,-1.9708,-1.9708,-1.9708,-1.9708,-1.9708,-1.9708,-1.9708,-1.9708,-1.9708,-1.9708,-1.9708,-1.9708,-1.9708,-1.9708,-1.9708,-1.9369,-1.9062,-1.9062,-1.9062,-1.893,-1.8496,-1.8419,-1.838,-1.8283,-1.8263,-1.8066,-1.7524,-1.7827,-1.7727,-1.6752,-1.7034,-1.7126,-1.6701,-1.6552,-1.6531,-1.6659,-1.6552,-1.65,-1.65,-1.65,-1.65,-1.65,-1.65,-1.65,-1.65,-1.65,-1.65,-1.65,-1.65,-1.65,0.0,0.0,0.0,-1.8065,0.0,0.0,0.0,0.0,0.0,0.0,0.0,0.0,0.0,0.0,0.0,0.0,0.0,0.0,0.0,0.0,0.0,0.0,0.0,0.0,0.0,-2.2296,-2.2296,-2.2296,-2.2092,-2.1838,-2.1612,-2.1399,-2.1213,-2.1023,-2.0764,-2.0533,-2.0297,-2.0089,-1.9909,-1.9708,-1.9708,-1.9708,-1.9708,-1.9708,-1.9708,-1.9708,-1.9708,-1.9708,-1.9708,-1.9708,-1.9708,-1.9708,-1.9708,-1.9708,-1.9708,-1.9708,-1.9708,-1.9708,-1.9708,-1.9708,-1.9708,-1.9708,-1.9708,-1.9708,-1.9708,-1.9708,-1.9708,-1.9708,-1.9708,-1.9639,-1.9369,-1.9299,-1.9225,-1.8968,-1.8893,-1.8893,-1.8893,-1.8688,-1.8419,-1.8165,-1.8106,-1.8106,-1.8106,-1.8106,-1.8007,-1.7747,-1.7706,-1.7504,-1.6972,-1.7126,-1.7097,-1.6552,-1.6731,-1.6795,-1.6522,-1.65,-1.65,-1.65,-1.65,-1.65,-1.65,-1.65,-1.65,-1.65,-1.65,-1.65,-1.65,-1.65,-1.65,-1.65,-1.65,-1.6337,0.0,0.0,0.0,0.0,0.0,-1.829,0.0,0.0,0.0,-1.8076,0.0,0.0,0.0,0.0,0.0,0.0,0.0,0.0,0.0,0.0,0.0,0.0,0.0,0.0,0.0,-2.1941,-2.1947,-2.2147,-2.1543,-2.1226,-2.1336,-2.1039,-2.0829,-2.0747,-2.0381,-2.0177,-2.0177,-1.9856,-1.9708,-1.9708,-1.9708,-1.9708,-1.9708,-1.9708,-1.9708,-1.9708,-1.9708,-1.9708,-1.9708,-1.9708,-1.9708,-1.9708,-1.9708,-1.9708,-1.9708,-1.9708,-1.9708,-1.9708,-1.9708,-1.9708,-1.9708,-1.9708,-1.9708,-1.9708,-1.9708,-1.9708,-1.969,-1.9584,-1.9548,-1.9424,-1.8893,-1.8746,-1.8631,-1.8204,-1.8106,-1.8106,-1.8106,-1.8027,-1.7827,-1.7394,-1.7209,-1.7271,-1.7727,-1.7787,-1.7646,-1.7209,-1.7146,-1.6993,-1.6552,-1.65,-1.65,-1.65,-1.65,-1.65,-1.65,-1.65,-1.65,-1.65,-1.65,-1.65,-1.65,-1.65,-1.65,-1.65,-1.65,-1.6445,-1.6337,-1.6337,-1.638,-1.65,-1.638,-1.6073,0.0,0.0,0.0,0.0,-2.0348,0.0,0.0,0.0,-1.7343,-1.6204,0.0,0.0,0.0,0.0,0.0,0.0,0.0,0.0,0.0,0.0,0.0,0.0,0.0,0.0,0.0,0.0,-2.0663,-2.1604,-2.0428,-1.9885,-2.0422,-2.0399,-2.0227,-1.9871,-1.98,-1.9764,-1.9764,-1.9711,-1.9708,-1.9708,-1.9708,-1.9708,-1.9708,-1.9708,-1.9708,-1.9708,-1.9708,-1.9708,-1.9708,-1.9708,-1.9708,-1.9708,-1.9708,-1.9708,-1.9708,-1.9708,-1.9708,-1.9708,-1.9708,-1.9708,-1.9708,-1.9708,-1.9708,-1.9708,-1.9708,-1.9708,-1.9603,-1.9132,-1.8987,-1.8874,-1.8341,-1.8204,-1.8185,-1.8125,-1.8106,-1.8106,-1.8106,-1.7727,-1.7374,-1.7312,-1.6909,-1.6616,-1.668,-1.668,-1.6659,-1.6595,-1.6595,-1.6573,-1.6522,-1.65,-1.65,-1.65,-1.65,-1.65,-1.65,-1.65,-1.65,-1.65,-1.65,-1.65,-1.65,-1.65,-1.65,-1.65,-1.65,-1.6238,-1.5698,-1.5698,-1.5986,-1.65,-1.5964,-1.5676,0.0,0.0,0.0,0.0,0.0,0.0,0.0,0.0,-1.776,0.0,0.0,0.0,0.0,0.0,0.0,0.0,0.0,0.0,0.0,0.0,0.0,0.0,0.0,0.0,0.0,0.0,0.0,0.0,0.0,-1.9104,-1.9743,-1.989,-1.9874,-1.9708,-1.9708,-1.9708,-1.9708,-1.9708,-1.9708,-1.9708,-1.9708,-1.9708,-1.9708,-1.9708,-1.9708,-1.9708,-1.9708,-1.9708,-1.9708,-1.9708,-1.9708,-1.9708,-1.9708,-1.9708,-1.9708,-1.9708,-1.9708,-1.9708,-1.9708,-1.9708,-1.9639,-1.935,-1.9244,-1.9188,-1.8874,-1.8765,-1.8708,-1.8496,-1.8438,-1.8322,-1.7787,-1.7646,-1.7565,-1.725,-1.7167,-1.7167,-1.7167,-1.6993,-1.6837,-1.6837,-1.6659,-1.65,-1.65,-1.65,-1.65,-1.65,-1.65,-1.65,-1.65,-1.65,-1.65,-1.65,-1.65,-1.65,-1.65,-1.65,-1.65,-1.65,-1.65,-1.65,-1.65,-1.65,-1.65,-1.65,-1.65,-1.6194,-1.561,-1.561,-1.5543,-1.5456,-1.5197,-1.4892,-2.2077,0.0,0.0,0.0,0.0,0.0,0.0,0.0,0.0,0.0,0.0,0.0,0.0,0.0,0.0,0.0,0.0,0.0,0.0,0.0,0.0,0.0,0.0,0.0,0.0,0.0,0.0,0.0,0.0,0.0,-1.9145,-1.9343,-1.9513,-1.9693,-1.9708,-1.9708,-1.9708,-1.9708,-1.9708,-1.9708,-1.9708,-1.9708,-1.9708,-1.9708,-1.9708,-1.9708,-1.9708,-1.9708,-1.9708,-1.9708,-1.9708,-1.9708,-1.9708,-1.9603,-1.9497,-1.9639,-1.9708,-1.9708,-1.9708,-1.9603,-1.9387,-1.8855,-1.8669,-1.8612,-1.8224,-1.8106,-1.8066,-1.7927,-1.7887,-1.7767,-1.7209,-1.7076,-1.6972,-1.6595,-1.65,-1.65,-1.65,-1.65,-1.65,-1.65,-1.65,-1.65,-1.65,-1.65,-1.65,-1.65,-1.65,-1.65,-1.65,-1.65,-1.65,-1.65,-1.65,-1.65,-1.65,-1.6358,-1.6259,-1.6259,-1.6259,-1.6259,-1.6259,-1.6259,-1.6173,-1.602,-1.5998,-1.571,-1.5118,-1.5118,-1.4801,-1.4201,-1.4376,-1.4213,0.0,0.0,0.0,-2.0299,0.0,0.0,0.0,0.0,-1.8872,0.0,0.0,0.0,0.0,0.0,0.0,0.0,0.0,0.0,0.0,0.0,0.0,0.0,0.0,0.0,0.0,0.0,0.0,0.0,0.0,0.0,-1.8602,-1.8732,-1.9031,-1.9678,-1.9708,-1.9708,-1.9708,-1.9708,-1.9708,-1.9708,-1.9708,-1.9708,-1.9708,-1.9708,-1.9708,-1.9708,-1.9708,-1.9708,-1.9708,-1.9708,-1.9708,-1.9708,-1.9708,-1.9387,-1.8987,-1.9512,-1.9708,-1.9708,-1.9708,-1.9369,-1.8836,-1.8302,-1.8145,-1.8125,-1.8125,-1.8106,-1.7987,-1.7463,-1.7333,-1.7188,-1.6659,-1.6543,-1.6522,-1.65,-1.65,-1.65,-1.65,-1.65,-1.65,-1.65,-1.65,-1.65,-1.65,-1.65,-1.65,-1.65,-1.65,-1.65,-1.65,-1.65,-1.65,-1.65,-1.65,-1.65,-1.65,-1.5952,-1.5632,-1.5632,-1.5632,-1.5632,-1.5632,-1.5632,-1.5343,-1.4766,-1.4755,-1.4468,-1.3862,-1.3862,-1.3552,-1.2978,-1.3552,-1.3815,0.0,0.0,-2.1064,-2.048,0.0,0.0,0.0,0.0,0.0,0.0,0.0,0.0,0.0,0.0,0.0,0.0,0.0,0.0,0.0,0.0,0.0,0.0,0.0,0.0,0.0,0.0,0.0,0.0,0.0,0.0,0.0,-1.8207,-1.8807,-1.9031,-1.9468,-1.9708,-1.9708,-1.9708,-1.9708,-1.9708,-1.9708,-1.9708,-1.9708,-1.9708,-1.9708,-1.9708,-1.9708,-1.9497,-1.9169,-1.9169,-1.8968,-1.8631,-1.8631,-1.8535,-1.8477,-1.9369,-1.9244,-1.8631,-1.8631,-1.8516,-1.8283,-1.7747,-1.7565,-1.7504,-1.7146,-1.7034,-1.6993,-1.6816,-1.6774,-1.6731,-1.6552,-1.65,-1.65,-1.65,-1.65,-1.65,-1.65,-1.65,-1.65,-1.65,-1.65,-1.65,-1.65,-1.65,-1.65,-1.65,-1.65,-1.6358,-1.5952,-1.5908,-1.5754,-1.5354,-1.531,-1.531,-1.531,-1.513,-1.5005,-1.5005,-1.5005,-1.5005,-1.5005,-1.5005,-1.4903,-1.4698,-1.4698,-1.4399,-1.3792,-1.3792,-1.3481,-1.2905,-1.3104,-1.319,-2.0781,-2.0764,0.0,-2.0353,-1.9939,0.0,-1.8979,0.0,0.0,0.0,0.0,0.0,0.0,0.0,0.0,0.0,0.0,0.0,0.0,0.0,0.0,0.0,0.0,0.0,0.0,0.0,-1.2893,-1.3698,0.0,0.0,0.0,0.0,-1.8446,-1.8687,-1.9346,-1.9708,-1.9708,-1.9708,-1.9708,-1.9708,-1.9708,-1.9708,-1.9708,-1.9708,-1.9708,-1.969,-1.9497,-1.9225,-1.8893,-1.8688,-1.8419,-1.8106,-1.8106,-1.7987,-1.7927,-1.8817,-1.8688,-1.8066,-1.7887,-1.7827,-1.7727,-1.7188,-1.7013,-1.6951,-1.6595,-1.65,-1.65,-1.65,-1.65,-1.65,-1.65,-1.65,-1.65,-1.65,-1.65,-1.65,-1.65,-1.65,-1.65,-1.65,-1.65,-1.65,-1.65,-1.65,-1.65,-1.65,-1.65,-1.6281,-1.5676,-1.561,-1.5365,-1.4766,-1.4698,-1.4606,-1.4399,-1.4376,-1.4376,-1.4376,-1.4376,-1.4376,-1.4376,-1.4376,-1.4294,-1.4071,-1.4071,-1.386,-1.3481,-1.3481,-1.3286,-1.2905,-1.2905,-1.2905]},{"header":{"parameterUnit":"m.s-1","parameterCategory":1,"la1":30.6,"la2":29.2853,"lo1":-89.7004,"lo2":-87.6739,"dy":0.0162,"dx":0.0183,"nx":112,"ny":82,"refTime":"2024-05-19T06:00:00:Z","depth":0,"parameterNumber":3,"parameterNumberName":"V-component_of_WINDS"},"data":[0.0,0.0,0.0,0.0,0.0,0.0,0.0,0.0,0.0,0.0,0.0,0.0,0.0,0.0,0.0,0.0,0.0,0.0,0.0,0.0,0.0,0.0,0.0,0.0,0.0,0.0,0.0,0.0,0.0,0.0,0.0,0.0,0.0,0.0,0.0,0.0,0.0,0.0,0.0,0.0,0.0,0.0,0.0,0.0,0.0,0.0,0.0,0.0,0.0,0.0,0.0,0.0,0.0,0.0,0.0,0.0,0.0,0.0,0.0,0.0,0.0,0.0,0.0,0.0,0.0,0.0,0.0,0.0,0.0,0.0,0.0,0.0,0.0,0.0,0.0,0.0,0.0,0.0,0.0,0.0,0.0,0.0,0.0,0.0,0.0,0.0,0.0,0.0,0.0,0.0,0.0,0.2909,0.3337,0.3466,0.3162,0.369,0.3513,0.2316,0.0,0.0,0.0,0.0,0.0,0.0,0.0,0.0,0.0,0.0,0.0,0.0,0.0,0.0,0.0,0.0,0.0,0.0,0.0,0.0,0.0,0.0,0.0,0.0,0.0,0.0,0.0,0.0,0.0,0.0,0.0,0.0,0.0,0.0,0.0,0.0,0.0,0.0,0.0,0.0,0.0,0.0,0.0,0.0,0.0,0.0,0.0,0.0,0.0,0.0,0.0,0.0,0.0,0.0,0.0,0.0,0.0,0.0,0.0,0.0,0.0,0.0,0.0,0.0,0.0,0.0,0.0,0.0,0.0,0.0,0.0,0.0,0.0,0.0,0.0,0.0,0.0,0.0,0.0,0.0,0.0,0.0,0.0,0.0,0.0,0.0,0.0,0.0,0.0,0.0,0.0,0.0,0.0,0.0,0.0,0.0,0.0,0.0,0.0,0.0,0.0,0.0,0.0,0.0,0.2658,0.3182,0.3463,0.3507,0.3289,0.3275,0.3035,0.2494,0.0,0.0,0.0,0.0,0.0,0.0,0.0,0.0,0.0,0.0,0.0,0.0,0.0,0.0,0.0,0.0,0.0,0.0,0.0,0.0,0.0,0.0,0.0,0.0,0.0,0.0,0.0,0.0,0.0,0.0,0.0,0.0,0.0,0.0,0.0,0.0,0.0,0.0,0.0,0.0,0.0,0.0,0.0,0.0,0.0,0.0,0.0,0.0,0.0,0.0,0.0,0.0,0.0,0.0,0.0,0.0,0.0,0.0,0.0,0.0,0.0,0.0,0.0,0.0,0.0,0.0,0.0,0.0,0.0,0.0,0.0,0.0,0.0,0.0,0.0,0.0,0.0,0.0,0.0,0.0,0.0,0.0,0.0,0.0,0.0,0.0,0.0,0.0,0.0,0.0,0.0,0.0,0.0,0.0,0.0,0.0,0.0,0.0,0.0,0.0,0.0,0.0,0.0,0.2529,0.2835,0.3168,0.3439,0.3483,0.3206,0.3141,0.2965,0.2637,0.2839,0.0,0.0,0.0,0.0,0.0,0.0,0.0,0.0,0.0,0.0,0.0,0.0,0.0,0.0,0.0,0.0,0.0,0.0,0.0,0.0,0.0,0.0,0.0,0.0,0.0,0.0,0.0,0.0,0.0,0.0,0.0,0.0,0.0,0.0,0.0,0.0,0.0,0.0,0.0,0.0,0.0,0.0,0.0,0.0,0.0,0.0,0.0,0.0,0.0,0.0,0.0,0.0,0.0,0.0,0.0,0.0,0.0,0.0,0.0,0.0,0.0,0.0,0.0,0.0,0.0,0.0,0.0,0.0,0.0,0.0,0.0,0.0,0.0,0.0,0.0,0.0,0.0,0.0,0.0,0.0,0.0,0.0,0.0,0.0,0.0,0.0,0.0,0.0,0.0,0.0,0.0,0.0,0.0,0.0,0.0,0.0,0.0,0.0,0.0,0.0,0.0,0.0,0.2768,0.2996,0.3161,0.3419,0.3456,0.3128,0.3071,0.2951,0.2714,0.2731,0.0,0.0,0.0,0.0,0.0,0.0,0.0,0.0,0.0,0.0,0.0,0.0,0.0,0.0,0.0,0.0,0.0,0.0,0.0,0.0,0.0,0.0,0.0,0.0,0.0,0.0,0.0,0.0,0.0,0.0,0.0,0.0,0.0,0.0,0.0,0.0,0.0,0.0,0.0,0.0,0.0,0.0,0.0,0.0,0.0,0.0,0.0,0.0,0.0,0.0,0.0,0.0,0.0,0.0,0.0,0.0,0.0,0.0,0.0,0.0,0.0,0.0,0.0,0.0,0.0,0.0,0.0,0.0,0.0,0.0,0.0,0.0,0.0,0.0,0.0,0.0,0.0,0.0,0.0,0.0,0.0,0.0,0.0,0.0,0.0,0.0,0.0,0.0,0.0,0.0,0.0,0.0,0.0,0.0,0.0,0.0,0.0,0.0,0.0,0.0,0.0,0.0,0.2853,0.3164,0.3361,0.3505,0.3456,0.3128,0.298,0.2858,0.2706,0.2818,0.0,0.0,0.0,0.0,0.0,0.0,0.0,0.0,0.0,0.0,0.0,0.0,0.0,0.0,0.0,0.0,0.0,0.0,0.0,0.0,0.0,0.0,0.0,0.0,0.0,0.0,0.0,0.0,0.0,0.0,0.0,0.0,0.0,0.0,0.0,0.0,0.0,0.0,0.0,0.0,0.0,0.0,0.0,0.0,0.0,0.0,0.0,0.0,0.0,0.0,0.0,0.0,0.0,0.0,0.0,0.0,0.0,0.0,0.0,0.0,0.0,0.0,0.0,0.0,0.0,0.0,0.0,0.0,0.0,0.0,0.0,0.0,0.0,0.0,0.0,0.0,0.0,0.0,0.0,0.0,0.0,0.0,0.0,0.0,0.0,0.0,0.0,0.0,0.0,0.0,0.0,0.0,0.0,0.0,0.0,0.0,0.0,0.0,0.0,0.0,0.0,0.0,0.2696,0.3046,0.0,0.3365,0.3372,0.3118,0.3047,0.293,0.2712,0.0,0.0,0.0,0.0,0.0,0.0,0.0,0.0,0.0,0.0,0.0,0.0,0.0,0.0,0.0,0.0,0.0,0.0,0.0,0.0,0.0,0.0,0.0,0.0,0.0,0.0,0.0,0.0,0.0,0.0,0.0,0.0,0.0,0.0,0.0,0.0,0.0,0.0,0.0,0.0,0.0,0.0,0.0,0.0,0.0,0.0,0.0,0.0,0.0,0.0,0.0,0.0,0.0,0.0,0.0,0.0,0.0,0.0,0.0,0.0,0.0,0.0,0.0,0.0,0.0,0.0,0.0,0.0,0.0,0.0,0.0,0.0,0.0,0.0,0.0,0.0,0.0,0.0,0.0,0.0,0.0,0.0,0.0,0.0,0.0,0.0,0.0,0.0,0.0,0.0,0.0,0.0,0.0,0.0,0.0,0.0,0.0,0.0,0.0,0.0,0.0,0.0,0.2184,0.2616,0.2929,0.0,0.3188,0.3295,0.3271,0.3121,0.3004,0.29,0.0,0.0,0.0,0.0,0.0,0.0,0.0,0.0,0.0,0.0,0.0,0.0,0.0,0.0,0.0,0.0,0.0,0.0,0.0,0.0,0.0,0.0,0.0,0.0,0.0,0.0,0.0,0.0,0.0,0.0,0.0,0.0,0.0,0.0,0.0,0.0,0.0,0.0,0.0,0.0,0.0,0.0,0.0,0.0,0.0,0.0,0.0,0.0,0.0,0.0,0.0,0.0,0.0,0.0,0.0,0.0,0.0,0.0,0.0,0.0,0.0,0.0,0.0,0.0,0.0,0.0,0.0,0.0,0.0,0.0,0.0,0.0,0.0,0.0,0.0,0.0,0.0,0.0,0.0,0.0,0.0,0.0,0.0,0.0,0.0,0.0,0.0,0.0,0.0,0.0,0.0,0.0,0.0,0.0,0.0,0.0,0.0,0.0,0.0,0.0,0.0,0.0,0.2197,0.2616,0.291,0.291,0.3035,0.3248,0.3573,0.3187,0.3016,0.0,0.0,0.0,0.0,0.0,0.0,0.0,0.0,0.0,0.0,0.0,0.0,0.0,0.0,0.0,0.0,0.0,0.0,0.0,0.0,0.0,0.0,0.0,0.0,0.0,0.0,0.0,0.0,0.0,0.0,0.0,0.0,0.0,0.0,0.0,0.0,0.0,0.0,0.0,0.0,0.0,0.0,0.0,0.0,0.0,0.0,0.0,0.0,0.0,0.0,0.0,0.0,0.0,0.0,0.0,0.0,0.0,0.0,0.0,0.0,0.0,0.0,0.0,0.0,0.0,0.0,0.0,0.0,0.0,0.0,0.0,0.0,0.0,0.0,0.0,0.0,0.0,0.0,0.0,0.0,0.0,0.0,0.0,0.0,0.0,0.0,0.0,0.0,0.0,0.0,0.0,0.0,0.0,0.0,0.0,0.0,0.0,0.0,0.0,0.0,0.0,0.0,0.0,0.2197,0.2616,0.3032,0.3351,0.3426,0.3615,0.4,0.3684,0.3414,0.3313,0.0,0.0,0.0,0.0,0.0,0.0,0.0,0.0,0.0,0.0,0.0,0.0,0.0,0.0,0.0,0.0,0.0,0.0,0.0,0.0,0.0,0.0,0.0,0.0,0.0,0.0,0.0,0.0,0.0,0.0,0.0,0.0,0.0,0.0,0.0,0.0,0.0,0.0,0.0,0.0,0.0,0.0,0.0,0.0,0.0,0.0,0.0,0.0,0.0,0.0,0.0,0.0,0.0,0.0,0.0,0.0,0.0,0.0,0.0,0.0,0.0,0.0,0.0,0.0,0.0,0.0,0.0,0.0,0.0,0.0,0.0,0.0,0.0,0.0,0.0,0.0,0.0,0.0,0.0,0.0,0.0,0.0,0.0,0.0,0.0,0.0,0.0,0.0,0.0,0.0,0.0,0.0,0.0,0.0,0.0,0.0,0.0,0.0,0.0,0.0,0.0,0.0,0.2197,0.2562,0.2919,0.3211,0.3245,0.3483,0.4078,0.3709,0.3491,0.3577,0.0,0.0,0.0,0.0,0.0,0.0,0.0,0.0,0.0,0.0,0.0,0.0,0.0,0.0,0.0,0.0,0.0,0.0,0.0,0.0,0.0,0.0,0.0,0.0,0.0,0.0,0.0,0.0,0.0,0.0,0.0,0.0,0.0,0.0,0.0,0.0,0.0,0.0,0.0,0.0,0.0,0.0,0.0,0.0,0.0,0.0,0.0,0.0,0.0,0.0,0.0,0.0,0.0,0.0,0.0,0.0,0.0,0.0,0.0,0.0,0.0,0.0,0.0,0.0,0.0,0.0,0.0,0.0,0.0,0.0,0.0,0.0,0.0,0.0,0.0,0.0,0.0,0.0,0.0,0.0,0.0,0.0,0.0,0.0,0.0,0.0,0.0,0.0,0.0,0.0,0.0,0.0,0.0,0.0,0.0,0.0,0.0,0.0,0.0,0.0,0.0,0.0,0.2197,0.2496,0.2716,0.2746,0.2762,0.3105,0.3977,0.3501,0.3405,0.3992,0.0,0.0,0.0,0.0,0.0,0.0,0.0,0.0,0.0,0.0,0.0,0.0,0.0,0.0,0.0,0.0,0.0,0.0,0.0,0.0,0.0,0.0,0.0,0.0,0.0,0.0,0.0,0.0,0.0,0.0,0.0,0.0,0.0,0.0,0.0,0.0,0.0,0.0,0.0,0.0,0.0,0.0,0.0,0.0,0.0,0.0,0.0,0.0,0.0,0.0,0.0,0.0,0.0,0.0,0.0,0.0,0.0,0.0,0.0,0.0,0.2488,0.0,0.0,0.0,0.0,0.0,0.0,0.0,0.0,0.0,0.0,0.0,0.0,0.0,0.0,0.0,0.0,0.0,0.0,0.0,0.0,0.0,0.0,0.0,0.0,0.0,0.0,0.0,0.0,0.0,0.0,0.0,0.0,0.0,0.0,0.0,0.0,0.0,0.0,0.0,0.0,0.0,0.2197,0.2496,0.2828,0.313,0.3179,0.3523,0.4393,0.3922,0.3778,0.4283,0.0,0.0,0.0,0.0,0.0,0.0,0.0,0.0,0.0,0.0,0.0,0.0,0.0,0.0,0.0,0.0,0.0,0.0,0.0,0.0,0.0,0.0,0.0,0.0,0.0,0.0,0.0,0.0,0.0,0.0,0.0,0.0,0.0,0.0,0.0,0.0,0.0,0.0,0.0,0.0,0.0,0.0,0.0,0.0,0.0,0.0,0.0,0.0,0.0,0.0,0.0,0.0,0.0,0.0,0.0,0.0,0.0,0.0,0.0,0.0,0.0,0.2988,0.0,0.0,0.0,0.0,0.0,0.0,0.0,0.0,0.0,0.0,0.0,0.0,0.0,0.0,0.0,0.0,0.0,0.0,0.0,0.0,0.0,0.0,0.0,0.0,0.0,0.0,0.0,0.0,0.0,0.0,0.0,0.0,0.0,0.0,0.0,0.0,0.0,0.0,0.0,0.0,0.2197,0.2496,0.2779,0.2986,0.3003,0.3364,0.4248,0.3884,0.3836,0.4369,0.3859,0.0,0.0,0.0,0.0,0.0,0.0,0.0,0.0,0.0,0.0,0.0,0.0,0.0,0.0,0.0,0.0,0.0,0.0,0.0,0.0,0.0,0.0,0.0,0.0,0.0,0.0,0.0,0.0,0.0,0.0,0.0,0.0,0.0,0.0,0.0,0.0,0.0,0.0,0.0,0.0,0.0,0.0,0.0,0.0,0.0,0.0,0.0,0.0,0.0,0.0,0.0,0.0,0.0,0.3931,0.3885,0.416,0.3912,0.3818,0.3853,0.4399,0.406,0.3147,0.0,0.0,0.0,0.0,0.0,0.0,0.0,0.0,0.0,0.0,0.0,0.0,0.0,0.0,0.0,0.0,0.0,0.0,0.0,0.0,0.0,0.0,0.0,0.0,0.0,0.2856,0.2825,0.0,0.0,0.0,0.0,0.0,0.0,0.0,0.0,0.0,0.0,0.0,0.0,0.2244,0.2513,0.2696,0.2696,0.2696,0.306,0.3928,0.3694,0.3759,0.4363,0.4141,0.375,0.0,0.0,0.0,0.0,0.0,0.0,0.0,0.0,0.0,0.0,0.0,0.0,0.0,0.0,0.0,0.0,0.0,0.0,0.0,0.0,0.0,0.0,0.0,0.0,0.0,0.0,0.0,0.0,0.0,0.0,0.0,0.0,0.4382,0.4661,0.0,0.0,0.0,0.0,0.0,0.0,0.0,0.0,0.0,0.0,0.0,0.0,0.0,0.5701,0.5549,0.6151,0.645,0.6404,0.6332,0.6332,0.6351,0.5748,0.5212,0.4755,0.5358,0.0,0.4079,0.4634,0.0,0.0,0.0,0.0,0.0,0.0,0.0,0.0,0.0,0.0,0.0,0.0,0.0,0.0,0.0,0.0,0.0,0.0,0.0,0.0,0.0,0.0,0.3269,0.3093,0.306,0.3057,0.0,0.273,0.2484,0.2446,0.231,0.0,0.0,0.0,0.0,0.0,0.0,0.0,0.2438,0.2606,0.2696,0.2696,0.2696,0.306,0.3928,0.3694,0.3759,0.4363,0.4141,0.3832,0.3466,0.3257,0.0,0.0,0.0,0.0,0.0,0.0,0.0,0.0,0.0,0.0,0.0,0.0,0.0,0.0,0.0,0.0,0.0,0.0,0.0,0.0,0.0,0.0,0.0,0.0,0.0,0.0,0.0,0.0,0.0,0.4649,0.5168,0.5301,0.5478,0.5511,0.0,0.0,0.0,0.0,0.0,0.0,0.0,0.0,0.0,0.6017,0.6128,0.5913,0.5356,0.61,0.614,0.5509,0.6319,0.6463,0.6071,0.6184,0.6116,0.5887,0.6576,0.6509,0.5888,0.5174,0.4363,0.3528,0.0,0.0,0.0,0.0,0.3651,0.359,0.4558,0.4636,0.0,0.0,0.0,0.0,0.0,0.0,0.0,0.0,0.0,0.0,0.0,0.0,0.0,0.3375,0.3378,0.3378,0.3378,0.3158,0.2907,0.0,0.2723,0.2576,0.2181,0.0,0.0,0.0,0.0,0.0,0.2487,0.2616,0.2795,0.3019,0.3035,0.3397,0.4264,0.4208,0.4193,0.4389,0.4282,0.4008,0.3526,0.3386,0.325,0.0,0.0,0.0,0.0,0.0,0.0,0.0,0.0,0.0,0.0,0.0,0.0,0.0,0.0,0.0,0.0,0.0,0.0,0.0,0.0,0.0,0.0,0.0,0.0,0.0,0.0,0.0,0.0,0.5317,0.5878,0.6014,0.6332,0.6399,0.0,0.0,0.0,0.0,0.0,0.0,0.6821,0.7168,0.7215,0.6935,0.6978,0.6713,0.6041,0.6405,0.6149,0.5332,0.5987,0.6036,0.5515,0.5905,0.6073,0.6095,0.6637,0.6866,0.6778,0.5975,0.5051,0.4117,0.3854,0.3479,0.3173,0.4029,0.4233,0.4258,0.5337,0.5456,0.5133,0.5218,0.0,0.5138,0.4888,0.0,0.0,0.0,0.0,0.3438,0.3572,0.3538,0.3507,0.3666,0.3693,0.3683,0.3665,0.3544,0.3354,0.0,0.3057,0.2949,0.2462,0.0,0.0,0.0,0.0,0.2603,0.2603,0.2798,0.3022,0.3282,0.3409,0.3784,0.4538,0.4602,0.4539,0.4416,0.4402,0.4129,0.3532,0.3495,0.3406,0.3206,0.0,0.0,0.0,0.0,0.0,0.0,0.0,0.0,0.0,0.0,0.0,0.0,0.0,0.0,0.0,0.0,0.0,0.0,0.0,0.0,0.0,0.0,0.0,0.0,0.0,0.0,0.0,0.0,0.0,0.6873,0.7243,0.0,0.0,0.0,0.0,0.6933,0.7249,0.7453,0.7444,0.8007,0.8317,0.8305,0.8546,0.8646,0.862,0.7945,0.7599,0.753,0.6195,0.5542,0.5487,0.4869,0.4598,0.4598,0.4653,0.5027,0.5729,0.7483,0.717,0.5593,0.5568,0.4741,0.3653,0.4412,0.4311,0.3918,0.4698,0.4566,0.4189,0.4881,0.5495,0.5942,0.5915,0.5766,0.0,0.0,0.5339,0.4835,0.4959,0.4486,0.3964,0.3971,0.3971,0.3933,0.3812,0.3775,0.3683,0.0,0.3175,0.3047,0.2885,0.0,0.2879,0.2848,0.2876,0.2886,0.2886,0.3278,0.3491,0.3311,0.3691,0.4134,0.457,0.4602,0.4539,0.4416,0.4402,0.4129,0.3532,0.3495,0.3499,0.3486,0.321,0.0,0.0,0.0,0.0,0.0,0.0,0.0,0.0,0.0,0.0,0.0,0.0,0.0,0.0,0.0,0.0,0.0,0.0,0.0,0.0,0.0,0.0,0.0,0.0,0.0,0.0,0.0,0.0,0.7559,0.8036,0.0,0.7632,0.7782,0.7889,0.7889,0.8013,0.8154,0.8317,0.8537,0.8554,0.8273,0.8373,0.8196,0.7721,0.7915,0.7669,0.6993,0.7417,0.7385,0.6929,0.7149,0.7257,0.7257,0.7257,0.7144,0.6977,0.7676,0.729,0.6268,0.6171,0.5554,0.4771,0.5523,0.5351,0.488,0.5708,0.5742,0.5423,0.552,0.5697,0.5806,0.5404,0.5234,0.5122,0.481,0.4513,0.4431,0.4951,0.4557,0.4239,0.5189,0.5042,0.4833,0.5245,0.517,0.4992,0.4875,0.4069,0.3337,0.3067,0.3108,0.324,0.345,0.3547,0.3755,0.4127,0.4138,0.4199,0.444,0.4416,0.457,0.5017,0.4852,0.4635,0.4416,0.4241,0.3948,0.3519,0.3495,0.3495,0.3495,0.323,0.2937,0.0,0.0,0.0,0.0,0.0,0.0,0.0,0.0,0.0,0.0,0.0,0.0,0.0,0.0,0.0,0.0,0.0,0.0,0.0,0.0,0.0,0.0,0.0,0.0,0.0,0.0,0.8092,0.8192,0.8744,0.8911,0.8392,0.8644,0.8844,0.8844,0.8844,0.8925,0.9092,0.9105,0.8971,0.8723,0.8701,0.8468,0.7977,0.8212,0.7942,0.7138,0.788,0.7913,0.7343,0.783,0.8049,0.8049,0.8049,0.791,0.7696,0.7696,0.7563,0.7246,0.6418,0.5812,0.5417,0.5917,0.5944,0.5782,0.6103,0.6105,0.5937,0.5749,0.5859,0.5991,0.5594,0.5467,0.5391,0.4987,0.4705,0.4624,0.5102,0.4701,0.4422,0.5382,0.5255,0.5013,0.5428,0.5551,0.5553,0.5499,0.4793,0.4109,0.387,0.3909,0.3987,0.3996,0.4245,0.4487,0.4636,0.4681,0.4796,0.5062,0.4935,0.496,0.5277,0.4988,0.4688,0.4422,0.4141,0.3853,0.3519,0.3495,0.3495,0.3495,0.323,0.299,0.2765,0.0,0.0,0.0,0.0,0.0,0.0,0.0,0.0,0.0,0.0,0.0,0.0,0.0,0.0,0.0,0.0,0.0,0.0,0.0,0.0,0.0,0.0,0.0,0.7558,0.8047,0.8543,0.8798,0.9345,0.9579,0.9257,0.9526,0.9722,0.9715,0.9715,0.9715,0.9715,0.9715,0.9715,0.9699,0.9699,0.9699,0.9699,0.9009,0.852,0.8235,0.7525,0.701,0.668,0.668,0.6674,0.6669,0.6669,0.7074,0.7696,0.7696,0.8103,0.8533,0.6406,0.5569,0.5538,0.5515,0.5955,0.6475,0.576,0.5538,0.5538,0.5515,0.5982,0.6561,0.6534,0.6534,0.6534,0.6534,0.6009,0.5487,0.5487,0.5003,0.4519,0.4546,0.457,0.4505,0.431,0.4871,0.5353,0.5188,0.5282,0.5366,0.5318,0.5313,0.5108,0.4543,0.4957,0.0,0.4383,0.49,0.529,0.515,0.5234,0.5306,0.5293,0.4988,0.4688,0.4422,0.4141,0.3853,0.3519,0.3495,0.3495,0.3495,0.323,0.3102,0.3102,0.0,0.0,0.0,0.0,0.0,0.0,0.0,0.0,0.0,0.0,0.0,0.0,0.0,0.0,0.0,0.0,0.0,0.0,0.0,0.0,0.0,0.0,0.8464,0.8194,0.8844,0.938,0.9432,0.9773,0.988,0.9593,0.9826,0.9913,0.9729,0.9715,0.9715,0.9715,0.9715,0.978,0.9993,1.0,1.0,1.0,0.9783,0.9551,0.9294,0.9093,0.8799,0.8475,0.8475,0.8369,0.8182,0.8182,0.7996,0.7696,0.7696,0.7503,0.7208,0.7122,0.6772,0.6231,0.5706,0.5624,0.5846,0.6177,0.6312,0.6199,0.5678,0.5624,0.5706,0.5226,0.5089,0.5089,0.5089,0.4924,0.4893,0.5378,0.5003,0.4763,0.5773,0.6018,0.6,0.595,0.679,0.7369,0.6814,0.6966,0.6839,0.5774,0.5431,0.5394,0.5653,0.5852,0.0,0.6199,0.6247,0.6149,0.592,0.572,0.5504,0.5313,0.4988,0.4688,0.4422,0.4141,0.3853,0.3519,0.3495,0.3495,0.3495,0.323,0.3102,0.0,0.0,0.0,0.0,0.0,0.0,0.0,0.0,0.0,0.0,0.0,0.0,0.0,0.0,0.0,0.0,0.0,0.0,0.0,0.0,0.0,0.0,0.8811,0.9292,0.9132,0.9546,0.9866,0.9866,1.012,1.0234,1.0097,1.0238,1.0234,1.0097,1.0084,1.0084,1.0084,1.0084,1.0157,1.0294,1.0301,1.0301,1.0301,1.0301,1.0154,0.9866,0.9866,0.9713,0.9391,0.9264,0.9118,0.0,0.8858,0.8566,0.8156,0.8156,0.791,0.0,0.0,0.0,0.0,0.0,0.576,0.5569,0.5982,0.6145,0.6064,0.5651,0.5515,0.5487,0.5414,0.5171,0.4921,0.4921,0.4921,0.4948,0.5054,0.4787,0.4791,0.5873,0.6145,0.6231,0.6534,0.7395,0.7972,0.7552,0.7804,0.0,0.6789,0.6406,0.6225,0.6196,0.6392,0.6562,0.6647,0.6625,0.6546,0.6391,0.609,0.5796,0.5484,0.519,0.0,0.0,0.0,0.3853,0.3519,0.3495,0.0,0.0,0.0,0.0,0.0,0.0,0.0,0.0,0.3269,0.3145,0.0,0.0,0.0,0.0,0.0,0.0,0.0,0.0,0.0,0.0,0.0,0.0,0.0,0.0,0.0,0.0,0.9446,1.0167,1.0167,1.0194,1.0207,1.0174,1.0432,1.0593,1.0593,1.062,1.064,1.064,1.0673,1.0687,1.0687,0.0,0.0,0.0,0.0,1.0593,1.0593,1.0593,1.0459,1.0167,1.0167,1.0013,0.9726,0.9431,0.9291,0.9244,0.8951,0.8858,0.8851,0.8824,0.8804,0.8672,0.7262,0.6669,0.6588,0.6588,0.6177,0.5624,0.5624,0.0,0.0,0.5624,0.5569,0.5624,0.6285,0.6009,0.5515,0.5515,0.5569,0.5487,0.4897,0.4736,0.4897,0.5487,0.5678,0.5896,0.6475,0.7235,0.7803,0.7723,0.8093,0.833,0.8005,0.7695,0.7235,0.6413,0.6683,0.6831,0.6349,0.6494,0.6627,0.6613,0.0,0.0,0.5728,0.5478,0.5184,0.4827,0.4322,0.3913,0.3612,0.3572,0.3552,0.3552,0.3526,0.3495,0.3506,0.3741,0.3881,0.3892,0.342,0.3207,0.0,0.0,0.0,0.0,0.0,0.0,0.0,0.0,0.0,0.0,0.0,0.0,0.0,0.0,0.0,0.9392,1.005,1.0506,1.0506,1.0675,1.0742,1.0533,1.0559,1.0593,1.0593,1.0807,1.0909,1.0909,1.1129,1.1263,1.1263,1.1035,0.0,1.0909,1.0713,1.0593,1.0593,1.0593,1.0566,1.0506,0.0,0.0,1.0027,0.9943,0.982,0.9579,0.9257,0.9131,0.9111,0.8878,0.8804,0.8725,0.783,0.7128,0.6588,0.6588,0.6507,0.6394,0.6394,0.6394,0.6394,0.6394,0.5982,0.5515,0.5678,0.5624,0.0,0.5515,0.5928,0.6367,0.6236,0.6209,0.6236,0.6367,0.6853,0.7149,0.6696,0.7643,0.8401,0.7803,0.8251,0.8631,0.8343,0.7852,0.7346,0.6919,0.6937,0.6958,0.6852,0.689,0.6847,0.6613,0.6559,0.6293,0.5741,0.5648,0.5388,0.4841,0.4496,0.4295,0.4222,0.402,0.3899,0.3899,0.3636,0.3495,0.3495,0.3559,0.3713,0.3979,0.3819,0.3889,0.0,0.0,0.0,0.0,0.0,0.0,0.0,0.0,0.0,0.0,0.0,0.7748,0.0,0.0,0.8823,0.95,0.998,1.0249,1.0249,1.0809,1.1049,1.064,1.072,1.0807,1.0807,1.1042,1.1209,1.1209,1.1309,1.1389,1.1389,1.1255,1.1142,1.0995,1.0888,1.074,1.0593,1.0593,1.0593,1.0593,1.0593,1.0512,1.0334,1.018,1.004,0.9886,0.9593,0.9459,0.9439,0.9118,0.8911,0.8752,0.8401,0.7803,0.7101,0.675,0.6588,0.6561,0.6177,0.6285,0.6534,0.6172,0.6064,0.6118,0.6497,0.66,0.66,0.66,0.688,0.7074,0.6696,0.6588,0.6696,0.7074,0.7423,0.7696,0.7696,0.8289,0.8699,0.8321,0.8533,0.8711,0.8449,0.8147,0.7792,0.7315,0.71,0.7,0.7,0.7,0.6946,0.682,0.6807,0.6567,0.6003,0.5682,0.5304,0.4834,0.4668,0.4542,0.4409,0.4275,0.4201,0.4201,0.4029,0.4044,0.4249,0.4044,0.4204,0.4701,0.4321,0.4247,0.0,0.0,0.0,0.0,0.0,0.0,0.0,0.0,0.6082,0.6456,0.6974,0.7624,0.8438,0.8296,0.8342,0.917,0.9679,0.9968,0.9916,1.0836,1.1296,1.0747,1.0902,1.1076,1.1076,1.1343,1.151,1.151,1.1563,1.1562,1.1562,1.1543,1.1376,1.1089,1.1022,1.0888,1.0593,1.0593,1.0593,1.0593,1.0593,1.0593,1.0586,1.0314,1.02,1.0187,0.9893,0.9733,0.9666,0.9397,0.9124,0.8891,0.8891,0.8479,0.783,0.7074,0.6804,0.6718,0.5982,0.6091,0.6529,0.6086,0.6226,0.675,0.7477,0.7696,0.7696,0.7696,0.7803,0.7777,0.7182,0.702,0.7182,0.7777,0.791,0.8076,0.8672,0.8804,0.8804,0.8804,0.8804,0.8731,0.8523,0.8435,0.8194,0.76,0.7261,0.7066,0.7006,0.7,0.7,0.7,0.7,0.6787,0.6243,0.5652,0.5193,0.4922,0.4894,0.4802,0.4583,0.4509,0.4476,0.4476,0.4436,0.4592,0.4993,0.4592,0.4752,0.5385,0.4849,0.4576,0.3925,0.3818,0.3797,0.4045,0.4091,0.4397,0.0,0.0,0.6039,0.6852,0.7374,0.77,0.779,0.811,0.8409,0.8504,0.9548,1.0248,0.9945,1.1007,1.1638,1.1015,1.1202,1.1342,1.1342,1.1643,1.1859,1.1859,1.2058,1.2204,1.2204,1.1957,1.1683,1.139,1.1129,1.0888,1.0593,1.0593,1.0593,1.0593,1.0593,1.0593,1.0593,1.0559,1.0546,1.0526,1.02,0.992,0.9708,0.9646,0.9459,0.9164,0.9164,0.895,0.8593,0.7857,0.7584,0.7477,0.6723,0.6534,0.6696,0.7262,0.7074,0.675,0.7477,0.7696,0.7696,0.7696,0.8182,0.8646,0.856,0.8566,0.856,0.8646,0.8672,0.8699,0.8778,0.8804,0.8804,0.8804,0.8804,0.8798,0.8764,0.8569,0.8194,0.76,0.7457,0.7343,0.7033,0.7,0.7,0.7,0.7,0.6787,0.6243,0.5652,0.528,0.5246,0.5246,0.5233,0.5199,0.4915,0.4761,0.4761,0.4522,0.4592,0.4993,0.4592,0.4746,0.5399,0.5323,0.5224,0.4201,0.4232,0.0,0.0,0.4477,0.4759,0.5709,0.6049,0.6384,0.7167,0.7618,0.7937,0.8062,0.7862,0.7708,0.0,0.893,0.9712,0.9578,1.0917,1.1812,1.153,1.1456,1.1389,1.1389,1.1697,1.1973,1.2104,1.2231,1.2305,1.2305,1.2184,1.1911,1.1409,1.1309,1.1022,1.0593,1.0593,1.0593,1.0593,1.0593,1.0593,1.0593,1.0593,1.0593,1.0586,1.0459,1.0207,0.9933,0.9933,0.976,0.9479,0.9277,0.9138,0.8984,0.8512,0.8348,0.8235,0.7509,0.7235,0.7208,0.7101,0.7155,0.7289,0.7616,0.7996,0.8348,0.8348,0.856,0.8804,0.8804,0.8804,0.8804,0.8804,0.8804,0.8804,0.8804,0.8804,0.8804,0.8804,0.8804,0.8804,0.8804,0.8704,0.8484,0.808,0.7712,0.7383,0.704,0.7,0.7,0.7,0.6847,0.6607,0.623,0.5789,0.5458,0.5306,0.5293,0.5293,0.5293,0.5397,0.5327,0.5097,0.5215,0.5479,0.5864,0.5471,0.5531,0.6036,0.6036,0.5881,0.4511,0.0,0.0,0.4792,0.4928,0.5165,0.5717,0.6002,0.6334,0.6817,0.7159,0.7408,0.759,0.7128,0.6925,0.7429,0.8463,0.9338,0.9658,1.0985,1.1873,1.1757,1.1483,1.1309,1.1309,1.1577,1.1864,1.2164,1.2184,1.2218,1.2298,1.2305,1.2071,1.1563,1.1435,1.1182,1.0713,1.0633,1.0593,1.0593,1.0593,1.0593,1.0593,1.0593,1.0593,1.0593,1.0593,1.0472,1.0241,1.0241,1.0067,0.978,0.9537,0.9404,0.9297,0.9011,0.8878,0.8725,0.8182,0.7996,0.791,0.7369,0.7563,0.7996,0.7996,0.8374,0.8804,0.8804,0.8804,0.8804,0.8804,0.8804,0.8804,0.8804,0.8804,0.8804,0.8804,0.8804,0.8804,0.8804,0.8804,0.8804,0.8804,0.8804,0.8711,0.8442,0.8027,0.7598,0.7194,0.7053,0.7,0.7,0.676,0.6492,0.6216,0.5903,0.5591,0.5313,0.5293,0.5293,0.5293,0.5585,0.5648,0.5467,0.5648,0.6037,0.6669,0.6152,0.6114,0.6503,0.6616,0.6397,0.0,0.0,0.4758,0.5015,0.5233,0.5382,0.5415,0.5535,0.56,0.5486,0.5576,0.5686,0.569,0.5775,0.6208,0.7318,0.8414,0.9484,1.0599,1.1416,1.1799,1.1435,1.1182,1.1009,0.0,1.1269,1.1563,1.1899,1.1919,1.204,1.2285,1.2305,1.2164,1.1899,1.1577,1.1283,1.0982,1.0734,1.0593,1.0593,1.0593,1.0593,1.0593,1.0593,1.0593,1.0593,1.0593,1.0586,1.0579,1.0579,1.0405,1.01,1.0094,0.992,0.9633,0.9311,0.9024,0.8804,0.8778,0.8778,0.8752,0.8752,0.8752,0.8778,0.8778,0.8778,0.8804,0.8804,0.8804,0.8804,0.8804,0.8804,0.8804,0.8804,0.8804,0.8804,0.8804,0.8804,0.8804,0.8804,0.8804,0.8804,0.8804,0.8804,0.8711,0.8442,0.8382,0.8154,0.7551,0.7201,0.7,0.7,0.676,0.6492,0.6216,0.5903,0.5591,0.5313,0.5293,0.5293,0.5293,0.5309,0.5491,0.5867,0.5507,0.5898,0.708,0.629,0.6114,0.6503,0.6901,0.6661,0.0,0.0,0.519,0.5293,0.5471,0.563,0.5569,0.5552,0.5518,0.526,0.525,0.5257,0.5162,0.5829,0.6567,0.7133,0.876,1.0162,1.0711,1.1422,1.1792,1.1429,1.1169,0.0,0.0,0.0,0.0,1.1866,1.1906,1.2033,1.2285,1.2305,1.2171,1.1913,1.1583,1.1283,1.0995,1.0734,1.0593,1.0593,1.0593,1.0593,1.0593,1.0593,1.0593,1.0593,1.0593,1.0593,1.0593,1.0593,1.0533,1.0419,1.0194,0.994,0.9646,0.9324,0.9031,0.8804,0.8804,0.8804,0.8804,0.8804,0.8804,0.8804,0.8804,0.8804,0.8804,0.8804,0.8804,0.8804,0.8804,0.8804,0.8804,0.8804,0.8804,0.8804,0.8804,0.8804,0.8804,0.8804,0.8804,0.8804,0.8804,0.8804,0.8711,0.8442,0.8053,0.7718,0.7533,0.7208,0.7,0.7,0.6913,0.676,0.6486,0.6198,0.5896,0.5585,0.5407,0.5293,0.5293,0.5805,0.6037,0.5898,0.6021,0.629,0.6691,0.6427,0.6366,0.6518,0.7196,0.7211,0.4931,0.5214,0.5501,0.5576,0.5701,0.5776,0.5688,0.5586,0.5437,0.515,0.5059,0.4995,0.4908,0.5751,0.6602,0.7026,0.8498,0.9749,1.0204,1.09,1.1288,1.1067,1.1119,0.0,0.0,0.0,0.0,1.1866,1.1906,1.2033,1.2285,1.2305,1.2218,1.2067,1.1737,1.1443,1.1149,1.0894,1.0693,1.0593,1.0593,1.0593,1.0593,1.0593,1.0593,1.0593,1.0593,1.0593,1.0593,1.0593,1.0593,1.0573,1.0347,1.016,0.9976,0.9546,0.9279,0.9092,0.8878,0.8804,0.8804,0.8804,0.8804,0.8804,0.8804,0.8804,0.8804,0.8804,0.8804,0.8804,0.8804,0.8804,0.8804,0.8804,0.8804,0.8804,0.8804,0.8804,0.8804,0.8804,0.8804,0.8804,0.8804,0.8804,0.8744,0.8557,0.804,0.7611,0.7504,0.7208,0.7,0.7,0.7,0.688,0.6613,0.6439,0.629,0.6177,0.5708,0.5528,0.5716,0.6083,0.6229,0.6106,0.6229,0.6503,0.6933,0.6639,0.657,0.673,0.7397,0.7486,0.5317,0.5518,0.5681,0.5922,0.5922,0.581,0.5803,0.5607,0.5347,0.512,0.4975,0.4874,0.0,0.0,0.6317,0.7015,0.7778,0.8543,0.9265,0.9985,1.0419,0.0,0.0,0.0,0.0,0.0,0.0,1.1906,0.0,1.2033,1.2285,1.2305,1.2305,1.2305,1.206,1.173,1.1415,1.1142,1.0855,1.0613,1.06,1.0593,1.0593,1.0593,1.0593,1.0593,1.0593,1.0593,1.0593,1.0593,1.0593,1.0593,1.0593,1.0579,1.0499,0.9943,0.9699,0.9606,0.9031,0.8818,0.8804,0.8804,0.8804,0.8804,0.8804,0.8804,0.8804,0.8804,0.8804,0.8804,0.8804,0.8804,0.8804,0.8804,0.8804,0.8804,0.8804,0.8804,0.8804,0.8804,0.8804,0.8804,0.8804,0.8804,0.8804,0.8804,0.8298,0.7819,0.7551,0.7214,0.7,0.7042,0.7021,0.6914,0.6693,0.662,0.6711,0.6997,0.6244,0.5998,0.6508,0.6188,0.6168,0.6513,0.6168,0.6543,0.7666,0.6921,0.6755,0.7145,0.7553,0.7548,0.5375,0.5633,0.5899,0.5973,0.5963,0.5905,0.5827,0.5607,0.532,0.5026,0.4853,0.468,0.0,0.0,0.0,0.7491,0.863,0.0,1.005,1.046,0.0,0.0,0.0,1.1757,1.1757,1.1757,0.0,0.0,1.2027,1.2033,1.2285,1.2305,1.2305,1.2305,1.206,1.1866,1.1757,1.1249,1.0955,1.0914,1.07,1.0593,1.0593,1.0593,1.0593,1.0593,1.0593,1.0593,1.0593,1.0593,1.0593,1.0593,1.0593,1.0452,1.0214,1.006,0.9866,0.9633,0.9231,0.8958,0.8804,0.8804,0.8804,0.8804,0.8804,0.8804,0.8804,0.8804,0.8804,0.8804,0.8804,0.8804,0.8804,0.8804,0.8804,0.8804,0.8804,0.8804,0.8804,0.8804,0.8804,0.8804,0.8804,0.8804,0.8804,0.8804,0.8497,0.8156,0.7849,0.7326,0.7168,0.7614,0.728,0.7161,0.7526,0.6981,0.6801,0.7258,0.6895,0.6734,0.6876,0.7148,0.715,0.6803,0.7094,0.724,0.7261,0.7398,0.7526,0.7621,0.8032,0.8322,0.562,0.5888,0.6115,0.601,0.5942,0.5874,0.5657,0.5379,0.5081,0.4782,0.4679,0.0,0.0,0.0,0.0,0.0,0.0,0.0,0.9068,0.9702,1.0252,0.0,1.1465,0.0,1.2094,1.2094,1.2124,0.0,1.2151,1.2131,1.2291,1.2305,1.2305,1.2305,1.2144,1.2033,1.1906,1.141,1.1182,1.1182,1.0889,1.0787,1.0774,1.0646,1.0593,1.0593,0.0,1.0593,1.0593,1.0593,1.0593,1.0593,1.0593,1.0486,1.0294,1.0167,1.0013,0.9813,0.9357,0.9104,0.8951,0.8844,0.8804,0.8804,0.8804,0.8804,0.8804,0.8804,0.8804,0.8804,0.8804,0.8804,0.8804,0.8804,0.8804,0.8804,0.8804,0.8804,0.8804,0.8804,0.8804,0.8804,0.8804,0.8804,0.8804,0.8804,0.8564,0.827,0.7945,0.7493,0.7403,0.7844,0.7593,0.753,0.787,0.7455,0.7399,0.7941,0.746,0.7275,0.7523,0.787,0.77,0.6917,0.745,0.7622,0.7373,0.7663,0.7881,0.8067,0.8483,0.8698,0.5915,0.6142,0.6262,0.6067,0.5898,0.5701,0.546,0.5101,0.4782,0.4545,0.0,0.4344,0.4043,0.0,0.5429,0.508,0.0,0.6713,0.7526,0.8589,0.9637,1.0671,1.1694,1.2305,1.2305,1.2305,1.2305,1.2305,1.2305,1.2305,1.2305,1.2305,1.2305,1.2305,1.2305,1.2178,1.1966,1.163,1.1483,1.1449,1.1149,1.0995,1.0982,1.0727,1.0593,1.0593,0.0,0.0,1.0593,1.0593,1.0593,1.0593,1.0593,1.0593,1.0559,1.0274,1.0174,1.0094,0.9477,0.9271,0.9217,0.8891,0.8804,0.8804,0.8804,0.8804,0.8804,0.8804,0.8804,0.8804,0.8804,0.8804,0.8804,0.8804,0.8804,0.8804,0.8804,0.8804,0.8804,0.8804,0.8804,0.8804,0.8804,0.8804,0.8804,0.8804,0.8597,0.8323,0.8005,0.7751,0.7706,0.797,0.7995,0.8036,0.8098,0.8036,0.8234,0.8777,0.8087,0.7881,0.835,0.8496,0.8112,0.7165,0.774,0.7988,0.787,0.7972,0.8227,0.8571,0.8916,0.8926,0.5946,0.6142,0.6262,0.6067,0.5827,0.5579,0.5436,0.4965,0.0,0.0,0.0,0.4043,0.3863,0.4892,0.0,0.5643,0.0,0.0,0.0,0.0,0.9564,0.0,0.0,0.0,0.0,0.0,0.0,0.0,0.0,1.2305,1.2305,1.2305,1.2305,1.2305,1.2305,1.2278,1.2225,1.1937,1.1826,1.1819,1.1249,1.0995,1.0982,1.0727,1.0593,1.0593,1.0593,0.0,1.0593,1.0593,1.0593,1.0593,1.0593,1.0593,1.0586,1.0533,1.0512,1.0432,0.9813,0.9606,0.9519,0.8985,0.8804,0.8804,0.8804,0.8804,0.8804,0.8804,0.8804,0.8804,0.8804,0.8804,0.8804,0.8804,0.8804,0.8804,0.8804,0.8804,0.8804,0.8804,0.8804,0.8804,0.8804,0.8804,0.8804,0.8804,0.8764,0.8624,0.8337,0.8236,0.8272,0.8533,0.8561,0.8736,0.9179,0.8817,0.8797,0.9319,0.9209,0.9173,0.9272,0.9357,0.9094,0.8485,0.9011,0.9112,0.8772,0.9112,0.9325,0.9396,0.9474,0.9659,0.5949,0.6142,0.6242,0.5969,0.5749,0.5508,0.5203,0.0,0.0,0.0,0.0,0.3927,0.3724,0.0,0.0,0.0,0.0,0.0,0.0,0.0,0.0,0.0,0.0,0.0,0.0,0.0,0.0,0.0,0.0,1.2305,1.2305,1.2305,1.2305,1.2305,1.2305,1.2305,1.2305,1.2164,1.2091,1.2091,1.1657,1.1484,1.1436,1.1022,1.0814,1.0807,1.066,0.0,1.0593,1.0593,1.0593,1.0593,1.0593,1.0593,1.0593,1.0593,1.0593,1.0506,0.9916,0.9715,0.9615,0.8998,0.8804,0.8804,0.8804,0.8804,0.8804,0.8804,0.8804,0.8804,0.8804,0.8804,0.8804,0.8804,0.8804,0.8804,0.8804,0.8804,0.8804,0.8804,0.9087,0.9309,0.9309,0.9614,0.984,0.984,0.984,0.9745,0.9471,0.9659,0.9581,0.8971,0.9227,0.945,0.9496,0.9259,0.9219,0.9478,0.9498,0.9498,0.9498,0.9801,0.9592,0.8809,0.9336,0.9406,0.9004,0.9406,0.9592,0.9602,0.9845,0.9961,0.5942,0.6142,0.6224,0.5878,0.5671,0.543,0.5013,0.4633,0.0,0.0,0.3944,0.3853,0.3645,0.0,0.0,0.0,0.0,0.0,0.0,0.0,0.0,0.0,0.0,0.0,0.0,0.0,0.0,0.0,0.0,0.0,1.2305,1.2305,1.2305,1.2305,1.2305,1.2305,1.2305,1.2305,1.2271,1.2204,1.1917,1.1779,1.1698,1.1176,1.0902,1.0889,1.0687,0.0,0.0,1.0593,1.0593,1.0593,1.0593,1.0593,1.0593,1.0593,1.0593,1.0512,0.996,0.9733,0.9599,0.9072,0.8858,0.8804,0.8804,0.8804,0.8804,0.8804,0.8804,0.8804,0.8804,0.8804,0.8804,0.8804,0.8804,0.8804,0.8804,0.8804,0.8804,0.8804,0.9335,0.9788,0.9788,1.0364,1.0788,1.0788,1.0788,1.0714,1.0507,1.0972,1.0874,0.9678,0.9984,1.0109,0.9713,0.9677,0.9677,0.9677,0.9677,0.9677,0.9677,1.0079,0.9925,0.9132,0.9543,0.9591,0.9277,0.9591,0.9757,0.9757,1.0127,1.0098,0.5915,0.6142,0.6224,0.5878,0.5624,0.5334,0.4989,0.0,0.0,0.4001,0.3805,0.3634,0.3607,0.3721,0.0,0.0,0.0,0.0,0.0,0.0,0.0,0.0,0.0,0.0,0.0,0.0,0.0,0.0,0.0,0.0,1.2305,1.2305,1.2305,1.2305,1.2305,1.2305,1.2305,1.2305,1.2171,1.194,1.1603,1.1329,1.1062,1.0774,1.0633,1.0633,1.06,0.0,0.0,1.0593,1.0593,1.0593,1.0593,1.0593,1.0593,1.0593,1.0593,1.0546,1.0187,0.9907,0.9633,0.9277,0.8998,0.8804,0.8804,0.8804,0.8804,0.8804,0.8804,0.8804,0.8804,0.8804,0.8804,0.8804,0.8804,0.8804,0.8804,0.8804,0.8804,0.8804,0.9335,0.9788,0.9788,1.0364,1.0788,1.0788,1.0788,1.0805,1.0772,1.1339,1.1549,1.1057,1.0913,1.0651,1.0254,1.0225,1.0225,1.0225,1.0225,1.0225,1.0225,1.0283,1.0264,1.0167,1.0205,1.0224,1.0185,1.0224,1.0244,1.0244,1.0283,1.0283,0.5596,0.5803,0.5935,0.5725,0.5447,0.5169,0.4935,0.0,0.3994,0.3994,0.3785,0.3604,0.3604,0.4013,0.457,0.0,0.5693,0.6583,0.0,0.0,0.0,0.0,0.0,0.0,0.0,0.0,0.0,0.0,0.0,0.0,1.2305,1.2305,1.2305,1.2305,1.2305,1.2305,1.2305,1.2305,1.2158,1.1906,1.175,1.1536,1.1243,1.0955,1.0854,1.0847,1.0667,0.0,0.0,1.0593,1.0593,1.0593,1.0593,1.0593,1.0593,1.0593,1.0593,1.0546,1.0221,0.9927,0.9633,0.9311,0.9018,0.8804,0.8804,0.8804,0.8804,0.8804,0.8804,0.8804,0.8804,0.8804,0.8804,0.8804,0.8804,0.8804,0.8804,0.8804,0.891,0.9309,0.9943,1.0542,1.0939,1.1584,1.2049,1.2049,1.2049,1.2049,1.2049,1.2304,1.2291,1.1851,1.1506,1.1144,1.0693,1.043,1.0303,1.0303,1.0303,1.0303,1.0303,1.0303,1.0303,1.0303,1.0303,1.0303,1.0303,1.0303,1.0303,1.0303,1.0303,1.0303,0.5371,0.5579,0.5705,0.5559,0.5325,0.5036,0.0,0.0,0.3984,0.3937,0.3754,0.3644,0.3814,0.4261,0.4927,0.5834,0.6253,0.6998,0.853,0.0,0.0,0.0,0.0,0.0,0.0,0.0,0.0,0.0,0.0,0.0,0.0,1.2305,1.2305,1.2305,1.2305,1.2305,1.2305,1.2305,1.2111,1.1737,1.1737,1.1536,1.1162,1.0955,1.0868,1.0888,0.0,0.0,0.0,1.0593,1.0593,1.0593,1.0593,1.0593,1.0593,1.0593,1.0593,1.0566,1.0321,1.006,0.976,0.9437,0.9144,0.8904,0.8904,0.8878,0.8804,0.8804,0.8804,0.8804,0.8804,0.8804,0.8804,0.8804,0.8804,0.8857,0.9061,0.908,0.9283,0.9969,1.0644,1.1241,1.1715,1.2403,1.2905,1.2905,1.2905,1.2905,1.2905,1.2905,1.2764,1.2428,1.2021,1.1545,1.0957,1.0518,1.0303,1.0303,1.0303,1.0303,1.0303,1.0303,1.0303,1.0303,1.0303,1.0303,1.0303,1.0303,1.0303,1.0303,1.0303,1.0303,0.5313,0.5508,0.5555,0.5436,0.5247,0.4982,0.0,0.4236,0.3954,0.3826,0.3703,0.3751,0.4303,0.4391,0.4653,0.5382,0.6401,0.7235,0.7653,0.0,0.0,0.0,0.0,0.0,0.0,0.0,0.0,0.0,0.0,0.0,0.0,1.2305,1.2305,1.2305,1.2305,1.2305,1.2305,1.2305,1.2011,1.1395,1.1395,1.1129,1.06,1.06,1.0593,0.0,0.0,0.0,0.0,1.0593,1.0593,1.0593,1.0593,1.0593,1.0593,1.0593,1.0593,1.0593,1.0586,1.0392,1.006,0.9773,0.9479,0.9211,0.9211,0.9004,0.8804,0.8804,0.8804,0.8804,0.8804,0.8804,0.8804,0.8804,0.8804,0.8982,0.964,0.9788,0.9994,1.0661,1.1341,1.1789,1.1789,1.2403,1.2905,1.2905,1.2905,1.2905,1.2905,1.2905,1.2905,1.2895,1.2457,1.1843,1.0966,1.0518,1.0303,1.0303,1.0303,1.0303,1.0303,1.0303,1.0303,1.0303,1.0303,1.0303,1.0303,1.0303,1.0303,1.0303,1.0303,1.0303,0.4867,0.489,0.4938,0.4815,0.474,0.4613,0.4345,0.4136,0.395,0.3822,0.3703,0.3774,0.4303,0.4739,0.5363,0.6421,0.7187,0.0,0.0,0.0,0.0,0.0,0.0,0.0,0.0,0.0,0.0,0.0,0.0,0.0,0.0,1.2305,1.2305,1.2305,1.2305,1.2305,1.2305,1.2305,1.2004,1.1389,1.1389,1.1122,1.0593,1.0593,0.0,0.0,0.0,0.0,0.0,1.0593,1.0593,1.0593,1.0593,1.0593,1.0593,1.0593,1.0593,1.0593,1.0593,1.0399,1.01,1.0007,0.961,0.9251,0.9479,0.9198,0.8804,0.8804,0.8804,0.8804,0.8804,0.8804,0.891,0.9387,0.9491,0.9666,1.0338,1.0491,1.0686,1.1366,1.1665,1.1972,1.2452,1.2749,1.2905,1.2905,1.2905,1.2905,1.2905,1.2905,1.2905,1.2905,1.249,1.2096,1.1814,1.1133,1.0713,1.0713,1.0439,1.0303,1.0303,1.0303,1.0303,1.0303,1.0303,1.0303,1.0303,1.0303,1.0303,1.0303,1.0303,1.0303,0.0,0.445,0.4501,0.4406,0.4382,0.4328,0.4095,0.3977,0.389,0.3741,0.3665,0.384,0.4609,0.5043,0.5684,0.6875,0.7542,0.0,0.0,0.0,0.0,0.0,0.0,0.0,0.0,0.0,0.0,0.0,0.0,0.0,0.0,1.2305,1.2251,1.2144,1.2245,1.2305,1.2305,1.2191,1.1897,1.1389,1.1316,1.1015,1.0593,1.0593,0.0,0.0,0.0,0.0,0.0,1.0593,1.0593,1.0593,1.0593,1.0593,1.0593,1.0593,1.0593,1.0593,1.0593,1.0472,1.0267,1.0154,0.9764,0.9417,0.9626,0.9352,0.8918,0.8838,0.8804,0.8857,0.9106,0.9185,0.9335,1.0012,1.0192,1.0364,1.104,1.1191,1.1366,1.208,1.2212,1.2369,1.2822,1.2905,1.2905,1.2905,1.2905,1.2905,1.2905,1.2905,1.2905,1.2905,1.2637,1.2457,1.2457,1.166,1.1152,1.1152,1.0929,1.0782,1.0782,1.0625,1.0518,1.0518,1.0381,1.0303,1.0303,1.0303,1.0303,1.0303,1.0303,1.0303,0.0,0.4232,0.0,0.0,0.4157,0.4112,0.3843,0.3785,0.0,0.3631,0.3622,0.3994,0.5133,0.5371,0.5771,0.6916,0.7572,0.0,0.0,0.0,0.0,0.0,0.0,0.0,0.0,0.0,0.0,0.0,0.0,0.0,0.0,1.2285,1.2144,1.1913,1.2111,1.2238,1.2238,1.1971,1.169,1.1362,1.1122,1.0874,1.0593,1.0593,0.0,0.0,0.0,0.0,0.0,1.0593,1.0593,1.0593,1.0593,1.0593,1.0593,1.0593,1.0656,1.0688,1.0688,1.0713,1.0721,1.034,1.0091,0.9874,0.9755,0.9467,0.9158,0.8891,0.8851,0.9008,0.964,0.984,1.0038,1.0712,1.0864,1.1065,1.174,1.1888,1.208,1.2774,1.2905,1.2905,1.2905,1.2905,1.2905,1.2905,1.2905,1.2905,1.2905,1.2905,1.2905,1.2905,1.2905,1.2905,1.2905,1.2122,1.1633,1.1633,1.1626,1.1606,1.1606,1.1172,1.0937,1.0908,1.0498,1.0303,1.0303,1.0322,1.0322,1.0303,1.0322,1.0322,0.5223,0.0,0.3873,0.3765,0.3819,0.3849,0.0,0.3737,0.3751,0.3631,0.0,0.4503,0.5435,0.5989,0.6693,0.788,0.0,0.0,0.0,0.0,0.0,0.0,0.0,0.0,0.0,0.0,0.0,0.0,0.0,0.0,0.0,1.2091,1.198,1.1906,1.1717,1.1595,1.1595,1.1563,1.1383,1.1096,1.1022,1.0874,1.0593,1.0593,0.0,0.0,0.0,0.0,1.0593,1.0593,1.0593,1.0593,1.0593,1.0593,1.0593,1.0593,1.0989,1.1531,1.1531,1.1934,1.2325,1.1694,1.1603,1.1511,1.0169,0.9513,0.9198,0.9131,0.934,0.9614,0.9762,1.0192,1.0737,1.1416,1.1566,1.1774,1.2486,1.2632,1.2691,1.2881,1.2905,1.2905,1.2905,1.2905,1.2905,1.2905,1.2905,1.2905,1.2905,1.2905,1.2905,1.2905,1.2905,1.2905,1.2905,1.2383,1.2047,1.2047,1.177,1.1606,1.1606,1.1477,1.1271,1.0918,1.0498,1.0303,1.0303,1.0668,1.0649,1.0322,1.0668,1.0649,0.5809,0.5197,0.4646,0.4572,0.4619,0.4642,0.4568,0.0,0.0,0.0,0.0,0.0,0.0,0.0,0.0,0.0,0.0,0.0,0.0,0.0,0.0,0.0,0.0,0.0,0.0,0.0,0.0,0.0,0.0,0.0,0.0,1.1824,1.1603,1.1504,1.1309,1.1289,1.1389,1.1289,1.1149,1.0995,1.0894,1.0747,1.0593,1.0593,1.0593,0.0,0.0,0.0,1.1132,1.1132,1.1132,1.1108,1.0744,1.0593,1.0656,1.1014,1.1437,1.1842,1.1996,1.223,1.2344,1.1942,1.1844,1.1747,1.091,1.0333,0.9817,0.9194,0.9383,0.9865,1.0192,1.0762,1.1441,1.2138,1.2295,1.2403,1.2798,1.2905,1.2905,1.2905,1.2905,1.2905,1.2905,1.2905,1.2905,1.2905,1.2905,1.2905,1.2905,1.2905,1.2905,1.2905,1.2905,1.2905,1.2905,1.2666,1.2529,1.2529,1.2328,1.2191,1.2191,1.1995,1.1562,1.0918,1.0684,1.0478,1.0303,1.0772,1.0867,1.063,1.0886,1.0867,0.6376,0.6219,0.5977,0.5756,0.5749,0.5774,0.5774,0.0,0.0,0.0,0.0,0.0,0.0,0.0,0.0,0.0,0.0,0.0,0.0,0.0,0.0,0.0,0.0,0.0,0.0,0.0,0.0,0.0,0.0,0.0,0.0,1.1516,1.1243,1.1002,1.0949,1.1042,1.1289,1.1049,1.0929,1.0922,1.0713,1.0593,1.0593,1.0593,1.0688,0.0,0.0,0.0,1.1981,1.1981,1.1981,1.1927,1.1233,1.0958,1.1052,1.1748,1.2074,1.2219,1.2683,1.2557,1.2164,1.2086,1.1873,1.1655,1.1709,1.1353,1.0686,0.9465,0.9588,1.0244,1.0813,1.1466,1.2129,1.274,1.2905,1.2905,1.2905,1.2905,1.2905,1.2905,1.2905,1.2905,1.2905,1.2905,1.2905,1.2905,1.2905,1.2905,1.2905,1.2905,1.2905,1.2905,1.2905,1.2905,1.2905,1.2905,1.2954,1.3041,1.2954,1.2954,1.3041,1.2508,1.1897,1.126,1.1181,1.0903,1.04,1.1028,1.1233,1.1,1.1169,1.114,0.7218,0.7439,0.7267,0.6005,0.5914,0.6131,0.6131,0.0,0.0,0.0,0.0,0.0,0.0,0.0,0.0,0.0,0.0,0.0,0.0,0.0,0.0,0.0,0.0,0.0,0.0,0.0,0.0,0.0,0.0,0.0,0.0,1.1216,1.1042,1.0995,1.0787,1.068,1.0727,1.068,1.066,1.066,1.0613,1.0593,1.0593,1.0593,1.0982,0.0,0.0,1.2205,1.2826,1.2826,1.2826,1.2787,1.2673,1.2642,1.2642,1.2765,1.3243,1.3927,1.4681,1.4659,1.4249,1.386,1.3461,1.2994,1.2059,1.1729,1.1491,1.0712,1.099,1.1516,1.1616,1.2187,1.2774,1.2881,1.2905,1.2905,1.2905,1.2905,1.2905,1.2905,1.2905,1.2905,1.2905,1.2905,1.2905,1.2905,1.2905,1.2905,1.2905,1.2905,1.2905,1.2905,1.2905,1.2905,1.2905,1.2905,1.3128,1.3637,1.3176,1.3128,1.3637,1.2722,1.2377,1.2755,1.2424,1.1778,1.0811,1.2244,1.228,1.1019,1.1872,1.1818,0.6975,0.7208,0.7324,0.6986,0.7134,0.7382,0.7382,0.7249,0.0,0.0,0.0,0.0,0.0,0.0,0.0,0.0,0.0,0.0,0.0,0.0,0.0,0.0,0.0,0.0,0.0,0.0,0.0,0.0,0.0,0.0,0.0,0.0,1.0787,1.0787,1.066,1.0593,1.0593,1.0593,1.0593,1.0593,1.0593,1.0593,1.0624,1.1045,1.1437,1.1865,0.0,1.3295,1.3644,1.3644,1.3644,1.3614,1.3161,1.3009,1.3039,1.3494,1.4019,1.4544,1.4655,1.4416,1.4023,1.3594,1.333,1.3075,1.2558,1.2393,1.2329,1.2024,1.1882,1.1789,1.1789,1.2344,1.2905,1.2905,1.2905,1.2905,1.2905,1.2905,1.2905,1.2905,1.2905,1.2905,1.2905,1.2905,1.2905,1.2905,1.2905,1.2905,1.2905,1.2905,1.2905,1.2905,1.2905,1.2905,1.2905,1.32,1.3372,1.331,1.3681,1.386,1.3792,1.3323,1.3244,1.3619,1.3096,1.2648,1.2264,1.3262,1.3369,1.268,1.2857,1.2672,0.6673,0.6854,0.7126,0.7666,0.0,0.8323,0.853,0.835,0.0,0.0,0.0,0.0,0.0,0.0,0.0,0.0,0.0,0.0,0.0,0.0,0.0,0.0,0.0,0.0,0.0,0.0,0.0,0.0,0.0,0.0,0.0,0.0,1.0593,1.0593,1.0593,1.0593,1.0593,1.0593,1.0593,1.0593,1.08,1.0863,1.0895,1.1717,1.2166,1.2443,1.3657,1.4302,1.4481,1.4481,1.4481,1.4421,1.3786,1.3545,1.3636,1.4234,1.4676,1.4873,1.4406,1.3977,1.3558,1.3164,1.2983,1.2905,1.2905,1.2905,1.2905,1.2905,1.2476,1.2055,1.2055,1.2476,1.2905,1.2905,1.2905,1.2905,1.2905,1.2905,1.2905,1.2905,1.2905,1.2905,1.2905,1.2905,1.2905,1.2905,1.2905,1.2905,1.2905,1.2905,1.2905,1.2905,1.3041,1.3176,1.332,1.3742,1.3802,1.3358,1.4177,1.456,1.4226,1.4097,1.4165,1.4445,1.395,1.3641,1.3567,1.418,1.4349,1.4086,1.3679,1.3413,0.69,0.6986,0.708,0.7444,0.7736,0.0,0.8964,0.8924,0.0,0.9446,0.0,0.0,0.0,0.0,0.0,0.0,0.0,0.0,0.0,0.0,0.0,0.0,0.0,0.0,0.0,0.0,0.0,0.0,0.0,0.0,0.0,0.0,0.0,1.0593,1.0593,1.0593,1.0593,1.0593,1.0593,1.0624,1.1351,1.171,1.1741,1.2543,1.3334,1.4025,1.4145,1.4628,1.5323,1.5323,1.5323,1.5323,1.5264,1.5235,1.5225,1.5294,1.5332,1.5312,1.4883,1.4453,1.3997,1.3603,1.3203,1.2905,1.2905,1.2905,1.2905,1.2905,1.2847,1.2822,1.2822,1.2847,1.2905,1.2905,1.2905,1.2905,1.2905,1.2905,1.2905,1.2905,1.2905,1.2905,1.2905,1.2905,1.2905,1.2905,1.2905,1.2905,1.2905,1.2905,1.2905,1.2905,1.3396,1.3956,1.4525,1.4606,1.4617,1.456,1.4652,1.4926,1.5454,1.4937,1.4903,1.5484,1.544,1.4973,1.4044,1.5084,1.5081,1.4106,1.405,1.3779,0.6472,0.6613,0.6867,0.737,0.7702,0.0,0.0,0.8998,0.9164,0.9599,0.9715,0.0,0.0,0.0,0.0,0.0,0.0,0.0,0.0,0.0,0.0,0.0,0.0,0.0,0.0,0.0,0.0,0.0,0.0,0.0,0.0,0.0,0.0,1.2058,1.16,1.16,1.2097,1.2097,1.2097,1.2097,1.1896,1.205,1.2573,1.3394,1.3906,1.4243,1.4726,1.5108,1.541,1.541,1.541,1.541,1.541,1.541,1.541,1.541,1.541,1.5312,1.4619,1.4241,1.3997,1.334,1.3008,1.2905,1.2905,1.2905,1.2905,1.2905,1.2905,1.2905,1.2905,1.2905,1.2905,1.2905,1.2905,1.2905,1.2905,1.2905,1.2905,1.2905,1.2905,1.2905,1.2905,1.2905,1.2905,1.2905,1.2905,1.2905,1.2905,1.2905,1.3041,1.342,1.4014,1.4606,1.5208,1.5253,1.5421,1.5788,1.581,1.5754,1.561,1.5387,1.5543,1.6151,1.5798,1.5592,1.5586,1.6005,1.599,1.5574,1.5237,1.4812,0.6357,0.6593,0.6981,0.7406,0.0,0.0,0.8805,0.9071,0.9351,0.986,0.0,0.0,0.0,0.0,0.0,0.0,0.0,0.0,0.0,0.0,0.0,0.0,0.0,0.0,0.0,0.0,0.0,0.0,0.0,0.0,0.0,0.0,0.0,0.0,1.2481,1.2451,1.2978,1.3009,1.313,1.3364,1.281,1.284,1.3403,1.4204,1.4569,1.4599,1.5167,1.541,1.541,1.541,1.541,1.541,1.541,1.5332,1.5215,1.5215,1.5127,1.4874,1.4153,1.3909,1.3792,1.3105,1.2905,1.2905,1.2905,1.2905,1.2905,1.2905,1.2905,1.2905,1.2905,1.2905,1.2905,1.2905,1.2905,1.2905,1.2905,1.2905,1.2905,1.2905,1.2905,1.2905,1.2905,1.3065,1.3176,1.3176,1.3176,1.3176,1.3176,1.3176,1.3491,1.4272,1.456,1.5017,1.582,1.5698,1.5864,1.6457,1.65,1.6303,1.5908,1.5886,1.6073,1.65,1.6095,1.6095,1.65,1.65,1.65,1.6488,1.5957,1.5512,0.6667,0.7035,0.7513,0.0,0.0,0.0,0.9151,0.9217,0.9471,1.0412,0.0,0.0,0.0,0.0,0.0,0.0,0.0,0.0,0.0,0.0,0.0,0.0,0.0,0.0,0.0,0.0,0.0,0.0,0.0,0.0,0.0,0.0,0.0,0.0,1.3009,1.3009,1.3009,1.3009,1.3425,1.4204,1.4204,1.4204,1.4243,1.505,1.541,1.541,1.541,1.541,1.541,1.541,1.5371,1.54,1.54,1.5146,1.4775,1.4775,1.4502,1.4046,1.3627,1.3506,1.3437,1.3042,1.2905,1.2905,1.2905,1.2905,1.2905,1.2905,1.2905,1.2905,1.2905,1.2905,1.2905,1.2905,1.2905,1.2905,1.2905,1.2905,1.2905,1.2905,1.2905,1.2905,1.2905,1.3396,1.3792,1.3792,1.3792,1.3815,1.3815,1.3815,1.4272,1.5465,1.5073,1.5197,1.6402,1.5964,1.5864,1.6457,1.65,1.65,1.65,1.65,1.65,1.65,1.65,1.65,1.65,1.65,1.65,1.6488,1.5957,1.5706,0.6439,0.6902,0.0,0.7513,0.0,0.0,0.0,0.9706,0.0,0.0,0.0,0.0,0.0,0.0,0.0,0.0,0.0,0.0,0.0,0.0,0.0,0.0,0.0,0.0,0.0,0.0,0.0,0.0,0.0,0.0,0.0,0.0,0.0,0.0,1.4145,1.4115,1.4688,1.4688,1.4815,1.505,1.505,1.505,1.505,1.5294,1.541,1.541,1.541,1.541,1.5391,1.5088,1.4785,1.4484,1.4484,1.4406,1.4299,1.4299,1.4221,1.4046,1.3627,1.3506,1.3437,1.3042,1.2905,1.2905,1.2905,1.2905,1.2905,1.2905,1.2905,1.2905,1.2905,1.2905,1.2905,1.2905,1.2905,1.2905,1.2905,1.2905,1.2905,1.2905,1.2905,1.2905,1.2905,1.3396,1.3792,1.3792,1.4167,1.4422,1.4422,1.4422,1.4732,1.5521,1.582,1.6107,1.6466,1.6337,1.6315,1.65,1.65,1.65,1.65,1.65,1.65,1.65,1.65,1.65,1.65,1.65,1.65,1.65,1.6337,1.607,0.6927,0.7444,0.0,0.0,0.0,0.0,0.0,0.0,0.0,0.0,0.0,0.0,0.0,0.0,0.0,0.0,0.0,0.0,0.0,0.0,0.0,0.0,0.0,0.0,0.0,0.0,0.0,0.0,0.0,0.0,0.0,0.0,0.0,0.0,1.4932,1.4903,1.541,1.541,1.541,1.541,1.541,1.541,1.541,1.541,1.541,1.54,1.5234,1.5156,1.5127,1.4707,1.4375,1.4104,1.4104,1.4007,1.386,1.386,1.3753,1.3603,1.335,1.3262,1.3213,1.2983,1.2905,1.2905,1.2905,1.2905,1.2905,1.2905,1.2905,1.2905,1.2905,1.2905,1.2905,1.2905,1.2905,1.2905,1.2905,1.2905,1.2968,1.3214,1.3055,1.3041,1.3515,1.3931,1.4236,1.448,1.4824,1.505,1.505,1.505,1.5276,1.5886,1.6281,1.65,1.65,1.65,1.65,1.65,1.65,1.65,1.65,1.65,1.65,1.65,1.65,1.65,1.65,1.65,1.65,1.65,1.65,1.6333,0.7719,0.0,0.0,0.0,0.0,0.0,0.0,0.0,0.0,0.0,0.0,0.0,0.0,0.0,0.0,0.0,0.0,0.0,0.0,0.0,0.0,0.0,0.0,0.0,0.0,0.0,0.0,0.0,0.0,0.0,0.0,0.0,0.0,1.5381,1.541,1.541,1.541,1.541,1.541,0.0,1.5371,1.5352,1.5352,1.5391,1.5391,1.5332,1.4912,1.4735,1.4639,1.4211,1.4026,1.3997,1.3997,1.3763,1.3447,1.3447,1.3213,1.2905,1.2905,1.2905,1.2905,1.2905,1.2905,1.2905,1.2905,1.2905,1.2905,1.2978,1.2968,1.2968,1.2968,1.3017,1.3041,1.3002,1.2954,1.2929,1.2978,1.2968,1.3152,1.3755,1.3443,1.3406,1.4502,1.4744,1.4994,1.5588,1.5632,1.561,1.5676,1.5632,1.582,1.6445,1.65,1.65,1.65,1.65,1.65,1.65,1.65,1.65,1.65,1.65,1.65,1.65,1.65,1.65,1.65,1.65,1.65,1.65,1.65,1.65,0.0,0.7466,0.0,0.0,0.0,0.0,0.0,0.0,0.0,0.0,0.0,0.0,0.0,0.0,0.0,0.0,0.0,0.0,0.0,0.0,0.0,0.0,0.0,0.0,0.0,0.0,0.0,0.0,0.0,0.0,0.0,0.0,0.0,1.5381,1.541,1.541,1.541,1.541,1.541,0.0,1.5078,1.4922,1.4932,1.5264,1.5234,1.4893,1.4436,1.4065,1.3769,1.3682,1.3447,1.3154,1.3154,1.3096,1.3042,1.3042,1.2959,1.2905,1.2905,1.2905,1.2905,1.2905,1.2905,1.2905,1.2905,1.2905,1.2992,1.3457,1.3624,1.3624,1.3624,1.3967,1.4201,1.3718,1.3238,1.3041,1.3505,1.3624,1.3779,1.4376,1.441,1.441,1.4663,1.5096,1.5622,1.6216,1.5908,1.5776,1.6238,1.5886,1.582,1.6445,1.65,1.65,1.65,1.65,1.65,1.65,1.65,1.65,1.65,1.65,1.65,1.65,1.65,1.65,1.65,1.65,1.65,1.65,1.65,1.65,0.0,0.0,0.0,0.0,0.0,0.0,0.0,0.0,0.0,0.0,0.0,0.0,0.0,0.0,0.0,0.0,0.0,0.0,0.0,0.0,0.0,0.0,0.0,0.0,0.0,0.0,0.0,0.0,0.0,0.0,0.0,1.541,1.541,1.541,1.5215,1.5107,1.5107,1.4902,1.4777,1.4767,1.458,1.4473,1.4482,1.4669,1.465,1.4453,1.3987,1.3685,1.3496,1.3291,1.3076,1.2905,1.2905,1.2905,1.2905,1.2905,1.2905,1.2905,1.2905,1.2905,1.2905,1.2905,1.2905,1.2905,1.2905,1.3104,1.3396,1.3708,1.4003,1.4236,1.4236,1.4468,1.4629,1.4306,1.399,1.3836,1.4154,1.4236,1.4422,1.5005,1.4903,1.488,1.5456,1.582,1.6139,1.6445,1.6238,1.6139,1.6457,1.6238,1.6139,1.6466,1.65,1.65,1.65,1.65,1.65,1.65,1.65,1.65,1.65,1.65,1.65,1.65,1.65,1.65,1.65,1.65,1.65,1.65,1.65,1.65,0.0,0.0,0.0,0.0,0.0,0.0,0.0,0.0,0.0,0.0,0.0,0.0,0.0,0.0,0.0,0.0,0.0,0.0,0.0,0.0,0.0,0.0,0.0,0.0,0.0,0.0,0.0,0.0,0.0,0.0,1.541,1.5342,1.5303,1.5303,1.4893,1.4678,1.4678,1.428,1.4104,1.4104,1.4036,1.3958,1.389,1.389,1.3929,1.3977,1.3584,1.3398,1.3369,1.3052,1.2905,1.2905,1.2905,1.2905,1.2905,1.2905,1.2905,1.2905,1.2905,1.2905,1.2929,1.3017,1.3065,1.3065,1.3176,1.3552,1.398,1.4073,1.4468,1.4858,1.4858,1.4926,1.4971,1.488,1.4926,1.4971,1.488,1.4858,1.5028,1.5644,1.5354,1.5344,1.6337,1.65,1.65,1.65,1.65,1.65,1.65,1.65,1.65,1.65,1.65,1.65,1.65,1.65,1.65,1.65,1.65,1.65,1.65,1.65,1.65,1.65,1.65,1.65,1.65,1.65,1.65,1.65,1.65,1.65,0.0,0.0,0.0,0.0,0.0,0.0,0.0,0.0,0.0,0.0,0.0,0.0,0.0,0.0,0.0,0.0,0.0,0.0,0.0,0.0,0.0,0.0,0.0,0.0,0.0,0.0,0.0,0.0,0.0,0.0,1.541,1.5068,1.4873,1.4873,1.4416,1.4192,1.4192,1.4133,1.4104,1.4104,1.3743,1.3398,1.3071,1.3071,1.3242,1.3574,1.3145,1.2993,1.2983,1.2925,1.2905,1.2905,1.2905,1.2905,1.2905,1.2905,1.2905,1.2905,1.2905,1.2905,1.2992,1.3505,1.3684,1.3779,1.4294,1.4525,1.4698,1.5208,1.5432,1.5477,1.5477,1.5864,1.6129,1.5588,1.5876,1.6129,1.5588,1.5477,1.5654,1.6259,1.6315,1.6315,1.6466,1.65,1.65,1.65,1.65,1.65,1.65,1.65,1.65,1.65,1.65,1.65,1.65,1.65,1.65,1.65,1.65,1.65,1.65,1.65,1.65,1.65,1.65,1.65,1.65,1.65,1.65,1.65,1.65,1.65,0.6386,0.0,0.0,0.0,0.0,0.0,0.0,0.0,0.0,0.0,0.0,0.0,0.0,0.0,0.0,0.0,0.0,0.0,0.0,0.0,0.0,0.0,0.0,0.0,0.0,0.0,0.0,0.0,0.0,1.5059,1.5059,1.4648,1.4424,1.4424,1.3977,1.3753,1.3753,1.3545,1.3437,1.3428,1.3242,1.3057,1.2905,1.2905,1.3013,1.3145,1.2983,1.2905,1.2905,1.2905,1.2905,1.2905,1.2905,1.2905,1.2905,1.2905,1.2905,1.2954,1.3286,1.3396,1.3515,1.4097,1.4306,1.4352,1.4629,1.4949,1.5253,1.5521,1.5842,1.6095,1.6095,1.6303,1.6423,1.6173,1.6315,1.6423,1.6173,1.6095,1.6194,1.6445,1.65,1.65,1.65,1.65,1.65,1.65,1.65,1.65,1.65,1.65,1.65,1.65,1.65,1.65,1.65,1.65,1.65,1.65,1.65,1.65,1.65,1.65,1.65,1.65,1.65,1.65,1.65,1.65,1.65,1.6522,1.6816,1.6951,0.0,0.0,0.0,0.0,0.0,0.0,0.0,0.0,0.0,0.0,0.0,0.0,0.0,0.0,0.0,0.0,0.0,0.0,0.0,0.0,0.0,0.0,0.0,0.0,0.0,0.0,0.0,0.0,0.0,1.4619,1.4619,1.4182,1.3948,1.3948,1.3574,1.335,1.335,1.3062,1.2905,1.2905,1.2905,1.2905,1.2905,1.3065,1.3128,1.3128,1.3128,1.3128,1.3152,1.3286,1.3368,1.3334,1.32,1.3128,1.3128,1.3128,1.3128,1.3224,1.3826,1.4027,1.412,1.4744,1.4926,1.4971,1.5107,1.5466,1.582,1.582,1.6139,1.65,1.65,1.65,1.65,1.65,1.65,1.65,1.65,1.65,1.65,1.65,1.65,1.65,1.65,1.65,1.65,1.65,1.65,1.65,1.65,1.65,1.65,1.65,1.65,1.65,1.65,1.65,1.65,1.65,1.65,1.65,1.65,1.6637,1.6637,1.65,1.6637,1.6689,1.6689,1.6689,1.6689,1.671,1.725,1.7422,0.0,0.0,0.0,0.0,0.0,0.0,0.0,0.0,0.0,0.0,0.0,0.0,0.0,0.0,0.0,0.0,0.0,0.0,0.0,0.0,0.0,0.0,0.0,0.0,0.0,0.0,0.0,0.0,0.0,1.4143,1.4143,1.3743,1.3545,1.3545,1.3135,1.2935,1.2935,1.2915,1.2905,1.2905,1.2905,1.2905,1.2929,1.3481,1.3755,1.3755,1.3755,1.3755,1.3802,1.4376,1.4617,1.4548,1.399,1.3755,1.3755,1.3755,1.3755,1.3849,1.4445,1.4652,1.4744,1.5365,1.5543,1.5654,1.6238,1.6423,1.6445,1.6445,1.6479,1.65,1.65,1.65,1.65,1.65,1.65,1.65,1.65,1.65,1.65,1.65,1.65,1.65,1.65,1.65,1.65,1.65,1.65,1.65,1.65,1.65,1.65,1.65,1.65,1.65,1.65,1.65,1.65,1.65,1.65,1.65,1.65,1.6993,1.7013,1.6522,1.6993,1.725,1.725,1.725,1.725,1.7271,1.7807,1.7787,0.0,0.0,0.0,0.0,0.0,0.0,0.0,0.0,0.0,0.0,0.0,0.0,0.0,0.0,0.0,0.0,0.0,0.0,0.0,0.0,0.0,0.0,0.0,0.0,0.0,0.0,0.0,0.0,0.0,0.0,1.3704,1.333,1.3105,1.3105,1.2983,1.2905,1.2905,1.2905,1.2905,1.2905,1.2905,1.3104,1.3481,1.3708,1.4003,1.4399,1.4801,1.4732,1.4399,1.4606,1.4698,1.4675,1.4468,1.4376,1.4376,1.4376,1.4376,1.4468,1.5073,1.5276,1.5365,1.5986,1.6194,1.6216,1.6423,1.65,1.65,1.65,1.65,1.65,1.65,1.65,1.65,1.65,1.65,1.65,1.65,1.65,1.65,1.65,1.65,1.65,1.65,1.65,1.65,1.65,1.65,1.65,1.65,1.65,1.65,1.65,1.65,1.65,1.65,1.65,1.6659,1.6993,1.7013,1.7013,1.7013,1.7524,1.7565,1.7013,1.7544,1.7646,1.7312,1.7312,1.7483,1.7827,1.8361,1.8516,0.535,0.0,0.0,0.0,0.0,0.0,0.0,0.0,0.0,0.0,0.0,0.0,0.0,0.0,0.0,0.0,0.0,0.0,0.0,0.0,0.0,0.0,0.0,0.0,0.0,0.0,0.0,0.0,0.0,0.0,1.3301,1.3062,1.2905,1.2905,1.2905,1.2905,1.2905,1.2905,1.2992,1.32,1.32,1.3515,1.412,1.4318,1.4618,1.5039,1.5644,1.5555,1.5017,1.522,1.5287,1.5265,1.5085,1.4994,1.4994,1.4994,1.4994,1.5085,1.5688,1.5908,1.5974,1.638,1.65,1.65,1.65,1.65,1.65,1.65,1.65,1.65,1.65,1.65,1.65,1.65,1.65,1.65,1.65,1.65,1.65,1.65,1.65,1.65,1.65,1.65,1.65,1.65,1.65,1.65,1.65,1.65,1.6573,1.6752,1.6774,1.6774,1.6774,1.693,1.7118,1.7291,1.7463,1.7565,1.7565,1.8086,1.8125,1.7585,1.8106,1.8204,1.7847,1.7847,1.8027,1.838,1.893,1.9169,0.0,0.0,0.0,0.0,0.0,0.0,0.0,0.0,0.0,0.0,0.0,0.0,0.0,0.0,0.0,0.0,0.0,0.0,0.0,0.0,0.0,0.0,0.0,0.0,0.0,0.0,0.0,0.0,0.0,1.2905,1.2905,1.2905,1.2905,1.2905,1.2905,1.2905,1.2929,1.2929,1.3238,1.3815,1.3815,1.4143,1.4744,1.532,1.561,1.5654,1.6238,1.6173,1.5676,1.6259,1.65,1.6445,1.5864,1.5632,1.5632,1.5632,1.5632,1.5698,1.6293,1.65,1.65,1.65,1.65,1.65,1.65,1.65,1.65,1.65,1.65,1.65,1.65,1.65,1.65,1.65,1.65,1.65,1.65,1.65,1.65,1.65,1.65,1.65,1.65,1.65,1.65,1.65,1.65,1.6522,1.6522,1.6522,1.671,1.725,1.7312,1.7312,1.7333,1.7807,1.7887,1.7394,1.7847,1.8125,1.8125,1.8631,1.8669,1.8145,1.865,1.893,1.893,1.8912,1.8912,1.8949,1.946,1.9708,0.6106,0.0,0.0,0.0,0.0,0.0,0.0,0.0,0.0,0.0,0.0,0.0,0.0,0.0,0.0,0.0,0.0,0.0,0.0,0.0,0.0,0.0,0.0,0.0,0.0,0.0,0.0,0.0,1.2949,1.2905,1.2905,1.2905,1.2905,1.2905,1.2905,1.3104,1.3552,1.3552,1.3849,1.4445,1.4445,1.4766,1.5365,1.5521,1.5842,1.6259,1.6423,1.6402,1.6259,1.6423,1.65,1.6466,1.6315,1.6238,1.6238,1.6238,1.6238,1.6259,1.6445,1.65,1.65,1.65,1.65,1.65,1.65,1.65,1.65,1.65,1.65,1.65,1.65,1.65,1.65,1.65,1.65,1.65,1.65,1.65,1.65,1.65,1.65,1.65,1.65,1.65,1.65,1.65,1.65,1.6637,1.7034,1.6731,1.6858,1.7787,1.7524,1.7463,1.7847,1.8007,1.8204,1.8438,1.8593,1.8669,1.8669,1.9188,1.9225,1.8688,1.9207,1.9479,1.9479,1.9095,1.9114,1.9479,1.9621,1.9708,0.0,0.0,0.0,0.0,0.0,0.0,0.0,0.0,0.0,0.0,0.0,0.0,0.0,0.0,0.0,0.0,0.0,0.0,0.0,0.0,0.0,0.0,0.0,0.0,0.0,0.0,0.0,1.2905,1.2905,1.2905,1.2905,1.2905,1.2905,1.2905,1.3152,1.3443,1.3792,1.405,1.4491,1.5085,1.5085,1.5399,1.5986,1.5986,1.6173,1.65,1.65,1.65,1.65,1.65,1.65,1.65,1.65,1.65,1.65,1.65,1.65,1.65,1.65,1.65,1.65,1.65,1.65,1.65,1.65,1.65,1.65,1.65,1.65,1.65,1.65,1.65,1.65,1.65,1.65,1.65,1.65,1.65,1.65,1.65,1.65,1.65,1.65,1.65,1.6573,1.6795,1.6837,1.7034,1.7565,1.7374,1.7483,1.8341,1.8165,1.8086,1.8419,1.8631,1.8817,1.8893,1.9114,1.9225,1.9225,1.953,1.9548,1.9244,1.9548,1.9708,1.9708,1.9387,1.9387,1.9708,1.9708,1.9708,0.0,0.0,0.0,0.0,0.0,0.0,1.0225,1.0059,0.0,0.0,0.0,0.0,0.0,0.0,0.0,0.0,0.0,0.0,0.0,0.0,0.0,0.0,0.0,0.0,0.0,1.2905,1.2905,1.2905,1.2905,1.2929,1.3002,1.2992,1.3041,1.3089,1.3624,1.3933,1.4003,1.4537,1.5096,1.5698,1.5698,1.5986,1.65,1.65,1.65,1.65,1.65,1.65,1.65,1.65,1.65,1.65,1.65,1.65,1.65,1.65,1.65,1.65,1.65,1.65,1.65,1.65,1.65,1.65,1.65,1.65,1.65,1.65,1.65,1.65,1.65,1.65,1.65,1.65,1.65,1.65,1.65,1.6552,1.6595,1.6595,1.6595,1.6616,1.668,1.668,1.6837,1.7333,1.7394,1.7585,1.8125,1.8145,1.8341,1.893,1.8949,1.893,1.8987,1.9424,1.9497,1.9024,1.9442,1.9708,1.9708,1.9708,1.9708,1.9708,1.9708,1.9708,1.9708,1.9708,1.9708,1.9708,1.9708,1.9708,0.0,0.0,0.0,0.0,0.0,0.0,0.0,0.9004,0.0,0.0,0.0,0.0,0.0,0.0,0.0,0.0,0.0,0.0,0.0,0.0,0.0,0.0,0.0,0.0,0.0,1.2905,1.2905,1.2905,1.2905,1.3104,1.36,1.3613,1.3849,1.434,1.4468,1.4766,1.5241,1.5365,1.5732,1.6315,1.6315,1.638,1.65,1.65,1.65,1.65,1.65,1.65,1.65,1.65,1.65,1.65,1.65,1.65,1.65,1.65,1.65,1.65,1.65,1.65,1.65,1.65,1.65,1.65,1.65,1.65,1.65,1.65,1.65,1.65,1.65,1.65,1.65,1.65,1.65,1.65,1.65,1.6837,1.7126,1.7126,1.7126,1.7271,1.7706,1.7787,1.7827,1.7927,1.7947,1.8145,1.8669,1.838,1.8477,1.9442,1.9169,1.9062,1.9512,1.9639,1.9657,1.9548,1.9639,1.9708,1.9708,1.9708,1.9708,1.9708,1.9708,1.9708,1.9708,1.9708,1.9708,1.9708,1.9708,1.9708,0.0,0.0,0.0,1.043,0.0,0.0,0.0,0.0,0.0,0.0,0.0,0.0,0.0,0.0,0.0,0.0,0.0,0.0,0.0,0.0,0.0,0.0,0.0,0.0,0.0,1.2905,1.2905,1.2905,1.3176,1.3481,1.3768,1.4097,1.4376,1.4686,1.4983,1.5298,1.561,1.5908,1.6194,1.65,1.65,1.65,1.65,1.65,1.65,1.65,1.65,1.65,1.65,1.65,1.65,1.65,1.65,1.65,1.65,1.65,1.65,1.65,1.65,1.65,1.65,1.65,1.65,1.65,1.65,1.65,1.65,1.65,1.65,1.6552,1.6837,1.6888,1.6972,1.7229,1.7312,1.7312,1.7312,1.7504,1.7787,1.8046,1.8106,1.8106,1.8106,1.8106,1.8204,1.8458,1.8496,1.8688,1.9225,1.9062,1.9114,1.9639,1.946,1.9406,1.969,1.9708,1.9708,1.9708,1.9708,1.9708,1.9708,1.9708,1.9708,1.9708,1.9708,1.9708,1.9708,1.9708,1.9708,1.9708,1.9708,1.9818,0.0,0.0,0.0,0.0,0.0,1.0586,0.0,0.0,0.0,1.041,0.0,0.0,0.0,0.0,0.0,0.0,0.0,0.0,0.0,0.0,0.0,0.0,0.0,0.0,0.0,1.27,1.2767,1.3045,1.3364,1.3719,1.4122,1.4595,1.4926,1.5039,1.5533,1.5764,1.5764,1.6259,1.65,1.65,1.65,1.65,1.65,1.65,1.65,1.65,1.65,1.65,1.65,1.65,1.65,1.65,1.65,1.65,1.65,1.65,1.65,1.65,1.65,1.65,1.65,1.65,1.65,1.65,1.65,1.65,1.6522,1.6616,1.6659,1.6774,1.7312,1.7442,1.7565,1.8007,1.8106,1.8106,1.8106,1.8185,1.838,1.8817,1.8987,1.893,1.8477,1.8419,1.8554,1.8987,1.9043,1.9207,1.9639,1.9708,1.9708,1.9708,1.9708,1.9708,1.9708,1.9708,1.9708,1.9708,1.9708,1.9708,1.9708,1.9708,1.9708,1.9708,1.9708,1.9729,1.9818,1.9818,1.9782,1.9708,1.9782,1.9982,0.0,0.0,0.0,0.0,1.1748,0.0,0.0,0.0,1.0038,0.9355,0.0,0.0,0.0,0.0,0.0,0.0,0.0,0.0,0.0,0.0,0.0,0.0,0.0,0.0,0.0,0.0,1.2293,1.3598,1.3045,1.3444,1.5284,1.5477,1.5732,1.6272,1.6358,1.6402,1.6402,1.6466,1.65,1.65,1.65,1.65,1.65,1.65,1.65,1.65,1.65,1.65,1.65,1.65,1.65,1.65,1.65,1.65,1.65,1.65,1.65,1.65,1.65,1.65,1.65,1.65,1.65,1.65,1.65,1.65,1.6595,1.7076,1.7209,1.7333,1.7867,1.8007,1.8027,1.8086,1.8106,1.8106,1.8106,1.8477,1.8836,1.8893,1.9281,1.9584,1.953,1.953,1.9548,1.9603,1.9603,1.9621,1.969,1.9708,1.9708,1.9708,1.9708,1.9708,1.9708,1.9708,1.9708,1.9708,1.9708,1.9708,1.9708,1.9708,1.9708,1.9708,1.9708,1.9874,2.0229,2.0229,2.0052,1.9708,2.007,2.0246,0.0,0.0,0.0,0.0,0.0,0.0,0.0,0.0,1.0254,0.0,0.0,0.0,0.0,0.0,0.0,0.0,0.0,0.0,0.0,0.0,0.0,0.0,0.0,0.0,0.0,0.0,0.0,0.0,0.0,1.388,1.5081,1.575,1.6238,1.65,1.65,1.65,1.65,1.65,1.65,1.65,1.65,1.65,1.65,1.65,1.65,1.65,1.65,1.65,1.65,1.65,1.65,1.65,1.65,1.65,1.65,1.65,1.65,1.65,1.65,1.65,1.6552,1.6858,1.6951,1.7013,1.7333,1.7422,1.7483,1.7706,1.7767,1.7887,1.8419,1.8554,1.8631,1.8949,1.9024,1.9024,1.9024,1.9207,1.9369,1.9369,1.9548,1.9708,1.9708,1.9708,1.9708,1.9708,1.9708,1.9708,1.9708,1.9708,1.9708,1.9708,1.9708,1.9708,1.9708,1.9708,1.9708,1.9708,1.9708,1.9708,1.9708,1.9708,1.9708,1.9708,1.9708,1.9909,2.0297,2.0297,2.0348,2.0464,2.0632,2.083,1.32,0.0,0.0,0.0,0.0,0.0,0.0,0.0,0.0,0.0,0.0,0.0,0.0,0.0,0.0,0.0,0.0,0.0,0.0,0.0,0.0,0.0,0.0,0.0,0.0,0.0,0.0,0.0,0.0,0.0,1.4992,1.5839,1.6337,1.6488,1.65,1.65,1.65,1.65,1.65,1.65,1.65,1.65,1.65,1.65,1.65,1.65,1.65,1.65,1.65,1.65,1.65,1.65,1.65,1.6595,1.6689,1.6552,1.65,1.65,1.65,1.6595,1.6816,1.7353,1.7524,1.7585,1.7987,1.8106,1.8145,1.8283,1.8322,1.8438,1.8987,1.9132,1.9225,1.9603,1.9708,1.9708,1.9708,1.9708,1.9708,1.9708,1.9708,1.9708,1.9708,1.9708,1.9708,1.9708,1.9708,1.9708,1.9708,1.9708,1.9708,1.9708,1.9708,1.9708,1.9708,1.98,1.9856,1.9856,1.9856,1.9856,1.9856,1.9856,1.9927,2.005,2.0067,2.0244,2.0666,2.0666,2.0894,2.1354,2.1213,2.1322,0.0,0.0,0.0,1.1987,0.0,0.0,0.0,0.0,1.0868,0.0,0.0,0.0,0.0,0.0,0.0,0.0,0.0,0.0,0.0,0.0,0.0,0.0,0.0,0.0,0.0,0.0,0.0,0.0,0.0,0.0,1.5539,1.5718,1.5969,1.6475,1.65,1.65,1.65,1.65,1.65,1.65,1.65,1.65,1.65,1.65,1.65,1.65,1.65,1.65,1.65,1.65,1.65,1.65,1.65,1.6816,1.7209,1.6701,1.65,1.65,1.65,1.6837,1.7374,1.7907,1.8066,1.8086,1.8086,1.8106,1.8224,1.8727,1.8874,1.9006,1.9548,1.9672,1.969,1.9708,1.9708,1.9708,1.9708,1.9708,1.9708,1.9708,1.9708,1.9708,1.9708,1.9708,1.9708,1.9708,1.9708,1.9708,1.9708,1.9708,1.9708,1.9708,1.9708,1.9708,1.9708,2.0054,2.028,2.028,2.028,2.028,2.028,2.028,2.05,2.0943,2.0975,2.115,2.1552,2.1552,2.1794,2.2254,2.1794,2.1582,0.0,0.0,1.4108,1.2891,0.0,0.0,0.0,0.0,0.0,0.0,0.0,0.0,0.0,0.0,0.0,0.0,0.0,0.0,0.0,0.0,0.0,0.0,0.0,0.0,0.0,0.0,0.0,0.0,0.0,0.0,0.0,1.5311,1.5781,1.5969,1.63,1.65,1.65,1.65,1.65,1.65,1.65,1.65,1.65,1.65,1.65,1.65,1.65,1.6689,1.7034,1.7034,1.7229,1.7565,1.7565,1.7666,1.7727,1.6837,1.6951,1.7565,1.7565,1.7686,1.7927,1.8458,1.8631,1.8688,1.9043,1.9169,1.9207,1.9387,1.9424,1.946,1.9639,1.9708,1.9708,1.9708,1.9708,1.9708,1.9708,1.9708,1.9708,1.9708,1.9708,1.9708,1.9708,1.9708,1.9708,1.9708,1.9708,1.98,2.0054,2.0089,2.021,2.0515,2.0549,2.0549,2.0549,2.0682,2.0748,2.0748,2.0748,2.0748,2.0748,2.0748,2.0845,2.0991,2.0991,2.1197,2.1597,2.1597,2.1838,2.2296,2.2135,2.2061,1.496,1.5017,0.0,1.3729,1.326,0.0,1.1975,0.0,0.0,0.0,0.0,0.0,0.0,0.0,0.0,0.0,0.0,0.0,0.0,0.0,0.0,0.0,0.0,0.0,0.0,0.0,0.9826,1.0702,0.0,0.0,0.0,0.0,1.5512,1.568,1.6233,1.65,1.65,1.65,1.65,1.65,1.65,1.65,1.65,1.65,1.65,1.6522,1.6689,1.6972,1.7312,1.7504,1.7787,1.8106,1.8106,1.8224,1.8283,1.7394,1.7504,1.8145,1.8322,1.838,1.8477,1.9006,1.9188,1.9244,1.9603,1.9708,1.9708,1.9708,1.9708,1.9708,1.9708,1.9708,1.9708,1.9708,1.9708,1.9708,1.9708,1.9708,1.9708,1.9708,1.9708,1.9708,1.9708,1.9708,1.9708,1.9708,1.9708,1.9839,2.0246,2.0297,2.0483,2.0943,2.0991,2.1055,2.1197,2.1213,2.1213,2.1213,2.1213,2.1213,2.1213,2.1213,2.1291,2.1462,2.1462,2.16,2.1838,2.1838,2.2003,2.2296,2.2296,2.2296]}]]